[[{"header":{"parameterUnit":"m.s-1","parameterCategory":1,"la1":30.6,"la2":29.2853,"lo1":-89.7004,"lo2":-87.6739,"dy":0.0162,"dx":0.0183,"nx":112,"ny":82,"refTime":"2023-05-30T06:00:00:Z","depth":0,"parameterNumber":2,"parameterNumberName":"U-component_of_WINDS"},"data":[0.0,0.0,0.0,0.0,0.0,0.0,0.0,0.0,0.0,0.0,0.0,0.0,0.0,0.0,0.0,0.0,0.0,0.0,0.0,0.0,0.0,0.0,0.0,0.0,0.0,0.0,0.0,0.0,0.0,0.0,0.0,0.0,0.0,0.0,0.0,0.0,0.0,0.0,0.0,0.0,0.0,0.0,0.0,0.0,0.0,0.0,0.0,0.0,0.0,0.0,0.0,0.0,0.0,0.0,0.0,0.0,0.0,0.0,0.0,0.0,0.0,0.0,0.0,0.0,0.0,0.0,0.0,0.0,0.0,0.0,0.0,0.0,0.0,0.0,0.0,0.0,0.0,0.0,0.0,0.0,0.0,0.0,0.0,0.0,0.0,0.0,0.0,0.0,0.0,0.0,0.0,0.9536,0.8203,0.7325,0.7352,0.6469,0.614,0.6435,0.0,0.0,0.0,0.0,0.0,0.0,0.0,0.0,0.0,0.0,0.0,0.0,0.0,0.0,0.0,0.0,0.0,0.0,0.0,0.0,0.0,0.0,0.0,0.0,0.0,0.0,0.0,0.0,0.0,0.0,0.0,0.0,0.0,0.0,0.0,0.0,0.0,0.0,0.0,0.0,0.0,0.0,0.0,0.0,0.0,0.0,0.0,0.0,0.0,0.0,0.0,0.0,0.0,0.0,0.0,0.0,0.0,0.0,0.0,0.0,0.0,0.0,0.0,0.0,0.0,0.0,0.0,0.0,0.0,0.0,0.0,0.0,0.0,0.0,0.0,0.0,0.0,0.0,0.0,0.0,0.0,0.0,0.0,0.0,0.0,0.0,0.0,0.0,0.0,0.0,0.0,0.0,0.0,0.0,0.0,0.0,0.0,0.0,0.0,0.0,0.0,0.0,0.0,0.0,0.9116,0.7539,0.7774,0.765,0.6639,0.6452,0.6433,0.6655,0.0,0.0,0.0,0.0,0.0,0.0,0.0,0.0,0.0,0.0,0.0,0.0,0.0,0.0,0.0,0.0,0.0,0.0,0.0,0.0,0.0,0.0,0.0,0.0,0.0,0.0,0.0,0.0,0.0,0.0,0.0,0.0,0.0,0.0,0.0,0.0,0.0,0.0,0.0,0.0,0.0,0.0,0.0,0.0,0.0,0.0,0.0,0.0,0.0,0.0,0.0,0.0,0.0,0.0,0.0,0.0,0.0,0.0,0.0,0.0,0.0,0.0,0.0,0.0,0.0,0.0,0.0,0.0,0.0,0.0,0.0,0.0,0.0,0.0,0.0,0.0,0.0,0.0,0.0,0.0,0.0,0.0,0.0,0.0,0.0,0.0,0.0,0.0,0.0,0.0,0.0,0.0,0.0,0.0,0.0,0.0,0.0,0.0,0.0,0.0,0.0,0.0,0.0,0.9114,0.8283,0.667,0.6958,0.7136,0.6587,0.6239,0.6298,0.6809,0.6239,0.0,0.0,0.0,0.0,0.0,0.0,0.0,0.0,0.0,0.0,0.0,0.0,0.0,0.0,0.0,0.0,0.0,0.0,0.0,0.0,0.0,0.0,0.0,0.0,0.0,0.0,0.0,0.0,0.0,0.0,0.0,0.0,0.0,0.0,0.0,0.0,0.0,0.0,0.0,0.0,0.0,0.0,0.0,0.0,0.0,0.0,0.0,0.0,0.0,0.0,0.0,0.0,0.0,0.0,0.0,0.0,0.0,0.0,0.0,0.0,0.0,0.0,0.0,0.0,0.0,0.0,0.0,0.0,0.0,0.0,0.0,0.0,0.0,0.0,0.0,0.0,0.0,0.0,0.0,0.0,0.0,0.0,0.0,0.0,0.0,0.0,0.0,0.0,0.0,0.0,0.0,0.0,0.0,0.0,0.0,0.0,0.0,0.0,0.0,0.0,0.0,0.0,0.8004,0.7526,0.6288,0.6512,0.6744,0.671,0.6241,0.6306,0.7005,0.6455,0.0,0.0,0.0,0.0,0.0,0.0,0.0,0.0,0.0,0.0,0.0,0.0,0.0,0.0,0.0,0.0,0.0,0.0,0.0,0.0,0.0,0.0,0.0,0.0,0.0,0.0,0.0,0.0,0.0,0.0,0.0,0.0,0.0,0.0,0.0,0.0,0.0,0.0,0.0,0.0,0.0,0.0,0.0,0.0,0.0,0.0,0.0,0.0,0.0,0.0,0.0,0.0,0.0,0.0,0.0,0.0,0.0,0.0,0.0,0.0,0.0,0.0,0.0,0.0,0.0,0.0,0.0,0.0,0.0,0.0,0.0,0.0,0.0,0.0,0.0,0.0,0.0,0.0,0.0,0.0,0.0,0.0,0.0,0.0,0.0,0.0,0.0,0.0,0.0,0.0,0.0,0.0,0.0,0.0,0.0,0.0,0.0,0.0,0.0,0.0,0.0,0.0,0.7442,0.6793,0.6363,0.6896,0.719,0.6893,0.6693,0.6749,0.7138,0.699,0.0,0.0,0.0,0.0,0.0,0.0,0.0,0.0,0.0,0.0,0.0,0.0,0.0,0.0,0.0,0.0,0.0,0.0,0.0,0.0,0.0,0.0,0.0,0.0,0.0,0.0,0.0,0.0,0.0,0.0,0.0,0.0,0.0,0.0,0.0,0.0,0.0,0.0,0.0,0.0,0.0,0.0,0.0,0.0,0.0,0.0,0.0,0.0,0.0,0.0,0.0,0.0,0.0,0.0,0.0,0.0,0.0,0.0,0.0,0.0,0.0,0.0,0.0,0.0,0.0,0.0,0.0,0.0,0.0,0.0,0.0,0.0,0.0,0.0,0.0,0.0,0.0,0.0,0.0,0.0,0.0,0.0,0.0,0.0,0.0,0.0,0.0,0.0,0.0,0.0,0.0,0.0,0.0,0.0,0.0,0.0,0.0,0.0,0.0,0.0,0.0,0.0,0.7799,0.7009,0.0,0.6627,0.6878,0.6707,0.6353,0.6423,0.718,0.0,0.0,0.0,0.0,0.0,0.0,0.0,0.0,0.0,0.0,0.0,0.0,0.0,0.0,0.0,0.0,0.0,0.0,0.0,0.0,0.0,0.0,0.0,0.0,0.0,0.0,0.0,0.0,0.0,0.0,0.0,0.0,0.0,0.0,0.0,0.0,0.0,0.0,0.0,0.0,0.0,0.0,0.0,0.0,0.0,0.0,0.0,0.0,0.0,0.0,0.0,0.0,0.0,0.0,0.0,0.0,0.0,0.0,0.0,0.0,0.0,0.0,0.0,0.0,0.0,0.0,0.0,0.0,0.0,0.0,0.0,0.0,0.0,0.0,0.0,0.0,0.0,0.0,0.0,0.0,0.0,0.0,0.0,0.0,0.0,0.0,0.0,0.0,0.0,0.0,0.0,0.0,0.0,0.0,0.0,0.0,0.0,0.0,0.0,0.0,0.0,0.0,0.868,0.771,0.6872,0.0,0.6412,0.6486,0.6486,0.6177,0.6331,0.6949,0.0,0.0,0.0,0.0,0.0,0.0,0.0,0.0,0.0,0.0,0.0,0.0,0.0,0.0,0.0,0.0,0.0,0.0,0.0,0.0,0.0,0.0,0.0,0.0,0.0,0.0,0.0,0.0,0.0,0.0,0.0,0.0,0.0,0.0,0.0,0.0,0.0,0.0,0.0,0.0,0.0,0.0,0.0,0.0,0.0,0.0,0.0,0.0,0.0,0.0,0.0,0.0,0.0,0.0,0.0,0.0,0.0,0.0,0.0,0.0,0.0,0.0,0.0,0.0,0.0,0.0,0.0,0.0,0.0,0.0,0.0,0.0,0.0,0.0,0.0,0.0,0.0,0.0,0.0,0.0,0.0,0.0,0.0,0.0,0.0,0.0,0.0,0.0,0.0,0.0,0.0,0.0,0.0,0.0,0.0,0.0,0.0,0.0,0.0,0.0,0.0,0.0,0.8456,0.7173,0.6261,0.6261,0.6261,0.6261,0.6338,0.6338,0.6412,0.0,0.0,0.0,0.0,0.0,0.0,0.0,0.0,0.0,0.0,0.0,0.0,0.0,0.0,0.0,0.0,0.0,0.0,0.0,0.0,0.0,0.0,0.0,0.0,0.0,0.0,0.0,0.0,0.0,0.0,0.0,0.0,0.0,0.0,0.0,0.0,0.0,0.0,0.0,0.0,0.0,0.0,0.0,0.0,0.0,0.0,0.0,0.0,0.0,0.0,0.0,0.0,0.0,0.0,0.0,0.0,0.0,0.0,0.0,0.0,0.0,0.0,0.0,0.0,0.0,0.0,0.0,0.0,0.0,0.0,0.0,0.0,0.0,0.0,0.0,0.0,0.0,0.0,0.0,0.0,0.0,0.0,0.0,0.0,0.0,0.0,0.0,0.0,0.0,0.0,0.0,0.0,0.0,0.0,0.0,0.0,0.0,0.0,0.0,0.0,0.0,0.0,0.0,0.838,0.6861,0.587,0.6022,0.6022,0.6099,0.6261,0.6338,0.6412,0.6563,0.0,0.0,0.0,0.0,0.0,0.0,0.0,0.0,0.0,0.0,0.0,0.0,0.0,0.0,0.0,0.0,0.0,0.0,0.0,0.0,0.0,0.0,0.0,0.0,0.0,0.0,0.0,0.0,0.0,0.0,0.0,0.0,0.0,0.0,0.0,0.0,0.0,0.0,0.0,0.0,0.0,0.0,0.0,0.0,0.0,0.0,0.0,0.0,0.0,0.0,0.0,0.0,0.0,0.0,0.0,0.0,0.0,0.0,0.0,0.0,0.0,0.0,0.0,0.0,0.0,0.0,0.0,0.0,0.0,0.0,0.0,0.0,0.0,0.0,0.0,0.0,0.0,0.0,0.0,0.0,0.0,0.0,0.0,0.0,0.0,0.0,0.0,0.0,0.0,0.0,0.0,0.0,0.0,0.0,0.0,0.0,0.0,0.0,0.0,0.0,0.0,0.0,0.8156,0.6707,0.5786,0.586,0.6018,0.6099,0.6103,0.618,0.6177,0.6177,0.0,0.0,0.0,0.0,0.0,0.0,0.0,0.0,0.0,0.0,0.0,0.0,0.0,0.0,0.0,0.0,0.0,0.0,0.0,0.0,0.0,0.0,0.0,0.0,0.0,0.0,0.0,0.0,0.0,0.0,0.0,0.0,0.0,0.0,0.0,0.0,0.0,0.0,0.0,0.0,0.0,0.0,0.0,0.0,0.0,0.0,0.0,0.0,0.0,0.0,0.0,0.0,0.0,0.0,0.0,0.0,0.0,0.0,0.0,0.0,0.0,0.0,0.0,0.0,0.0,0.0,0.0,0.0,0.0,0.0,0.0,0.0,0.0,0.0,0.0,0.0,0.0,0.0,0.0,0.0,0.0,0.0,0.0,0.0,0.0,0.0,0.0,0.0,0.0,0.0,0.0,0.0,0.0,0.0,0.0,0.0,0.0,0.0,0.0,0.0,0.0,0.0,0.7702,0.6553,0.5786,0.5864,0.6099,0.6103,0.5864,0.5864,0.5789,0.5637,0.0,0.0,0.0,0.0,0.0,0.0,0.0,0.0,0.0,0.0,0.0,0.0,0.0,0.0,0.0,0.0,0.0,0.0,0.0,0.0,0.0,0.0,0.0,0.0,0.0,0.0,0.0,0.0,0.0,0.0,0.0,0.0,0.0,0.0,0.0,0.0,0.0,0.0,0.0,0.0,0.0,0.0,0.0,0.0,0.0,0.0,0.0,0.0,0.0,0.0,0.0,0.0,0.0,0.0,0.0,0.0,0.0,0.0,0.0,0.0,0.6343,0.0,0.0,0.0,0.0,0.0,0.0,0.0,0.0,0.0,0.0,0.0,0.0,0.0,0.0,0.0,0.0,0.0,0.0,0.0,0.0,0.0,0.0,0.0,0.0,0.0,0.0,0.0,0.0,0.0,0.0,0.0,0.0,0.0,0.0,0.0,0.0,0.0,0.0,0.0,0.0,0.0,0.685,0.586,0.5246,0.5398,0.5476,0.5556,0.5637,0.5637,0.5634,0.5637,0.0,0.0,0.0,0.0,0.0,0.0,0.0,0.0,0.0,0.0,0.0,0.0,0.0,0.0,0.0,0.0,0.0,0.0,0.0,0.0,0.0,0.0,0.0,0.0,0.0,0.0,0.0,0.0,0.0,0.0,0.0,0.0,0.0,0.0,0.0,0.0,0.0,0.0,0.0,0.0,0.0,0.0,0.0,0.0,0.0,0.0,0.0,0.0,0.0,0.0,0.0,0.0,0.0,0.0,0.0,0.0,0.0,0.0,0.0,0.0,0.0,0.6679,0.0,0.0,0.0,0.0,0.0,0.0,0.0,0.0,0.0,0.0,0.0,0.0,0.0,0.0,0.0,0.0,0.0,0.0,0.0,0.0,0.0,0.0,0.0,0.0,0.0,0.0,0.0,0.0,0.0,0.0,0.0,0.0,0.0,0.0,0.0,0.0,0.0,0.0,0.0,0.0,0.6465,0.5628,0.5168,0.5321,0.5398,0.5479,0.5479,0.5479,0.5401,0.5326,0.5404,0.0,0.0,0.0,0.0,0.0,0.0,0.0,0.0,0.0,0.0,0.0,0.0,0.0,0.0,0.0,0.0,0.0,0.0,0.0,0.0,0.0,0.0,0.0,0.0,0.0,0.0,0.0,0.0,0.0,0.0,0.0,0.0,0.0,0.0,0.0,0.0,0.0,0.0,0.0,0.0,0.0,0.0,0.0,0.0,0.0,0.0,0.0,0.0,0.0,0.0,0.0,0.0,0.0,0.0,0.6148,0.6086,0.5683,0.5683,0.6148,0.6148,0.6416,0.6815,0.0,0.0,0.0,0.0,0.0,0.0,0.0,0.0,0.0,0.0,0.0,0.0,0.0,0.0,0.0,0.0,0.0,0.0,0.0,0.0,0.0,0.0,0.0,0.0,0.0,0.9922,0.9922,0.0,0.0,0.0,0.0,0.0,0.0,0.0,0.0,0.0,0.0,0.0,0.0,0.6086,0.555,0.5243,0.5243,0.5404,0.5404,0.5246,0.5243,0.5168,0.5018,0.5168,0.555,0.0,0.0,0.0,0.0,0.0,0.0,0.0,0.0,0.0,0.0,0.0,0.0,0.0,0.0,0.0,0.0,0.0,0.0,0.0,0.0,0.0,0.0,0.0,0.0,0.0,0.0,0.0,0.0,0.0,0.0,0.0,0.0,-0.0992,-0.0467,0.0,0.0,0.0,0.0,0.0,0.0,0.0,0.0,0.0,0.0,0.0,0.0,0.0,0.0,0.3857,0.4342,0.4553,0.4553,0.4882,0.5014,0.5014,0.4948,0.4948,0.5014,0.5014,0.0,0.6486,0.6811,0.0,0.0,0.0,0.0,0.0,0.0,0.0,0.0,0.0,0.0,0.0,0.0,0.0,0.0,0.0,0.0,0.0,0.0,0.0,0.0,0.0,0.0,0.9922,0.9922,0.9922,0.9922,0.0,0.9544,0.9089,0.8689,0.0,0.0,0.0,0.0,0.0,0.0,0.0,0.0,0.5323,0.5093,0.5015,0.5015,0.5096,0.5096,0.5015,0.5015,0.5015,0.5018,0.5015,0.5168,0.5473,0.5935,0.0,0.0,0.0,0.0,0.0,0.0,0.0,0.0,0.0,0.0,0.0,0.0,0.0,0.0,0.0,0.0,0.0,0.0,0.0,0.0,0.0,0.0,0.0,0.0,0.0,0.0,0.0,0.0,0.0,-0.2719,-0.2655,-0.2655,-0.0969,0.0432,0.0,0.0,0.0,0.0,0.0,0.0,0.0,0.0,0.0,0.2748,0.3149,0.328,0.2948,0.3551,0.402,0.4287,0.442,0.4616,0.4815,0.4486,0.4486,0.4815,0.4486,0.4821,0.5547,0.621,0.6539,0.6811,0.0,0.0,0.0,0.0,0.0,0.8836,0.8615,0.0,0.0,0.0,0.0,0.0,0.0,0.0,0.0,0.0,0.0,0.0,0.0,0.0,0.0,0.9922,0.9922,0.9922,0.9922,0.9549,0.9165,0.0,0.8156,0.7923,0.8466,0.0,0.0,0.0,0.0,0.0,0.5012,0.4937,0.5018,0.5018,0.5018,0.5168,0.5628,0.5705,0.5786,0.6018,0.6244,0.6318,0.617,0.67,0.7157,0.0,0.0,0.0,0.0,0.0,0.0,0.0,0.0,0.0,0.0,0.0,0.0,0.0,0.0,0.0,0.0,0.0,0.0,0.0,0.0,0.0,0.0,0.0,0.0,0.0,0.0,0.0,0.0,-0.3637,-0.3602,-0.3447,-0.1549,0.0126,0.0,0.0,0.0,0.0,0.0,0.0,0.2681,0.2681,0.2414,0.1879,0.2348,0.249,0.2104,0.2713,0.3264,0.3628,0.3835,0.4104,0.4308,0.3976,0.4112,0.4447,0.4044,0.4112,0.4512,0.542,0.5874,0.6022,0.7014,0.7467,0.7664,0.8174,0.851,0.8768,0.862,0.8946,0.9236,0.8937,0.0,1.0507,1.0588,0.0,0.0,0.0,0.0,1.0738,1.0588,0.0,0.9922,0.9922,0.9922,0.9922,0.9922,0.9695,0.9241,0.0,0.7774,0.7464,0.7927,0.0,0.0,0.0,0.0,0.6163,0.5087,0.4937,0.5018,0.5018,0.4937,0.5246,0.6015,0.6012,0.6167,0.6707,0.7007,0.7007,0.6707,0.7007,0.7234,0.7468,0.0,0.0,0.0,0.0,0.0,0.0,0.0,0.0,0.0,0.0,0.0,0.0,0.0,0.0,0.0,0.0,0.0,0.0,0.0,0.0,0.0,0.0,0.0,0.0,0.0,0.0,0.0,0.0,0.0,-0.121,-0.2035,0.0,0.0,0.0,0.0,0.1073,0.1209,0.121,0.121,0.121,0.121,0.1143,0.121,0.1225,0.1188,0.1609,0.1771,0.1815,0.2613,0.2975,0.2973,0.334,0.3557,0.3557,0.3557,0.3557,0.3621,0.4647,0.5218,0.5572,0.6287,0.6877,0.7465,0.763,0.7913,0.8089,0.7698,0.7629,0.7633,0.7561,0.8542,0.975,1.0137,1.0887,0.0,0.0,1.0812,1.0663,1.0067,0.9916,0.9922,0.9922,0.9922,0.9922,0.9922,0.9922,0.9382,0.0,0.7088,0.6707,0.6157,0.0,0.7387,0.6938,0.7238,0.7007,0.5712,0.5249,0.5018,0.5018,0.4857,0.4935,0.5559,0.5476,0.5628,0.6163,0.624,0.624,0.624,0.624,0.663,0.7484,0.7484,0.0,0.0,0.0,0.0,0.0,0.0,0.0,0.0,0.0,0.0,0.0,0.0,0.0,0.0,0.0,0.0,0.0,0.0,0.0,0.0,0.0,0.0,0.0,0.0,0.0,0.0,0.0,0.0,-0.186,-0.1914,0.0,0.0,0.0135,0.074,0.1078,0.1078,0.1086,0.1104,0.1105,0.1114,0.1134,0.1134,0.1139,0.115,0.1294,0.1517,0.1677,0.1968,0.2404,0.2913,0.306,0.3279,0.3499,0.3499,0.3715,0.4147,0.4541,0.4942,0.5377,0.6099,0.6714,0.7302,0.7798,0.804,0.8102,0.8246,0.8246,0.8246,0.8246,0.878,0.9463,0.9544,1.0067,1.0513,1.0293,1.0218,1.0143,0.9916,0.9922,0.9922,0.9922,0.9922,0.9922,0.9922,0.9922,0.9539,0.8389,0.7931,0.7621,0.7387,0.693,0.6777,0.7088,0.6857,0.6472,0.5864,0.5786,0.5628,0.5246,0.5473,0.578,0.6163,0.6475,0.6942,0.7403,0.7629,0.7706,0.7403,0.7173,0.7173,0.7484,0.6788,0.6942,0.0,0.0,0.0,0.0,0.0,0.0,0.0,0.0,0.0,0.0,0.0,0.0,0.0,0.0,0.0,0.0,0.0,0.0,0.0,0.0,0.0,0.0,0.0,0.0,0.0,0.0,-0.3754,-0.254,-0.2455,-0.2284,-0.1679,-0.0806,-0.0202,0.0068,0.0273,0.0414,0.0567,0.071,0.093,0.1166,0.1166,0.1171,0.1182,0.1182,0.1336,0.1572,0.172,0.2093,0.2765,0.2915,0.3215,0.3589,0.3589,0.3808,0.4256,0.448,0.4919,0.5442,0.6136,0.6629,0.7104,0.7672,0.7872,0.7944,0.8169,0.8322,0.8322,0.8322,0.8556,0.8941,0.9094,0.9392,0.9695,0.9846,0.9922,0.9922,0.9922,0.9922,0.9922,0.9922,0.9922,0.9922,0.9922,0.9771,0.9544,0.9008,0.8546,0.8161,0.7778,0.7238,0.6934,0.7088,0.6857,0.6553,0.6247,0.6244,0.6009,0.5625,0.5935,0.624,0.6623,0.7015,0.7407,0.7872,0.8169,0.8169,0.7949,0.7638,0.7484,0.7484,0.6788,0.6788,0.7484,0.0,0.0,0.0,0.0,0.0,0.0,0.0,0.0,0.0,0.0,0.0,0.0,0.0,0.0,0.0,0.0,0.0,0.0,0.0,0.0,0.0,0.0,0.0,-0.4179,-0.4129,-0.3848,-0.3139,-0.3758,-0.3627,-0.1879,-0.2549,-0.2715,-0.1886,-0.1469,-0.0991,-0.0436,-0.0,0.0511,0.1169,0.1169,0.1183,0.1213,0.1213,0.1228,0.1335,0.1726,0.2117,0.2511,0.2904,0.3374,0.3763,0.3763,0.3841,0.3841,0.4467,0.5085,0.5699,0.6328,0.6641,0.6718,0.7253,0.7484,0.7484,0.7484,0.7484,0.7484,0.7484,0.7791,0.8178,0.8551,0.8937,0.9397,0.9771,0.9916,0.9922,0.9922,0.9916,0.9922,0.9922,0.9916,0.9846,0.9846,0.9544,0.9246,0.9246,0.8937,0.8318,0.7169,0.7548,0.7855,0.7015,0.7249,0.0,0.6942,0.6549,0.624,0.624,0.6089,0.617,0.6861,0.6714,0.6868,0.7484,0.7484,0.7484,0.7484,0.7484,0.7484,0.7484,0.7484,0.7484,0.7484,0.0,0.0,0.0,0.0,0.0,0.0,0.0,0.0,0.0,0.0,0.0,0.0,0.0,0.0,0.0,0.0,0.0,0.0,0.0,0.0,0.0,0.0,-0.5255,-0.4747,-0.4454,-0.4199,-0.3956,-0.4164,-0.4131,-0.373,-0.402,-0.3855,-0.3022,-0.2304,-0.131,-0.015,0.015,0.0604,0.1232,0.1309,0.1236,0.1245,0.1245,0.1249,0.1335,0.1414,0.1805,0.2511,0.2589,0.3059,0.3763,0.3763,0.4075,0.4467,0.4623,0.5321,0.6328,0.6563,0.6868,0.7253,0.7407,0.7484,0.7484,0.7484,0.7484,0.7484,0.7484,0.7791,0.8102,0.8255,0.8789,0.9246,0.9084,0.9463,0.9846,0.9549,0.9695,0.9922,0.9922,0.9695,0.9473,0.9473,0.9165,0.8856,0.8856,0.878,0.8475,0.7868,0.771,0.7557,0.7403,0.7403,0.0,0.733,0.7249,0.6942,0.656,0.6865,0.6945,0.6714,0.7022,0.733,0.0,0.7484,0.7484,0.7484,0.7484,0.7484,0.7484,0.7484,0.7484,0.0,0.0,0.0,0.0,0.0,0.0,0.0,0.0,0.0,0.0,0.0,0.0,0.0,0.0,0.0,0.0,0.0,0.0,0.0,0.0,0.0,0.0,-0.6254,-0.5993,-0.5671,-0.4841,-0.4517,-0.5039,-0.4642,-0.4554,-0.4891,-0.4771,-0.4467,-0.399,-0.3329,-0.2467,-0.1226,-0.0921,-0.0232,0.0864,0.0864,0.1021,0.1335,0.1335,0.1335,0.1335,0.1335,0.1649,0.2275,0.2431,0.2902,0.0,0.3684,0.3997,0.4309,0.4621,0.5165,0.0,0.0,0.0,0.0,0.0,0.7484,0.7484,0.7484,0.7484,0.7484,0.7484,0.7638,0.7872,0.8025,0.8408,0.8789,0.8703,0.9008,0.9387,0.9322,0.9473,0.962,0.962,0.9473,0.9246,0.9089,0.8708,0.8475,0.8475,0.0,0.0,0.7868,0.7791,0.7714,0.7561,0.7484,0.7484,0.7484,0.7484,0.733,0.7022,0.7253,0.733,0.7022,0.733,0.0,0.0,0.0,0.7484,0.7484,0.7407,0.0,0.0,0.0,0.7484,0.0,0.0,0.0,0.0,0.8025,0.8097,0.0,0.0,0.0,0.0,0.0,0.0,0.0,0.0,0.0,0.0,0.0,0.0,0.0,0.0,0.0,0.0,-0.7064,-0.6749,-0.6836,-0.5516,-0.4962,-0.604,-0.5243,-0.4889,-0.5591,-0.5104,-0.4724,-0.4769,-0.4402,-0.3832,-0.2815,0.0,0.0,0.0,0.0,0.055,0.1178,0.1178,0.1257,0.1335,0.1335,0.1492,0.1882,0.2275,0.2668,0.3141,0.353,0.3765,0.3841,0.4389,0.4623,0.4854,0.6096,0.6945,0.7484,0.7484,0.7484,0.0,0.0,0.0,0.0,0.7484,0.7484,0.7561,0.7949,0.8025,0.8178,0.8475,0.8627,0.878,0.9094,0.917,0.9246,0.9246,0.917,0.9094,0.8703,0.8327,0.8025,0.8025,0.7714,0.7484,0.7484,0.7791,0.7949,0.7561,0.7484,0.7484,0.7484,0.7484,0.7484,0.7484,0.0,0.0,0.7484,0.7484,0.7403,0.7403,0.7403,0.7403,0.7403,0.7257,0.7257,0.7403,0.7484,0.7484,0.7484,0.7484,0.7484,0.7484,0.7872,0.7868,0.0,0.0,0.0,0.0,0.0,0.0,0.0,0.0,0.0,0.0,0.0,0.0,0.0,0.0,0.0,-0.7517,-0.7064,-0.6928,-0.749,-0.6559,-0.5956,-0.6192,-0.5748,-0.5453,-0.5744,-0.5167,-0.4696,-0.4501,-0.4433,-0.3895,-0.2817,-0.2429,0.0,-0.1019,-0.0628,-0.0157,0.0471,0.0471,0.0786,0.1335,0.0,0.0,0.1882,0.196,0.2431,0.3141,0.3219,0.3452,0.3841,0.3919,0.4231,0.4854,0.6096,0.6945,0.7484,0.7484,0.7484,0.7484,0.7484,0.7484,0.7484,0.7484,0.7484,0.7484,0.7561,0.7868,0.0,0.7787,0.8169,0.8627,0.8408,0.8556,0.878,0.878,0.8556,0.8331,0.8255,0.7868,0.7638,0.7638,0.7561,0.7484,0.7484,0.7561,0.7561,0.7484,0.7484,0.7484,0.7484,0.7484,0.7484,0.7484,0.7334,0.7257,0.7257,0.7099,0.7019,0.7019,0.7019,0.7019,0.7019,0.6942,0.6942,0.7019,0.7176,0.7257,0.7257,0.7407,0.7484,0.7484,0.7561,0.7561,0.0,0.0,0.0,0.0,0.0,0.0,0.0,0.0,0.0,0.0,0.0,-0.8794,0.0,0.0,-0.7907,-0.7587,-0.7348,-0.7391,-0.7763,-0.7534,-0.73,-0.73,-0.6584,-0.6334,-0.6795,-0.5907,-0.5328,-0.5157,-0.4904,-0.4461,-0.3744,-0.3304,-0.2759,-0.1947,-0.1381,-0.065,0.0325,0.0325,0.0651,0.1303,0.1287,0.1439,0.1597,0.1813,0.2117,0.2511,0.2746,0.3061,0.3452,0.3684,0.4153,0.4779,0.5398,0.6251,0.7099,0.7407,0.7484,0.7484,0.7176,0.7253,0.7484,0.7176,0.7253,0.7484,0.7484,0.7638,0.7791,0.7561,0.7787,0.8093,0.8102,0.8255,0.8403,0.8403,0.8255,0.8025,0.7868,0.7638,0.7484,0.7484,0.7484,0.7484,0.7484,0.7484,0.7484,0.7484,0.7484,0.7484,0.7484,0.7407,0.7334,0.7334,0.7176,0.7022,0.7022,0.6942,0.6865,0.6865,0.6788,0.6788,0.6865,0.6788,0.6788,0.6865,0.7022,0.7022,0.7022,0.7257,0.7334,0.7334,0.7484,0.7484,0.0,0.0,0.0,0.0,0.0,0.0,0.0,0.0,-0.9901,-0.9901,-0.9773,-0.9518,-0.9005,-0.8812,-0.8571,-0.8098,-0.8127,-0.821,-0.8162,-0.8398,-0.8562,-0.8458,-0.7558,-0.7163,-0.7766,-0.6659,-0.5902,-0.5902,-0.5474,-0.506,-0.4737,-0.4235,-0.3606,-0.2851,-0.2184,-0.1344,-0.0084,-0.0084,0.0336,0.1094,0.1074,0.1144,0.1301,0.1675,0.1811,0.196,0.2353,0.2746,0.3141,0.353,0.3921,0.4389,0.4623,0.5243,0.6247,0.7019,0.733,0.7253,0.6868,0.7099,0.7407,0.6945,0.7099,0.7484,0.7484,0.7484,0.7484,0.7484,0.7484,0.7561,0.7872,0.7949,0.7949,0.7949,0.7949,0.7872,0.7561,0.7484,0.7484,0.7484,0.7484,0.7484,0.7484,0.7407,0.7407,0.7407,0.7407,0.7407,0.7407,0.7253,0.718,0.718,0.6945,0.6865,0.6788,0.6788,0.6788,0.6788,0.6641,0.6641,0.6788,0.6637,0.6637,0.6788,0.6788,0.6865,0.6865,0.7022,0.718,0.718,0.733,0.7484,-1.4094,-1.3485,-1.2765,-1.2451,-1.1911,-1.1498,0.0,0.0,-1.1373,-1.1373,-1.0863,-1.0358,-1.0288,-0.9773,-0.9467,-0.97,-0.9765,-0.9672,-0.9416,-0.9451,-0.9264,-0.8722,-0.8058,-0.7681,-0.7778,-0.6759,-0.6051,-0.6051,-0.5609,-0.5349,-0.5349,-0.4439,-0.394,-0.3857,-0.3025,-0.2271,-0.1513,-0.1513,-0.084,0.042,0.0419,0.0746,0.1303,0.138,0.1602,0.196,0.2353,0.2746,0.3141,0.3141,0.3217,0.3376,0.4311,0.454,0.4535,0.6093,0.6718,0.6791,0.7253,0.7484,0.7484,0.7407,0.7484,0.7484,0.7484,0.7484,0.7484,0.7484,0.7484,0.7484,0.7561,0.7561,0.7561,0.7561,0.7561,0.7561,0.7484,0.7484,0.7484,0.7484,0.7484,0.7407,0.7257,0.7257,0.7257,0.7257,0.7257,0.718,0.7019,0.6942,0.6942,0.6942,0.6791,0.6563,0.6412,0.6338,0.6338,0.6338,0.6335,0.6338,0.6338,0.6335,0.6338,0.6338,0.6563,0.6641,0.6641,0.6865,0.6942,0.6942,0.7176,0.7334,-1.4136,-1.3364,-1.2642,0.0,-1.1802,-1.1622,-1.1622,-1.1622,-1.1622,-1.1622,-1.1373,-1.0989,-1.0548,-1.0418,-1.0301,0.0,-1.0244,-1.0243,-0.9668,-0.9674,-0.9505,-0.8765,-0.8581,-0.8498,-0.8498,-0.7877,-0.7415,-0.7415,-0.6572,-0.5981,-0.5726,-0.476,-0.4011,-0.3751,-0.3144,-0.2447,-0.1747,-0.1746,-0.1223,-0.0262,0.0086,0.0426,0.076,0.1153,0.1366,0.157,0.1961,0.2275,0.2431,0.2904,0.2982,0.2824,0.353,0.3528,0.3444,0.578,0.6563,0.6563,0.6475,0.6633,0.6868,0.6093,0.6402,0.6868,0.6475,0.6938,0.7407,0.6861,0.7096,0.7484,0.7334,0.7407,0.7484,0.7484,0.7484,0.7484,0.7334,0.7334,0.7257,0.7173,0.7173,0.7096,0.7022,0.7022,0.7022,0.6872,0.6945,0.7022,0.6942,0.6788,0.6714,0.6563,0.649,0.6412,0.6338,0.6338,0.6338,0.6338,0.6338,0.6338,0.6338,0.6338,0.6338,0.6338,0.6412,0.6412,0.6412,0.6637,0.6714,0.6714,0.6945,0.7099,-1.4619,-1.3726,-1.3009,-1.2528,-1.1988,-1.1622,-1.1802,-1.174,-1.1622,-1.1622,-1.1622,-1.1435,-1.0926,-1.104,-1.1127,-1.0749,-1.1101,-1.1162,-1.044,-1.025,-0.9916,-0.916,-0.9096,-0.9105,-0.9105,-0.8719,-0.8417,-0.8417,-0.7484,-0.6717,-0.6198,-0.532,-0.4476,-0.3855,-0.332,-0.2782,-0.2154,-0.2064,-0.1705,-0.0986,-0.053,-0.0087,0.0347,0.0996,0.1291,0.1348,0.1574,0.1803,0.196,0.2511,0.2589,0.2353,0.2747,0.2668,0.2665,0.5157,0.6093,0.6012,0.5464,0.5777,0.6325,0.5162,0.5395,0.6093,0.5544,0.6009,0.6549,0.6163,0.6475,0.7019,0.7099,0.7253,0.7326,0.7326,0.7326,0.733,0.718,0.7103,0.7099,0.6942,0.6865,0.6865,0.6865,0.6788,0.6714,0.6563,0.6641,0.6714,0.6714,0.6641,0.649,0.6338,0.6338,0.6338,0.6338,0.6338,0.6338,0.6338,0.6338,0.6338,0.6338,0.6338,0.6338,0.6338,0.6338,0.6338,0.6338,0.6412,0.6486,0.6486,0.6714,0.6868,-1.5788,-1.4815,-1.4034,-1.4341,-1.3017,-1.174,-1.2336,-1.2042,-1.1622,-1.1622,-1.1622,-1.156,-1.156,-1.1823,-1.2073,-1.2385,-1.272,-1.2756,-1.2325,-1.1552,-1.0738,-0.9992,-0.9543,-0.9313,0.0,-0.8835,-0.8615,-0.8615,-0.8084,-0.7474,-0.6773,-0.6334,-0.5539,-0.43,-0.3855,-0.332,-0.2873,-0.2873,-0.2513,-0.1794,-0.1704,-0.1063,0.0347,0.0996,0.1302,0.1299,0.1349,0.157,0.1882,0.196,0.196,0.196,0.2353,0.2275,0.2116,0.4064,0.4763,0.4763,0.4528,0.5229,0.6086,0.5234,0.5004,0.5079,0.5004,0.4766,0.4683,0.5386,0.5622,0.5854,0.6707,0.6942,0.6942,0.6942,0.6942,0.6942,0.6942,0.6942,0.6942,0.6865,0.6865,0.6865,0.6641,0.6641,0.6563,0.6338,0.6338,0.6338,0.6338,0.6338,0.6338,0.6338,0.6338,0.6338,0.6338,0.6338,0.6338,0.6338,0.6338,0.6338,0.6338,0.6338,0.6338,0.6338,0.6338,0.6338,0.6338,0.6338,0.6338,0.6338,0.6486,0.6641,-1.54,-1.4991,-1.4688,-1.4085,-1.3476,-1.3053,-1.3235,-1.307,-1.2712,-1.2274,-1.2773,-1.2995,-1.2059,-1.253,-1.3063,-1.2858,-1.2936,-1.2828,-1.2338,-1.1632,-1.0812,-0.9992,-0.9548,0.0,0.0,0.0,0.0,-0.9497,-0.8943,-0.8097,-0.7037,-0.6422,-0.5539,-0.4297,-0.3855,-0.3497,-0.3409,-0.3053,-0.2784,-0.2513,-0.1525,-0.0621,0.0347,0.1012,0.1322,0.1301,0.1271,0.1414,0.1492,0.1803,0.1726,0.157,0.1961,0.1883,0.1649,0.2821,0.321,0.3366,0.4297,0.4841,0.4999,0.3756,0.3602,0.3837,0.3446,0.4222,0.4999,0.4144,0.4766,0.5622,0.5774,0.5928,0.6163,0.6784,0.6865,0.6865,0.6714,0.6714,0.6637,0.6563,0.6486,0.649,0.6412,0.6412,0.6412,0.6338,0.6338,0.6338,0.6338,0.6338,0.6338,0.6338,0.6338,0.6338,0.6338,0.6338,0.6338,0.6338,0.6338,0.6338,0.6338,0.6338,0.6338,0.6338,0.6338,0.6338,0.6338,0.6338,0.6338,0.6338,0.6338,0.649,-1.5517,-1.5284,-1.5108,-1.4628,-1.4076,-1.3768,-1.4016,-1.3795,-1.3433,-1.2948,-1.3498,-1.3729,-1.2735,-1.3091,-1.3407,-1.3089,-1.2994,-1.2863,-1.2559,-1.1937,-1.1335,-1.0812,-1.0174,0.0,0.0,0.0,0.0,-1.0038,-0.9598,-0.8803,-0.783,-0.7126,-0.6157,-0.5008,-0.4208,-0.3765,-0.3587,-0.3142,-0.2875,-0.2873,-0.1436,-0.0445,-0.0,0.0853,0.1337,0.1316,0.1275,0.1335,0.1335,0.1569,0.157,0.1335,0.1569,0.1492,0.1414,0.2198,0.2511,0.2666,0.36,0.3988,0.391,0.2665,0.2586,0.2821,0.2431,0.3132,0.3988,0.3521,0.4142,0.5076,0.5544,0.578,0.6015,0.656,0.6714,0.6637,0.6486,0.649,0.6412,0.618,0.618,0.6103,0.6025,0.6028,0.6028,0.6028,0.6028,0.6106,0.6261,0.6338,0.6261,0.618,0.6257,0.6261,0.618,0.6261,0.6338,0.6338,0.6338,0.6338,0.6338,0.6338,0.6338,0.6338,0.6338,0.6338,0.6338,0.6338,0.6338,0.6338,0.6338,0.6338,-1.6171,-1.57,-1.5352,-1.5788,-1.4874,-1.4016,-1.4647,-1.4264,-1.3777,-1.3623,-1.3872,-1.4001,-1.3597,0.0,-1.3236,-1.306,-1.2968,-1.2987,-1.3001,-1.2625,-1.2305,0.0,0.0,0.0,0.0,0.0,0.0,-1.0024,0.0,-0.9666,-0.8952,-0.8165,-0.7291,-0.6148,-0.4917,-0.4121,-0.3676,-0.3141,-0.2875,-0.2873,-0.1436,-0.0717,-0.0626,0.0687,0.1263,0.1258,0.1283,0.1335,0.1335,0.1335,0.1335,0.1335,0.1335,0.1335,0.1414,0.2198,0.251,0.2431,0.251,0.2743,0.2898,0.2116,0.1882,0.1882,0.1882,0.1649,0.1649,0.3209,0.3752,0.4144,0.5786,0.6183,0.6257,0.6261,0.6261,0.6261,0.6261,0.6261,0.6183,0.5941,0.5864,0.5786,0.5637,0.5637,0.5637,0.5637,0.5637,0.5792,0.6183,0.6261,0.618,0.5941,0.6103,0.618,0.5941,0.6099,0.6261,0.6261,0.6261,0.6261,0.6261,0.6261,0.6338,0.6338,0.6338,0.6338,0.6338,0.6338,0.6338,0.6338,0.6338,0.6338,-1.6171,-1.6124,-1.6077,-1.6066,-1.5758,-1.5517,-1.57,-1.5526,-1.5177,-1.4619,-1.5238,-1.5518,-1.4277,0.0,0.0,-1.3459,-1.2931,0.0,-1.2972,-1.2625,0.0,-1.2305,0.0,-1.1255,-1.06,-1.0626,0.0,0.0,-0.9724,-0.931,-0.8484,-0.7928,-0.7228,-0.6455,-0.5409,-0.4565,-0.4121,-0.332,-0.2875,-0.2873,-0.1436,-0.0711,-0.07,0.0682,0.1336,0.1312,0.1273,0.1335,0.1335,0.1335,0.1335,0.1335,0.1335,0.1335,0.1414,0.2198,0.2119,0.1728,0.2276,0.2588,0.251,0.1727,0.1492,0.1492,0.1492,0.1805,0.2119,0.1961,0.2665,0.3679,0.43,0.4768,0.5234,0.5864,0.6018,0.5944,0.5792,0.5792,0.5792,0.5712,0.5712,0.5637,0.5637,0.5637,0.5637,0.5637,0.5637,0.5637,0.5792,0.5792,0.5715,0.5712,0.5715,0.5715,0.5712,0.5867,0.5944,0.5792,0.6106,0.618,0.6018,0.618,0.6338,0.6338,0.6338,0.6338,0.6338,0.6338,0.6338,0.6338,0.6338,0.6338,-1.6249,-1.6306,-1.6374,-1.6249,-1.6181,-1.6114,-1.6114,-1.6066,-1.5836,-1.541,-1.5909,-1.6148,-1.5153,-1.4547,0.0,0.0,0.0,0.0,-1.2745,-1.2714,-1.2673,0.0,-1.247,0.0,-1.1078,-1.0985,-1.0507,0.0,-0.9507,-0.9285,-0.875,-0.8266,-0.768,-0.7001,-0.6005,-0.5008,-0.4032,-0.3499,-0.3142,-0.2873,-0.1436,-0.0709,-0.0781,0.068,0.1331,0.1301,0.0,0.1335,0.1335,0.1335,0.1335,0.1335,0.1335,0.1335,0.1336,0.1805,0.1649,0.1335,0.1806,0.1962,0.1884,0.1414,0.1335,0.1335,0.1335,0.1649,0.1884,0.1412,0.1882,0.2818,0.4146,0.4849,0.5318,0.5709,0.5786,0.5712,0.5637,0.5637,0.5559,0.5479,0.5404,0.5326,0.5326,0.5326,0.5326,0.5326,0.5326,0.5326,0.5326,0.5482,0.5559,0.5479,0.5559,0.5559,0.5479,0.5634,0.5712,0.5637,0.587,0.5948,0.5941,0.6022,0.618,0.6261,0.6338,0.6338,0.6338,0.6338,0.6338,0.6338,0.6338,0.6338,-1.6384,-1.6384,-1.6384,-1.6384,-1.6249,-1.6114,-1.6114,-1.6114,-1.6124,-1.5972,0.0,-1.6316,-1.5972,-1.4942,-1.4085,-1.3768,0.0,-1.2196,-1.2416,-1.2775,-1.3111,-1.3397,-1.3063,-1.2537,-1.1798,-1.121,-1.0507,-0.9418,-0.9299,-0.9271,-0.9242,-0.8778,-0.8147,-0.7425,-0.644,-0.5272,-0.3765,-0.3676,-0.3409,-0.2963,-0.1431,-0.0706,-0.0778,0.0677,0.1325,0.1295,0.0,0.0,0.1335,0.1335,0.1335,0.1335,0.1335,0.1335,0.1335,0.1335,0.1335,0.1257,0.1257,0.1178,0.1178,0.1257,0.1257,0.1178,0.1178,0.1178,0.1178,0.1176,0.1176,0.1801,0.4302,0.5323,0.564,0.5559,0.5559,0.5559,0.5559,0.5482,0.5482,0.5321,0.5093,0.5018,0.5018,0.5018,0.5018,0.5018,0.5018,0.5018,0.5018,0.5326,0.5479,0.5243,0.5401,0.5479,0.5243,0.5479,0.5559,0.5559,0.5559,0.5634,0.5786,0.5864,0.5944,0.6257,0.6261,0.6261,0.6338,0.6338,0.6338,0.6338,0.6338,0.6338,-1.6384,-1.6384,-1.6384,-1.6384,-1.6374,-1.6374,-1.6374,-1.6374,0.0,0.0,-1.6374,-1.6316,-1.6124,-1.5468,-1.4688,-1.3837,0.0,0.0,0.0,0.0,-1.3031,0.0,0.0,0.0,0.0,0.0,0.0,0.0,0.0,0.0,-0.8817,-0.8379,-0.7648,-0.6738,-0.5744,-0.5008,-0.4743,-0.4032,-0.3588,-0.3497,-0.1673,-0.0777,-0.076,0.0661,0.1294,0.1265,0.0,0.0,0.1335,0.1335,0.1335,0.1335,0.1335,0.1335,0.1335,0.1335,0.1335,0.1257,0.0864,0.0707,0.0786,0.1178,0.1021,0.0707,0.0707,0.0707,0.0707,0.0707,0.0706,0.1018,0.2345,0.3912,0.5171,0.5321,0.5321,0.5323,0.5171,0.5093,0.5093,0.5093,0.5015,0.5018,0.5018,0.5018,0.5018,0.5018,0.5018,0.5018,0.5018,0.5096,0.5093,0.5093,0.5093,0.5093,0.5093,0.5246,0.5246,0.5093,0.5404,0.5556,0.5398,0.5556,0.5789,0.5941,0.5941,0.6099,0.6338,0.6338,0.6338,0.6338,0.6338,0.6644,-1.6384,-1.6384,-1.6384,-1.6384,-1.6384,-1.6384,-1.6384,0.0,0.0,0.0,-1.6384,-1.6374,-1.6249,-1.54,0.0,0.0,0.0,0.0,0.0,0.0,0.0,0.0,0.0,0.0,0.0,0.0,0.0,0.0,0.0,0.0,-0.8718,-0.797,-0.7424,-0.6994,-0.5926,-0.528,-0.501,-0.43,-0.3942,-0.3942,-0.1842,-0.0944,-0.109,0.0575,0.1286,0.1335,0.1335,0.0,0.1335,0.1335,0.1335,0.1335,0.1335,0.1335,0.1257,0.1021,0.11,0.1257,0.1021,0.0786,0.0707,0.1178,0.1178,0.0864,0.0393,0.0314,0.0314,0.0314,0.1569,0.2824,0.2426,0.3679,0.5015,0.5093,0.5168,0.509,0.5015,0.5018,0.5018,0.5018,0.5018,0.5018,0.5018,0.5018,0.5018,0.5018,0.5018,0.5018,0.5018,0.5018,0.5018,0.5018,0.5018,0.5018,0.5018,0.5093,0.5093,0.5018,0.5171,0.5326,0.5321,0.5401,0.5556,0.5712,0.5864,0.5941,0.6099,0.6257,0.6338,0.6338,0.6718,0.7099,-1.6384,-1.6384,-1.6384,-1.6384,-1.6384,-1.6384,-1.6384,-1.6384,0.0,-1.6384,-1.6384,-1.6384,-1.6384,-1.5352,-1.4392,0.0,-1.3139,-1.2336,0.0,0.0,0.0,0.0,0.0,0.0,0.0,0.0,0.0,0.0,0.0,0.0,-0.8722,-0.7889,-0.7405,-0.7455,-0.6436,-0.5638,-0.5191,-0.4654,-0.4467,-0.4358,-0.2176,-0.1363,-0.1581,0.0408,0.128,0.1335,0.1335,0.0,0.0,0.1335,0.1335,0.1257,0.1178,0.1178,0.1257,0.0864,0.0864,0.1021,0.1021,0.0786,0.055,0.0864,0.1021,0.0864,0.0236,-0.0,0.0079,0.0629,0.2672,0.4487,0.3212,0.3917,0.494,0.5018,0.4937,0.4937,0.5018,0.4937,0.4937,0.5018,0.5018,0.5018,0.4937,0.4937,0.5018,0.4937,0.4937,0.5018,0.5018,0.5018,0.5018,0.5018,0.5018,0.5018,0.5018,0.5018,0.5018,0.5018,0.5018,0.5093,0.5243,0.5243,0.5323,0.5559,0.5709,0.5783,0.5864,0.6099,0.6335,0.6567,0.7176,0.771,-1.6384,-1.6384,-1.6384,-1.6384,-1.6384,-1.6384,-1.6384,0.0,-1.6384,-1.6384,-1.6384,-1.6384,-1.6384,-1.5768,-1.505,-1.4332,-1.3623,-1.292,0.0,0.0,0.0,0.0,0.0,0.0,0.0,0.0,0.0,0.0,0.0,0.0,0.0,-0.8373,-0.793,-0.7281,-0.6897,-0.6343,-0.5644,-0.5191,-0.4877,-0.4701,-0.3066,-0.225,-0.2036,0.0239,0.1338,0.1335,0.0,0.0,0.0,0.1335,0.1335,0.1257,0.0864,0.0943,0.1257,0.1257,0.0786,0.0157,0.0157,0.0079,0.0079,0.0079,0.0157,0.0079,-0.0,-0.0,0.0471,0.2833,0.3704,0.3938,0.4003,0.4316,0.4711,0.494,0.4859,0.4779,0.4937,0.4859,0.4779,0.4937,0.5018,0.4937,0.4779,0.4859,0.4937,0.4779,0.4859,0.5018,0.5018,0.5018,0.5018,0.5018,0.5018,0.5018,0.5018,0.5018,0.5018,0.5018,0.5018,0.5018,0.5015,0.5015,0.5093,0.5321,0.5321,0.5553,0.5864,0.5941,0.6405,0.7407,0.7484,0.8318,-1.6384,-1.6384,-1.6384,-1.6384,-1.6384,-1.6384,-1.6384,0.0,-1.6384,-1.6384,-1.6384,-1.6384,-1.6384,-1.5546,-1.4756,-1.446,-1.3511,-1.2736,-1.2305,0.0,0.0,0.0,0.0,0.0,0.0,0.0,0.0,0.0,0.0,0.0,0.0,-0.8171,-0.7556,-0.7407,-0.6595,-0.5994,-0.5733,-0.5129,-0.4988,-0.5203,-0.3183,-0.2459,-0.2676,-0.0159,0.11,0.1335,0.0,0.0,0.0,0.1178,0.1335,0.1257,0.11,0.0786,0.055,0.055,0.0314,-0.0,-0.0,-0.0,-0.0,-0.0,-0.0393,-0.0707,-0.0157,-0.0393,-0.0157,0.2912,0.3385,0.3221,0.4001,0.4314,0.4545,0.4623,0.4543,0.4543,0.4621,0.4543,0.4543,0.4621,0.4621,0.4621,0.4543,0.4621,0.4621,0.4543,0.4701,0.4857,0.4857,0.4937,0.5018,0.5018,0.5018,0.5018,0.5018,0.5018,0.5018,0.5018,0.5018,0.5018,0.5018,0.5018,0.5015,0.5093,0.5243,0.5398,0.5712,0.6402,0.6938,0.7557,0.8475,0.9311,-1.6077,-1.6259,-1.6384,-1.6384,-1.6384,-1.6384,0.0,0.0,-1.6384,-1.6384,-1.6384,-1.6384,-1.6384,-1.5362,-1.4469,-1.4469,-1.3459,-1.256,-1.2428,-1.2609,0.0,0.0,0.0,0.0,0.0,0.0,0.0,0.0,0.0,0.0,0.0,-0.8085,-0.7388,-0.7506,-0.654,-0.5891,-0.5681,-0.5247,-0.5173,-0.5357,-0.3876,-0.3076,-0.2889,-0.0553,0.0864,0.1335,0.0,0.0,0.0,0.0864,0.11,0.1257,0.1021,0.055,-0.0,-0.0,-0.0,-0.0,-0.0,-0.0,-0.0079,-0.0314,-0.0786,-0.11,0.0079,-0.0314,-0.0471,0.2438,0.3064,0.3059,0.3923,0.4233,0.4307,0.4384,0.4384,0.4307,0.4384,0.4384,0.4307,0.4384,0.4384,0.4384,0.4309,0.4384,0.4384,0.4309,0.4465,0.4621,0.4621,0.4779,0.4937,0.4937,0.4937,0.5018,0.5018,0.5018,0.5018,0.5018,0.5018,0.5018,0.5018,0.5018,0.5018,0.5018,0.5398,0.5709,0.587,0.6938,0.7702,0.8165,0.9306,0.9992,-1.541,-1.5894,-1.6384,-1.6384,-1.6384,-1.6384,0.0,0.0,-1.6384,-1.6384,-1.6384,-1.6384,-1.6384,-1.5362,-1.4469,-1.4469,-1.3459,-1.2621,-1.2621,0.0,0.0,0.0,0.0,0.0,0.0,0.0,0.0,0.0,0.0,0.0,0.0,-0.8276,-0.751,-0.751,-0.7054,-0.6364,-0.5467,-0.5464,-0.5428,-0.5189,-0.5289,-0.4339,-0.2426,-0.0784,0.0471,0.0,0.0,0.0,0.0,0.0393,0.055,0.1178,0.0314,-0.0,-0.0,-0.0,-0.0,-0.0,-0.0,-0.0,-0.0157,-0.1021,-0.1257,-0.0943,0.0786,0.0393,-0.0236,0.1568,0.2901,0.3841,0.4079,0.4079,0.4155,0.4384,0.4231,0.4155,0.4384,0.4231,0.4155,0.4384,0.4384,0.4307,0.4157,0.4231,0.4307,0.4157,0.4309,0.4384,0.4384,0.4543,0.4701,0.4701,0.4859,0.5018,0.5018,0.5018,0.5018,0.5018,0.5018,0.5018,0.5018,0.5018,0.5018,0.5018,0.5783,0.6321,0.6563,0.7625,0.8613,0.9599,0.9836,1.0293,-1.541,-1.5526,-1.5836,-1.6316,-1.6384,-1.6384,-1.6384,-1.6384,-1.6384,-1.6384,-1.6384,-1.6259,-1.5778,-1.5059,-1.435,-1.3863,-1.3155,-1.2621,0.0,0.0,0.0,0.0,0.0,0.0,0.0,0.0,0.0,0.0,0.0,0.0,0.0,0.0,-0.7672,-0.7672,-0.6579,-0.5759,-0.5464,-0.5385,-0.5262,-0.5184,-0.5121,-0.4189,-0.2425,-0.0784,0.0,0.0,0.0,0.0,0.0,0.0786,0.0707,0.0393,0.0079,-0.0,-0.0,-0.0,-0.0,-0.0,-0.0,-0.0393,-0.0943,-0.1178,-0.0786,-0.0157,-0.0393,-0.0236,0.0393,0.1961,0.3057,0.3841,0.3843,0.3921,0.3919,0.3997,0.3919,0.3919,0.3997,0.4231,0.4545,0.4621,0.4929,0.5237,0.516,0.4851,0.4621,0.4545,0.4311,0.4309,0.4771,0.4618,0.4774,0.5625,0.5007,0.4701,0.494,0.5018,0.5018,0.5018,0.5018,0.5018,0.5018,0.5553,0.5857,0.5857,0.6623,0.7161,0.7399,0.8466,0.9523,1.0657,1.0663,1.0887,-1.4756,-1.4874,-1.5177,-1.5604,-1.5662,0.0,0.0,-1.5846,-1.5846,-1.6316,-1.6019,-1.5662,-1.541,-1.4706,-1.3992,-1.3571,-1.2972,0.0,0.0,0.0,0.0,0.0,0.0,0.0,0.0,0.0,0.0,0.0,0.0,0.0,0.0,0.0,-0.7651,-0.7651,-0.6248,-0.5504,-0.5415,-0.5262,-0.5165,-0.5121,-0.5061,-0.4157,-0.2425,-0.0784,0.0,0.0,0.0,0.0,0.0,0.055,0.0471,-0.0,-0.0,-0.0,-0.0,-0.0,-0.0,-0.0,-0.0,-0.055,-0.1335,-0.1335,-0.0392,0.0628,-0.0078,0.0157,0.102,0.2196,0.3136,0.3763,0.3763,0.3763,0.3763,0.3763,0.3763,0.3763,0.3763,0.4309,0.4701,0.4701,0.516,0.5622,0.5622,0.5315,0.5007,0.5007,0.4851,0.4774,0.5157,0.5082,0.5237,0.6012,0.547,0.516,0.5398,0.5398,0.555,0.5938,0.5935,0.5935,0.5935,0.6395,0.67,0.67,0.754,0.8003,0.8165,0.9226,1.0207,1.0962,1.1037,1.1111,0.0,-1.3932,-1.441,-1.4469,-1.4469,-1.4647,-1.5235,-1.4942,0.0,-1.6077,-1.5362,-1.4706,-1.5235,-1.4341,-1.3511,-1.345,-1.2981,0.0,0.0,0.0,0.0,0.0,0.0,0.0,0.0,0.0,0.0,0.0,0.0,0.0,0.0,0.0,-0.7345,-0.733,-0.6138,-0.5415,-0.5189,-0.5178,-0.5121,-0.5018,-0.5026,-0.4157,-0.2582,-0.0784,0.0,0.0,0.0,0.0,0.0,-0.0,-0.0,-0.0,-0.0,-0.0,-0.0,0.0236,0.0393,0.0314,-0.0,-0.055,-0.1178,-0.11,-0.0,0.141,0.1488,0.1488,0.1645,0.2353,0.3215,0.3763,0.3763,0.3763,0.3763,0.3763,0.3763,0.3763,0.3763,0.4309,0.4701,0.4776,0.5237,0.5699,0.5699,0.5699,0.5699,0.5699,0.5622,0.5622,0.5699,0.5783,0.5938,0.6015,0.6089,0.624,0.6318,0.6083,0.6384,0.7387,0.7464,0.7464,0.7464,0.754,0.7617,0.7617,0.8389,0.878,0.8775,0.9911,1.0594,1.0812,1.1037,1.1111,-1.3033,0.0,-1.3872,-1.435,-1.4469,-1.4529,0.0,-1.4942,-1.5294,-1.5594,-1.542,-1.5118,-1.4765,-1.4043,-1.3329,0.0,0.0,0.0,0.0,0.0,0.0,0.0,0.0,0.0,0.0,0.0,0.0,0.0,0.0,0.0,0.0,0.0,-0.7126,-0.6519,-0.5662,-0.5243,-0.5186,-0.5099,-0.5045,-0.5018,-0.5026,-0.4797,-0.4325,-0.1334,0.0,0.0,0.0,0.0,-0.0,-0.0,-0.0,-0.0,-0.0,-0.0,0.0314,0.2912,0.3859,0.3381,0.0157,-0.0392,0.0313,0.0627,0.1254,0.2038,0.2978,0.3212,0.3292,0.3448,0.3606,0.3763,0.3763,0.3763,0.3763,0.3763,0.3763,0.3763,0.3763,0.4309,0.4854,0.5315,0.5938,0.6479,0.6942,0.6633,0.6328,0.6328,0.5935,0.578,0.6325,0.5938,0.6012,0.7019,0.6318,0.624,0.7561,0.7015,0.678,0.7015,0.7314,0.7464,0.7464,0.808,0.8394,0.8394,0.9231,0.969,0.9836,1.0288,1.0594,1.0812,1.1037,1.1111,-1.2858,-1.2858,-1.3155,-1.3519,-1.364,-1.3761,-1.435,-1.4529,-1.4697,-1.5294,-1.4932,-1.446,0.0,0.0,0.0,0.0,0.0,0.0,0.0,0.0,0.0,0.0,0.0,0.0,0.0,0.0,0.0,0.0,0.0,0.0,0.0,0.0,-0.6846,-0.6051,-0.5422,-0.5108,-0.5108,-0.5048,-0.5018,-0.5018,-0.4233,-0.4242,-0.4886,-0.1492,0.0,0.0,0.0,0.0,-0.0,-0.0,-0.0,-0.0,-0.0,-0.0,0.0393,0.3783,0.4975,0.4408,0.0157,-0.0471,0.0706,0.1411,0.196,0.2353,0.2823,0.3215,0.353,0.3763,0.3763,0.3763,0.353,0.3606,0.3763,0.353,0.3606,0.3763,0.3763,0.4462,0.524,0.5544,0.6402,0.7099,0.7484,0.7253,0.7022,0.7022,0.671,0.663,0.6945,0.671,0.6707,0.7403,0.6861,0.6861,0.7714,0.7561,0.7633,0.794,0.8241,0.8389,0.8613,0.9003,0.9236,0.9236,0.969,0.9916,1.0067,1.0368,1.0588,1.0663,1.0962,1.1111,-1.2744,-1.2621,-1.2621,-1.2621,-1.2621,-1.2858,-1.3932,-1.3872,-1.3803,-1.4874,-1.4282,-1.3511,0.0,-1.3033,0.0,0.0,0.0,0.0,0.0,0.0,0.0,0.0,0.0,0.0,0.0,0.0,0.0,0.0,0.0,0.0,0.0,0.0,0.0,-0.5786,-0.5249,-0.5018,-0.5018,-0.5018,-0.5018,-0.5018,-0.3287,-0.3136,-0.4169,-0.1256,0.0,0.0,0.0,0.0,-0.0,-0.0,-0.0,0.0079,0.055,0.0785,0.1021,0.3229,0.4335,0.4169,0.0392,-0.0157,0.0864,0.1883,0.2353,0.2511,0.2195,0.2511,0.3061,0.3528,0.3606,0.3608,0.3295,0.3452,0.3608,0.3219,0.3374,0.3686,0.3686,0.4618,0.5467,0.5544,0.6553,0.7407,0.7484,0.7484,0.7484,0.7484,0.7484,0.7484,0.7484,0.7484,0.7484,0.7484,0.7484,0.7484,0.7484,0.7795,0.8331,0.917,0.9246,0.9473,0.9846,0.9922,0.9922,0.9922,0.9922,0.9922,0.9922,1.0293,1.0513,1.0519,1.0887,1.1111,-1.2683,-1.2621,-1.2621,-1.2621,-1.2621,-1.2621,-1.2867,-1.3216,-1.3571,-1.3743,-1.3631,-1.3511,-1.3511,-1.3033,-1.2621,0.0,0.0,0.0,0.0,0.0,0.0,0.0,0.0,0.0,0.0,0.0,0.0,0.0,0.0,0.0,0.0,0.0,0.0,-0.5171,-0.5018,-0.5018,-0.5018,-0.5018,-0.5018,-0.5018,-0.3287,-0.1879,-0.0783,-0.0235,-0.0,0.0,0.0,-0.0,-0.0,-0.0,-0.0,0.0314,0.3149,0.4256,0.3855,0.0785,0.1176,0.3056,0.1645,0.1568,0.2196,0.2353,0.2668,0.2982,0.2904,0.2747,0.2589,0.2668,0.2981,0.3295,0.3608,0.3452,0.3219,0.3141,0.3141,0.3217,0.3217,0.4075,0.501,0.5467,0.6247,0.6868,0.7407,0.7484,0.7484,0.7484,0.7484,0.7484,0.7484,0.7484,0.7484,0.7484,0.7484,0.7484,0.7484,0.7561,0.794,0.8703,0.9089,0.9473,0.9846,0.9922,0.9922,0.9922,0.9922,0.9922,0.9922,1.0293,1.0513,1.0519,1.0887,1.1111,-1.2683,-1.2621,-1.2621,-1.2621,-1.2621,-1.2805,-1.3459,-1.3812,-1.4052,-1.4052,-1.4052,-1.3812,0.0,0.0,0.0,0.0,0.0,0.0,0.0,0.0,0.0,0.0,0.0,0.0,0.0,0.0,0.0,0.0,0.0,0.0,0.0,0.0,0.0,0.0,-0.5018,-0.5018,-0.5018,-0.5018,-0.5021,-0.5023,-0.4235,-0.2507,-0.0,-0.0,-0.0,-0.0,0.0,-0.0,-0.0,-0.0,-0.0,0.0157,0.1729,0.3385,0.4575,0.1334,0.0941,0.2117,0.2743,0.2744,0.2511,0.2746,0.2982,0.2984,0.2589,0.2353,0.2195,0.2195,0.2589,0.3061,0.3137,0.3061,0.3062,0.2826,0.2747,0.2902,0.3526,0.4307,0.5085,0.5938,0.6633,0.7176,0.7484,0.7484,0.7484,0.7484,0.7484,0.7484,0.7484,0.7484,0.7484,0.7484,0.7484,0.7484,0.7484,0.7484,0.7863,0.8623,0.9316,0.9695,0.9916,0.9922,0.9922,0.9922,0.9922,0.9922,0.9922,1.0293,1.0513,1.0519,1.0887,1.1111,-1.2683,-1.2621,-1.2621,-1.2621,-1.2621,-1.292,-1.3992,-1.4291,-1.4291,-1.4291,-1.4291,0.0,0.0,0.0,0.0,0.0,0.0,0.0,0.0,0.0,0.0,0.0,0.0,0.0,0.0,0.0,0.0,0.0,0.0,0.0,0.0,0.0,0.0,0.0,-0.5093,-0.5018,-0.5018,-0.5018,-0.5021,-0.5029,-0.4711,-0.3214,-0.0549,-0.0157,-0.0,-0.0,-0.0,-0.0,-0.0,-0.0,-0.0,-0.0,-0.0,0.1572,0.3624,0.2198,0.1568,0.1727,0.3215,0.3294,0.2824,0.3061,0.3062,0.2826,0.2117,0.1803,0.1725,0.1725,0.2275,0.2747,0.2589,0.2668,0.2746,0.2431,0.2353,0.2586,0.3522,0.438,0.5237,0.617,0.6942,0.7484,0.7484,0.7484,0.7484,0.7484,0.7484,0.7484,0.7484,0.7484,0.7484,0.7484,0.7484,0.7484,0.7484,0.7638,0.8016,0.8627,0.9463,0.9922,0.9922,0.9922,0.9922,0.9922,0.9922,0.9922,0.9922,1.0293,1.0443,1.0519,1.0887,1.1037,-1.2629,-1.2621,-1.2621,-1.2621,-1.2621,-1.2744,-1.339,-1.3563,-1.3563,-1.3563,-1.3563,0.0,0.0,0.0,0.0,0.0,0.0,0.0,0.0,0.0,0.0,0.0,0.0,0.0,0.0,0.0,0.0,0.0,0.0,0.0,0.0,0.0,0.0,0.0,0.0,-0.5018,-0.5018,-0.5018,-0.5018,-0.5018,-0.391,-0.3047,-0.227,-0.0704,-0.0,-0.0,-0.0,-0.0,-0.0,-0.0,-0.0,-0.0,-0.0,0.0157,0.055,0.2198,0.2431,0.2118,0.251,0.3059,0.3606,0.3217,0.2826,0.2431,0.2038,0.1648,0.1335,0.1335,0.1649,0.2038,0.2431,0.2275,0.196,0.196,0.196,0.2038,0.251,0.3837,0.516,0.5622,0.663,0.7484,0.7484,0.7484,0.7484,0.7484,0.7484,0.7484,0.7484,0.7484,0.7484,0.7484,0.7484,0.7484,0.7484,0.8169,0.8627,0.8703,0.9463,0.9922,0.9922,0.9922,0.9922,0.9922,0.9922,0.9922,0.9922,1.0143,1.0293,1.0519,1.0738,1.0887,-1.2621,-1.2621,-1.2621,-1.2621,-1.2621,-1.2744,-1.3329,-1.3511,-1.3511,-1.3511,-1.3511,0.0,0.0,0.0,0.0,0.0,0.0,0.0,0.0,0.0,0.0,0.0,0.0,0.0,0.0,0.0,0.0,0.0,0.0,0.0,0.0,0.0,0.0,0.0,0.0,-0.498,-0.4904,-0.498,-0.5018,-0.5018,-0.4543,-0.4231,-0.3999,-0.1253,-0.0,-0.0,-0.0,-0.0,-0.0,-0.0,-0.0,-0.0079,-0.0628,0.0471,0.2359,0.2354,0.2746,0.3141,0.3294,0.3294,0.3295,0.2902,0.2431,0.204,0.1649,0.1414,0.1335,0.1335,0.1414,0.1649,0.2353,0.2353,0.2275,0.2275,0.2117,0.2038,0.2585,0.3675,0.4841,0.5616,0.6703,0.7484,0.7484,0.7484,0.7484,0.7484,0.7484,0.7484,0.7484,0.7484,0.7484,0.7484,0.7484,0.7484,0.7484,0.8021,0.8403,0.8703,0.9463,0.9922,0.9922,0.9922,0.9922,0.9922,0.9922,0.9922,0.9922,1.0067,1.0293,1.0513,1.0738,1.0887,-1.2621,-1.2621,-1.2621,-1.2621,-1.2621,-1.2683,-1.3094,-1.3329,-1.3511,-1.3511,-1.3329,-1.3094,-1.2683,0.0,0.0,0.0,0.0,0.0,0.0,0.0,0.0,0.0,0.0,0.0,0.0,0.0,0.0,0.0,0.0,0.0,0.0,0.0,0.0,0.0,0.0,0.0,-0.4779,-0.486,-0.4923,-0.4958,-0.4958,-0.4982,-0.4948,-0.2663,-0.1018,-0.0,-0.0,-0.0,-0.0,-0.0,-0.0157,-0.0471,-0.11,0.0157,0.2201,0.2118,0.2589,0.3297,0.3686,0.3608,0.3217,0.2668,0.2353,0.196,0.1492,0.1335,0.1335,0.1335,0.1335,0.1492,0.2118,0.2275,0.2275,0.2119,0.204,0.2037,0.2427,0.3517,0.4606,0.5461,0.6626,0.7484,0.7484,0.7484,0.7484,0.7484,0.7484,0.7484,0.7484,0.7484,0.7484,0.7484,0.7484,0.7484,0.7484,0.7872,0.825,0.8703,0.9311,0.9771,0.9922,0.9922,0.9922,0.9922,0.9922,0.9992,1.0143,1.0143,1.0368,1.0812,1.0738,1.0887,-1.2621,-1.2621,-1.2621,-1.2621,-1.2621,-1.2621,-1.2621,-1.3033,-1.3502,-1.3502,-1.3042,-1.2621,-1.2621,0.0,0.0,0.0,0.0,0.0,0.0,0.0,0.0,0.0,0.0,0.0,0.0,0.0,0.0,0.0,0.0,0.0,0.0,0.0,0.0,0.0,0.0,0.0,-0.4723,-0.4726,-0.4713,-0.4833,-0.4833,-0.4898,-0.5018,-0.5026,-0.3214,-0.0,-0.0,-0.0,-0.0,-0.0,-0.055,-0.1335,-0.1335,-0.1257,-0.1021,0.1254,0.2117,0.2273,0.337,0.3763,0.3684,0.2746,0.2511,0.2354,0.1571,0.1335,0.1335,0.1335,0.1335,0.1414,0.1803,0.1882,0.1803,0.1414,0.1648,0.1882,0.1882,0.3205,0.4528,0.4924,0.6318,0.7484,0.7484,0.7484,0.7484,0.7484,0.7484,0.7484,0.7484,0.7484,0.7484,0.7484,0.7484,0.7484,0.7484,0.7872,0.825,0.8703,0.9089,0.9473,0.9922,0.9922,0.9922,0.9922,0.9922,1.0218,1.0812,1.0218,1.0438,1.1409,1.0812,1.0738,-1.2621,-1.2621,-1.2621,-1.2621,0.0,-1.2621,-1.2621,-1.2744,-1.2858,-1.2858,-1.2744,-1.2621,-1.2621,0.0,0.0,0.0,0.0,0.0,0.0,0.0,0.0,0.0,0.0,0.0,0.0,0.0,0.0,0.0,0.0,0.0,0.0,0.0,0.0,0.0,0.0,0.0,-0.4596,-0.4682,-0.4742,-0.4708,-0.4708,-0.4814,-0.5018,-0.5026,-0.3843,-0.1721,-0.0549,-0.0,-0.0079,-0.0629,-0.11,-0.1335,-0.1335,-0.0786,-0.0,0.1097,0.1882,0.251,0.345,0.3608,0.3217,0.2668,0.2275,0.196,0.1492,0.1335,0.1335,0.1335,0.1335,0.1335,0.1414,0.1726,0.1882,0.1725,0.1803,0.1803,0.157,0.3051,0.445,0.453,0.616,0.7484,0.7484,0.7484,0.7484,0.7484,0.7484,0.7484,0.7484,0.7484,0.7484,0.7484,0.7484,0.771,0.8322,0.8475,0.878,0.9539,0.9695,0.9771,0.9922,0.9922,0.9922,0.9922,1.0293,1.0588,1.0812,1.1037,1.1558,1.2224,1.1484,1.17,-1.2621,-1.2621,0.0,-1.2621,-1.2621,-1.2621,-1.2621,0.0,0.0,0.0,-1.2621,-1.2621,0.0,0.0,0.0,0.0,0.0,0.0,0.0,0.0,0.0,0.0,0.0,0.0,0.0,0.0,0.0,0.0,0.0,0.0,0.0,0.0,0.0,0.0,0.0,0.0,-0.4404,-0.4474,-0.4537,-0.4651,-0.4651,-0.4683,-0.4874,-0.4963,-0.4065,-0.2394,-0.0703,-0.0236,-0.055,-0.11,-0.1335,-0.1335,-0.1335,-0.0864,-0.0157,0.0941,0.1646,0.2195,0.337,0.3608,0.3295,0.2668,0.2353,0.204,0.1492,0.1335,0.1335,0.1335,0.1335,0.1335,0.1335,0.1569,0.1882,0.1726,0.1803,0.1803,0.1569,0.3051,0.445,0.4608,0.616,0.7484,0.7484,0.7484,0.7484,0.7484,0.7484,0.7484,0.7484,0.7484,0.7484,0.7484,0.7484,0.7787,0.8627,0.8703,0.9155,1.0218,0.9992,0.9992,1.0218,0.9992,0.9992,1.0218,1.0588,1.1037,1.1484,1.1632,1.215,1.2959,1.2224,1.2439,-1.2621,-1.2621,-1.2621,-1.256,-1.256,0.0,-1.2621,-1.256,-1.256,-1.2621,0.0,0.0,0.0,0.0,0.0,0.0,0.0,0.0,0.0,0.0,0.0,0.0,0.0,0.0,0.0,0.0,0.0,0.0,0.0,0.0,0.0,0.0,0.0,0.0,0.0,0.0,-0.43,-0.43,-0.4352,0.0,-0.4455,-0.4512,-0.4693,-0.4884,-0.3992,-0.2188,-0.0695,-0.0468,-0.1249,-0.133,-0.1331,-0.1254,-0.1335,-0.1335,-0.11,0.0627,0.1332,0.1567,0.3212,0.3763,0.3606,0.2746,0.251,0.2275,0.1571,0.1335,0.1335,0.1335,0.1335,0.1335,0.1335,0.1569,0.1725,0.1414,0.1648,0.1882,0.196,0.3205,0.4528,0.4924,0.6318,0.7484,0.7484,0.7484,0.7484,0.7484,0.7484,0.7484,0.7484,0.7484,0.7484,0.7484,0.7484,0.7863,0.8699,0.8775,0.9377,1.0812,1.0368,1.0293,1.0812,1.0293,1.0218,1.0812,1.0887,1.1484,1.2599,1.2077,1.2439,1.3608,1.2959,1.3032,-1.2621,-1.2621,0.0,-1.2375,-1.2367,-1.2428,-1.256,-1.2498,-1.2428,-1.256,0.0,0.0,0.0,0.0,0.0,0.0,0.0,0.0,0.0,0.0,0.0,0.0,0.0,0.0,0.0,0.0,0.0,0.0,0.0,0.0,0.0,0.0,0.0,0.0,0.0,-0.4431,-0.43,-0.43,-0.4314,0.0,-0.4338,-0.4352,-0.4384,-0.466,-0.322,-0.0514,-0.0148,-0.0445,-0.1187,-0.1288,-0.1298,-0.1224,-0.1248,-0.1335,-0.11,0.0627,0.1332,0.1567,0.3212,0.353,0.3139,0.2668,0.2275,0.196,0.1414,0.1335,0.1335,0.1335,0.1335,0.1335,0.1335,0.1335,0.1492,0.1726,0.1803,0.196,0.2275,0.3441,0.4528,0.4924,0.6318,0.7484,0.7484,0.7484,0.7484,0.7484,0.7484,0.7484,0.7484,0.7484,0.7484,0.7484,0.7484,0.8089,0.9518,0.9674,1.0271,1.1632,1.1632,1.1335,1.0812,1.0663,1.0663,1.0812,1.1706,1.2305,1.2599,1.2973,1.355,1.4346,1.3615,1.4042,-1.2498,-1.2436,0.0,-1.2436,0.0,-1.2305,-1.2436,-1.2042,-1.1725,0.0,0.0,0.0,0.0,0.0,0.0,0.0,0.0,0.0,0.0,0.0,0.0,0.0,0.0,0.0,0.0,0.0,0.0,0.0,0.0,0.0,0.0,0.0,0.0,0.0,-0.4564,-0.4431,-0.43,-0.43,-0.43,-0.43,-0.43,-0.4303,-0.4314,-0.3722,-0.2359,-0.0501,-0.0507,-0.0729,-0.1095,-0.1183,-0.119,-0.1191,-0.1208,-0.1223,-0.1081,0.0231,0.0776,0.1175,0.2665,0.2981,0.2747,0.2589,0.2196,0.1803,0.1414,0.1335,0.1335,0.1335,0.1335,0.1335,0.1335,0.1414,0.1726,0.2118,0.1883,0.1804,0.2354,0.3521,0.4528,0.4924,0.6318,0.7484,0.7484,0.7484,0.7484,0.7484,0.7484,0.7484,0.7484,0.7484,0.7484,0.7484,0.7863,0.8542,0.982,1.0271,1.1025,1.2378,1.2157,1.1929,1.1706,1.1632,1.1558,1.126,1.2157,1.2746,1.3046,1.3346,1.3855,1.4569,1.4194,1.4633,-1.2259,-1.1926,-1.1615,-1.2313,-1.2182,0.0,-1.2042,-1.1406,-1.0766,0.0,0.0,0.0,0.0,0.0,0.0,0.0,0.0,0.0,0.0,0.0,0.0,0.0,0.0,0.0,0.0,0.0,0.0,0.0,0.0,0.0,0.0,0.0,-0.5822,-0.5292,-0.4697,-0.4367,-0.43,-0.43,-0.43,-0.43,-0.43,-0.4306,-0.4247,-0.2751,-0.1598,-0.0906,-0.1069,-0.1079,-0.108,-0.1084,-0.1159,-0.1159,-0.1164,-0.1182,-0.1129,-0.0301,0.0228,0.0619,0.1936,0.2324,0.2249,0.2336,0.2105,0.1717,0.149,0.1335,0.1335,0.1414,0.1335,0.1335,0.1335,0.1569,0.2038,0.2431,0.1962,0.1649,0.2511,0.3521,0.4375,0.5002,0.6398,0.7484,0.7484,0.7484,0.7484,0.7484,0.7484,0.7484,0.7484,0.7484,0.7484,0.7484,0.8246,0.8998,0.982,1.0657,1.1632,1.2826,1.2452,1.2298,1.2599,1.2673,1.2452,1.1855,1.2452,1.2973,1.3492,1.3492,1.3855,1.4569,1.4569,1.5007,-1.1604,0.0,-1.0408,0.0,-1.117,-1.0338,0.0,0.0,0.0,0.0,0.0,0.0,0.0,0.0,0.0,0.0,0.0,0.0,0.0,0.0,0.0,0.0,0.0,0.0,0.0,0.0,0.0,0.0,0.0,0.0,0.0,-0.6474,-0.6017,-0.4758,-0.4625,-0.4495,-0.43,-0.43,-0.43,-0.43,-0.43,-0.43,-0.4236,-0.2559,-0.1215,-0.0203,-0.0816,-0.1091,-0.1093,-0.1117,-0.1127,-0.1129,-0.1156,-0.1169,-0.1099,-0.022,-0.0,0.0074,0.147,0.1618,0.1257,0.1738,0.1598,0.1375,0.1715,0.1569,0.1335,0.1726,0.157,0.1335,0.1335,0.1569,0.2038,0.2431,0.2118,0.2117,0.3372,0.3604,0.3912,0.5234,0.663,0.7484,0.7484,0.7484,0.7484,0.7484,0.7484,0.7484,0.7484,0.7484,0.7484,0.7484,0.8246,0.8998,0.982,1.0657,1.1632,1.2826,1.2826,1.2753,1.2599,1.3119,1.3119,1.2526,1.3046,1.3419,1.3492,1.3492,1.3855,1.4569,1.4569,1.5007,-1.1108,-1.0332,-0.9964,0.0,-1.0345,-0.9901,-1.0268,0.0,0.0,0.0,0.0,0.0,0.0,0.0,0.0,0.0,0.0,0.0,0.0,0.0,0.0,0.0,0.0,0.0,0.0,0.0,0.0,0.0,0.0,0.0,-0.6141,-0.6017,-0.5554,-0.4625,-0.4495,-0.4364,-0.43,-0.43,-0.43,-0.43,-0.43,-0.43,-0.43,-0.3563,-0.2488,-0.1212,-0.1146,-0.1078,-0.1078,-0.1091,-0.1095,-0.1097,-0.111,-0.1126,-0.107,-0.0713,-0.0576,-0.0364,0.0801,0.0947,0.0803,0.1552,0.1557,0.1263,0.1426,0.1356,0.1282,0.1431,0.1356,0.1282,0.1282,0.1507,0.1884,0.2258,0.2257,0.2406,0.3757,0.3991,0.453,0.6318,0.7096,0.7484,0.7484,0.7484,0.7484,0.7484,0.7484,0.7484,0.7484,0.7484,0.7484,0.7484,0.8618,0.9523,0.9895,1.1025,1.2077,1.2826,1.29,1.2973,1.3119,1.3346,1.3346,1.3119,1.3346,1.3492,1.3492,1.3492,1.3783,1.4346,1.4489,1.4927,0.0,0.0,-0.9454,-0.9767,-0.9576,-0.939,0.0,0.0,0.0,0.0,0.0,0.0,0.0,0.0,0.0,0.0,0.0,0.0,0.0,0.0,0.0,0.0,0.0,0.0,0.0,0.0,0.0,0.0,0.0,0.0,-0.6145,-0.5686,-0.5156,-0.4625,-0.4431,-0.43,-0.43,-0.43,-0.43,-0.43,-0.43,-0.43,-0.4367,-0.4036,-0.3366,-0.2356,-0.1482,-0.1078,-0.1076,-0.1076,-0.1076,-0.1076,-0.1076,-0.1089,-0.111,-0.111,-0.1054,-0.0857,-0.0071,0.0071,0.0143,0.1081,0.1227,0.1012,0.131,0.1312,0.1312,0.1312,0.1312,0.1312,0.1239,0.1531,0.1895,0.2256,0.2328,0.2691,0.3923,0.4507,0.5334,0.6874,0.7375,0.7484,0.7484,0.7484,0.7484,0.7484,0.7484,0.7484,0.7484,0.7484,0.7484,0.7484,0.8917,0.9895,0.9895,1.1397,1.2452,1.29,1.29,1.3046,1.3499,1.3492,1.3492,1.3492,1.3492,1.3492,1.3492,1.3492,1.3783,1.4201,1.4497,1.4848,0.0,-0.9192,0.0,-0.9262,-0.8818,0.0,0.0,0.0,0.0,0.0,0.0,0.0,0.0,0.0,0.0,0.0,0.0,0.0,0.0,0.0,0.0,0.0,0.0,0.0,0.0,0.0,0.0,0.0,0.0,0.0,-0.6141,-0.5749,-0.5286,-0.4625,-0.4431,-0.43,-0.43,-0.43,-0.43,-0.43,-0.43,-0.4431,-0.4558,-0.3355,-0.2822,-0.2889,-0.1616,-0.1079,-0.1079,-0.1077,-0.1076,-0.1076,-0.1076,-0.1077,-0.1146,-0.1213,-0.1417,-0.1486,-0.1148,-0.108,-0.1017,-0.0,0.0351,0.0494,0.1447,0.175,0.1677,0.175,0.175,0.1604,0.1312,0.1748,0.2256,0.2328,0.262,0.3058,0.3636,0.5038,0.6254,0.6332,0.6984,0.7484,0.7484,0.7484,0.7484,0.7484,0.7484,0.7484,0.7484,0.7484,0.7484,0.7484,0.8917,0.9895,0.9895,1.1397,1.2452,1.29,1.29,1.3046,1.3499,1.3492,1.3492,1.3492,1.3492,1.3492,1.3492,1.3492,1.3855,1.4569,1.4569,1.4999,0.0,0.0,0.0,-0.8166,-0.8107,-0.7982,0.0,0.0,0.0,0.0,0.0,0.0,0.0,0.0,0.0,0.0,0.0,0.0,0.0,0.0,0.0,0.0,0.0,0.0,0.0,0.0,0.0,0.0,0.0,0.0,-0.5484,-0.5153,-0.4758,-0.4431,-0.4367,-0.43,-0.43,-0.43,-0.43,-0.43,-0.43,-0.4367,-0.4364,-0.3629,-0.3092,-0.2755,-0.1616,-0.1078,-0.1077,-0.1076,-0.1076,-0.1076,-0.1076,-0.1143,-0.121,-0.1277,-0.148,-0.1748,-0.1277,-0.121,-0.1212,-0.0476,-0.0,0.041,0.0967,0.1385,0.1663,0.1663,0.1663,0.1594,0.1454,0.187,0.2354,0.2768,0.3251,0.3733,0.4277,0.4916,0.5722,0.6697,0.7211,0.7484,0.7484,0.7484,0.7484,0.7484,0.7484,0.7484,0.7484,0.7484,0.7484,0.7484,0.8917,0.9895,0.9895,1.1471,1.2599,1.29,1.3046,1.3193,1.3492,1.3492,1.3492,1.3492,1.3492,1.3492,1.3492,1.3775,1.3992,1.4274,1.4776,1.5133,-0.8983,0.0,0.0,0.0,0.0,-0.7922,0.0,0.0,0.0,0.0,0.0,0.0,0.0,0.0,0.0,0.0,0.0,0.0,0.0,0.0,0.0,0.0,0.0,0.0,0.0,0.0,0.0,0.0,0.0,0.0,-0.5683,-0.5289,-0.4894,-0.4564,-0.4367,-0.43,-0.43,-0.43,-0.43,-0.43,-0.43,-0.4367,-0.4434,-0.3629,-0.3159,-0.2818,-0.1615,-0.1077,-0.1076,-0.1076,-0.1076,-0.1076,-0.1143,-0.121,-0.1344,-0.148,-0.1681,-0.1884,-0.1547,-0.1547,-0.148,-0.0941,-0.0403,0.0134,0.0672,0.1277,0.1817,0.1817,0.1817,0.1749,0.1614,0.1884,0.2356,0.3027,0.3493,0.3959,0.4616,0.5099,0.5721,0.6911,0.7322,0.7484,0.7484,0.7484,0.7484,0.7484,0.771,0.794,0.794,0.8165,0.8313,0.8313,0.9523,1.0346,1.0426,1.1774,1.2673,1.2973,1.3119,1.3273,1.3492,1.3492,1.3492,1.3492,1.3492,1.3492,1.3492,1.392,1.4129,1.4274,1.4919,1.5275,0.0,0.0,0.0,0.0,0.0,0.0,0.0,0.0,0.0,0.0,0.0,0.0,0.0,0.0,0.0,0.0,0.0,0.0,0.0,0.0,0.0,0.0,0.0,0.0,0.0,0.0,0.0,0.0,0.0,-0.6675,-0.6675,-0.6152,-0.562,-0.5087,-0.4564,-0.43,-0.43,-0.43,-0.43,-0.43,-0.43,-0.4498,-0.4761,-0.3355,-0.2885,-0.3149,-0.1745,-0.1143,-0.1143,-0.1076,-0.1076,-0.1143,-0.1277,-0.1277,-0.1344,-0.1748,-0.1884,-0.1951,-0.2087,-0.2154,-0.2087,-0.148,-0.0941,-0.0336,0.0538,0.148,0.2221,0.2221,0.2221,0.2087,0.1748,0.1951,0.2423,0.3027,0.3226,0.3491,0.455,0.5513,0.6369,0.6881,0.724,0.7484,0.7484,0.7484,0.7484,0.7561,0.8169,0.8703,0.8699,0.9448,0.9895,0.9895,1.0657,1.1186,1.1409,1.215,1.2746,1.32,1.32,1.3273,1.3492,1.3492,1.3492,1.3492,1.3492,1.3492,1.3564,1.392,1.4274,1.4641,1.4991,1.5426,-0.9194,0.0,0.0,0.0,0.0,0.0,0.0,0.0,0.0,0.0,0.0,0.0,0.0,0.0,0.0,0.0,0.0,0.0,0.0,0.0,0.0,0.0,0.0,0.0,0.0,0.0,0.0,0.0,-0.6806,-0.6544,-0.6152,-0.562,-0.5223,-0.5087,-0.4564,-0.43,-0.43,-0.43,-0.43,-0.43,-0.43,-0.4431,-0.4625,-0.3825,-0.3355,-0.3021,-0.2214,-0.1812,-0.1812,-0.1276,-0.1143,-0.121,-0.121,-0.1277,-0.148,-0.148,-0.1547,-0.1681,-0.1748,-0.1884,-0.1951,-0.1817,-0.1143,-0.0336,0.0335,0.1343,0.2221,0.2487,0.2354,0.2154,0.2085,0.2488,0.2958,0.3159,0.3226,0.3491,0.455,0.524,0.5875,0.6809,0.724,0.7484,0.7484,0.7484,0.771,0.8241,0.8551,0.8927,0.9523,0.9744,0.9895,0.9895,1.0726,1.1335,1.1409,1.2378,1.3046,1.3193,1.3346,1.3419,1.3492,1.3492,1.3492,1.3492,1.3492,1.3775,1.433,1.4418,1.4497,1.4641,1.5292,1.5655,-0.9583,-0.8869,0.0,0.0,0.0,0.0,0.0,-0.7591,0.0,0.0,0.0,0.0,0.0,0.0,0.0,0.0,0.0,0.0,0.0,0.0,0.0,0.0,0.0,0.0,0.0,0.0,0.0,0.0,-0.7003,-0.6872,-0.6609,-0.5818,-0.5422,-0.5422,-0.4697,-0.43,-0.43,-0.43,-0.43,-0.43,-0.43,-0.4431,-0.4628,-0.3756,-0.3422,-0.3489,-0.2549,-0.228,-0.248,-0.1812,-0.1545,-0.1612,-0.1277,-0.1277,-0.148,-0.1412,-0.148,-0.1614,-0.1614,-0.1748,-0.1884,-0.1817,-0.1076,-0.0201,0.047,0.1477,0.2488,0.2822,0.2688,0.2354,0.2221,0.2622,0.3023,0.3159,0.3226,0.3491,0.455,0.5055,0.5587,0.6793,0.724,0.7484,0.7484,0.7484,0.7787,0.8551,0.8998,0.9523,1.0276,1.072,1.087,1.087,1.1477,1.1929,1.2003,1.2746,1.3273,1.3346,1.3695,1.3985,1.3985,1.3985,1.3985,1.3985,1.363,1.3985,1.4958,1.4697,1.4784,1.515,1.5788,1.6,-1.0038,-0.9303,-0.8858,0.0,0.0,0.0,-0.7852,-0.7722,0.0,0.0,0.0,0.0,0.0,0.0,0.0,0.0,0.0,0.0,0.0,0.0,0.0,0.0,0.0,0.0,0.0,0.0,-0.7521,-0.7521,-0.7521,-0.7456,-0.7391,-0.6478,-0.5888,-0.5822,-0.4831,-0.43,-0.43,-0.43,-0.43,-0.43,-0.43,-0.4498,-0.4761,-0.3489,-0.342,-0.422,-0.2882,-0.2748,-0.3282,-0.2547,-0.2213,-0.208,-0.1478,-0.1277,-0.1344,-0.148,-0.1547,-0.1547,-0.1547,-0.1681,-0.1817,-0.1681,-0.0874,0.0134,0.0605,0.1679,0.2753,0.3092,0.2956,0.2686,0.2354,0.2487,0.2822,0.3159,0.3226,0.3491,0.455,0.499,0.5481,0.6773,0.7224,0.746,0.748,0.7557,0.794,0.8699,0.9523,1.0346,1.1105,1.1855,1.2305,1.2305,1.2526,1.2673,1.29,1.3119,1.3346,1.3492,1.4186,1.4601,1.4601,1.4601,1.4601,1.4601,1.4049,1.441,1.5604,1.5054,1.5213,1.6008,1.6403,1.6403,0.0,0.0,0.0,0.0,0.0,0.0,-0.7587,-0.7521,0.0,0.0,0.0,0.0,0.0,0.0,0.0,0.0,0.0,0.0,0.0,0.0,0.0,0.0,0.0,0.0,0.0,0.0,-0.7521,-0.7521,-0.7521,-0.7326,-0.6872,-0.6214,-0.569,-0.5289,-0.4631,-0.43,-0.43,-0.43,-0.43,-0.43,-0.43,-0.4498,-0.4764,-0.4495,-0.4356,-0.4287,-0.4018,-0.3951,-0.4018,-0.3282,-0.2748,-0.2283,-0.1478,-0.121,-0.1277,-0.121,-0.121,-0.121,-0.121,-0.1277,-0.1412,-0.1547,-0.0739,0.0269,0.0469,0.1542,0.2686,0.2753,0.2956,0.3023,0.2688,0.2822,0.3092,0.3159,0.3226,0.3491,0.455,0.499,0.5481,0.6773,0.7127,0.7322,0.746,0.8016,0.8775,0.9523,1.0351,1.118,1.1929,1.2224,1.2305,1.2305,1.2599,1.2893,1.29,1.32,1.3492,1.3492,1.4186,1.4601,1.4601,1.4601,1.4601,1.4601,1.5163,1.5807,1.6394,1.5974,1.6184,1.7107,1.6751,1.6751,0.0,0.0,0.0,-0.8926,0.0,0.0,0.0,-0.7521,-0.7521,0.0,0.0,0.0,0.0,0.0,0.0,0.0,0.0,0.0,0.0,0.0,0.0,0.0,0.0,0.0,0.0,0.0,-0.7129,-0.7129,-0.7129,-0.6872,-0.6346,-0.5818,-0.5355,-0.5087,-0.4564,-0.43,-0.43,-0.43,-0.43,-0.43,-0.4431,-0.4561,-0.4694,-0.4495,-0.4492,-0.4686,-0.442,-0.4489,-0.4824,-0.4084,-0.3618,-0.3218,-0.208,-0.1411,-0.121,-0.1143,-0.1076,-0.1076,-0.1076,-0.121,-0.1277,-0.1344,-0.0739,0.0067,0.0604,0.1812,0.2889,0.2753,0.2956,0.3092,0.2753,0.2956,0.3226,0.3226,0.3226,0.3491,0.455,0.487,0.5391,0.6758,0.7025,0.7175,0.7439,0.8169,0.9003,0.9744,1.0576,1.1409,1.2224,1.2305,1.2305,1.2305,1.2673,1.29,1.29,1.3273,1.363,1.4049,1.4752,1.5313,1.5737,1.5737,1.5525,1.5171,1.6149,1.6784,1.7001,1.7088,1.7226,1.7373,1.7442,1.7442,0.0,0.0,0.0,0.0,0.0,-0.7766,0.0,0.0,0.0,-0.7521,0.0,0.0,0.0,0.0,0.0,0.0,0.0,0.0,0.0,0.0,0.0,0.0,0.0,0.0,0.0,0.0,-0.6544,-0.6544,-0.6544,-0.628,-0.5756,-0.5355,-0.502,-0.4957,-0.4498,-0.43,-0.43,-0.43,-0.43,-0.43,-0.4495,-0.4625,-0.4558,-0.4359,-0.4492,-0.5024,-0.4688,-0.4824,-0.5292,-0.4755,-0.442,-0.4154,-0.2681,-0.1745,-0.1276,-0.1143,-0.1076,-0.1076,-0.1076,-0.1143,-0.1277,-0.1143,-0.0672,0.0067,0.1008,0.2217,0.3159,0.2889,0.3023,0.3159,0.2889,0.3023,0.3226,0.3226,0.3226,0.3491,0.455,0.4815,0.5225,0.6698,0.6999,0.7138,0.7423,0.8169,0.9003,0.9744,1.0576,1.1409,1.2224,1.2305,1.2305,1.2378,1.2673,1.29,1.2973,1.3273,1.3775,1.433,1.518,1.6018,1.6655,1.6793,1.6585,1.5956,1.6853,1.7404,1.7619,1.8124,1.8202,1.7716,1.8134,1.8066,0.0,0.0,0.0,0.0,-0.9359,0.0,0.0,0.0,-0.7521,-0.7521,0.0,-0.7521,-0.7521,0.0,0.0,0.0,0.0,0.0,0.0,0.0,0.0,0.0,0.0,0.0,0.0,0.0,0.0,-0.602,-0.602,-0.5756,-0.5219,-0.5156,-0.4891,-0.4431,-0.43,-0.43,-0.43,-0.43,-0.43,-0.43,-0.4495,-0.4625,-0.4625,-0.4891,-0.4891,-0.4831,-0.516,-0.5226,-0.5156,-0.5226,-0.4891,-0.4154,-0.2681,-0.2079,-0.1946,-0.1344,-0.1076,-0.1076,-0.1076,-0.1143,-0.1143,-0.1277,-0.0403,0.0873,0.1812,0.2619,0.3159,0.3159,0.3159,0.3159,0.3159,0.3159,0.3226,0.3226,0.3226,0.3491,0.455,0.4815,0.5199,0.6478,0.6846,0.7138,0.7423,0.8169,0.9003,0.9744,1.0576,1.1409,1.2224,1.2305,1.2378,1.2526,1.2746,1.2973,1.3127,1.3346,1.3564,1.363,1.4903,1.5745,1.5807,1.6515,1.6862,1.6793,1.7001,1.756,1.8405,1.8607,1.8808,1.8865,1.8472,1.8539,0.0,0.0,0.0,0.0,0.0,0.0,0.0,0.0,-0.7521,0.0,0.0,0.0,0.0,0.0,0.0,0.0,0.0,0.0,0.0,0.0,0.0,0.0,0.0,0.0,0.0,0.0,0.0,0.0,0.0,-0.5223,-0.4694,-0.4631,-0.4564,-0.43,-0.43,-0.43,-0.43,-0.43,-0.43,-0.43,-0.4495,-0.4625,-0.4625,-0.4827,-0.4957,-0.4957,-0.5156,-0.5223,-0.5292,-0.5362,-0.4957,-0.422,-0.3149,-0.248,-0.2013,-0.1344,-0.1076,-0.1076,-0.1076,-0.1076,-0.1076,-0.1143,-0.047,0.0403,0.0806,0.1411,0.2083,0.2485,0.2619,0.2686,0.3092,0.3226,0.3226,0.3226,0.3226,0.3491,0.455,0.4815,0.5189,0.6443,0.683,0.7033,0.7289,0.8463,0.9523,0.982,1.095,1.1929,1.2452,1.2378,1.2378,1.2599,1.2746,1.29,1.3046,1.3346,1.3702,1.4122,1.5525,1.6585,1.7019,1.7373,1.751,1.751,1.7784,1.8134,1.8482,1.8808,1.9008,1.9065,1.8865,1.8865,-1.3775,0.0,0.0,0.0,0.0,0.0,0.0,0.0,0.0,0.0,0.0,0.0,0.0,0.0,-0.6609,0.0,0.0,0.0,0.0,0.0,0.0,0.0,0.0,0.0,0.0,0.0,0.0,0.0,0.0,0.0,-0.43,-0.43,-0.43,-0.43,-0.43,-0.43,-0.43,-0.43,-0.43,-0.43,-0.4495,-0.4625,-0.4625,-0.4761,-0.4894,-0.5024,-0.509,-0.5156,-0.5292,-0.5362,-0.5093,-0.4556,-0.3818,-0.3149,-0.2614,-0.1678,-0.1344,-0.1411,-0.1612,-0.1545,-0.1344,-0.1143,-0.0605,-0.0,-0.0,0.0538,0.121,0.1745,0.2013,0.2281,0.282,0.3159,0.336,0.3228,0.3426,0.3823,0.4616,0.4948,0.5312,0.6443,0.6753,0.7011,0.7269,0.837,0.9367,0.982,1.087,1.1848,1.2526,1.2452,1.2452,1.2746,1.29,1.2973,1.3046,1.3346,1.3912,1.4816,1.6158,1.7226,1.794,1.8008,1.8008,1.8008,1.8279,1.8482,1.8482,1.8875,1.9075,1.9075,1.9075,1.9075,0.0,0.0,0.0,-1.2338,0.0,0.0,0.0,0.0,-0.7521,0.0,0.0,0.0,0.0,-0.6741,-0.6342,-0.5352,0.0,0.0,0.0,0.0,0.0,0.0,0.0,0.0,0.0,0.0,0.0,0.0,0.0,0.0,-0.43,-0.43,-0.43,-0.43,-0.43,-0.43,-0.43,-0.43,-0.43,-0.43,-0.4495,-0.4625,-0.4625,-0.4761,-0.4831,-0.4827,-0.5024,-0.5087,-0.5153,-0.5292,-0.5362,-0.5292,-0.4556,-0.422,-0.4084,-0.2614,-0.2079,-0.2146,-0.2882,-0.2681,-0.1946,-0.1344,-0.0605,-0.0,-0.0,0.0538,0.1076,0.1143,0.1679,0.2214,0.2214,0.3086,0.3828,0.3293,0.402,0.4749,0.4815,0.5216,0.5749,0.6292,0.6574,0.69,0.7509,0.755,0.8084,0.9669,0.997,1.0645,1.2372,1.2599,1.2746,1.3119,1.3193,1.3273,1.3492,1.3492,1.4129,1.5604,1.6446,1.7226,1.794,1.8008,1.8008,1.8008,1.8212,1.8337,1.8482,1.8674,1.8942,1.9075,1.9075,1.9075,0.0,0.0,-1.4466,-1.349,0.0,0.0,0.0,0.0,0.0,0.0,0.0,0.0,0.0,0.0,-0.6544,-0.6017,-0.5488,-0.5024,0.0,0.0,0.0,0.0,0.0,0.0,0.0,0.0,0.0,0.0,0.0,0.0,0.0,-0.43,-0.43,-0.43,-0.43,-0.43,-0.43,-0.43,-0.43,-0.43,-0.4367,-0.4495,-0.4625,-0.4498,-0.4631,-0.5024,-0.496,-0.5027,-0.5292,-0.5362,-0.5093,-0.4622,-0.442,-0.402,-0.3482,-0.3015,-0.2815,-0.2815,-0.2547,-0.228,-0.2013,-0.1344,-0.0941,-0.0739,-0.0739,-0.0538,-0.0269,0.0202,0.0873,0.1612,0.208,0.3086,0.3961,0.3761,0.4287,0.4882,0.5282,0.5613,0.6013,0.635,0.6764,0.7155,0.7566,0.802,0.8752,1.0104,1.1099,1.1996,1.2673,1.282,1.29,1.3193,1.3622,1.3768,1.3346,1.3419,1.4129,1.5604,1.5956,1.6664,1.794,1.8008,1.8008,1.8008,1.8269,1.8482,1.8482,1.8808,1.8998,1.9075,1.9075,1.9075,-1.5196,-1.4982,0.0,-1.3782,-1.2848,0.0,-1.041,0.0,0.0,0.0,0.0,0.0,0.0,0.0,-0.6272,-0.5749,-0.5219,-0.4891,0.0,-0.4498,0.0,0.0,0.0,0.0,0.0,0.0,0.0,-0.43,-0.43,0.0,0.0,0.0,-0.43,-0.43,-0.43,-0.43,-0.43,-0.43,-0.43,-0.43,-0.43,-0.4431,-0.4625,-0.4364,-0.4564,-0.5087,-0.4827,-0.496,-0.5292,-0.5229,-0.4894,-0.4489,-0.4553,-0.4284,-0.3885,-0.3685,-0.3751,-0.3818,-0.2815,-0.248,-0.2347,-0.1411,-0.1076,-0.1076,-0.1076,-0.1076,-0.0945,-0.0138,0.0614,0.1283,0.2063,0.3267,0.4289,0.4223,0.4818,0.5415,0.5745,0.6079,0.6478,0.6741,0.7038,0.7522,0.8211,0.8846,0.9529,1.0461,1.1558,1.2452,1.2973,1.3046,1.3046,1.3273,1.3702,1.3912,1.3688,1.4049,1.4832,1.6026,1.6097,1.6664,1.794,1.8008,1.8076,1.8232,1.8427,1.8562,1.8723,1.9024,1.9075,1.9075,1.9075,1.9075]},{"header":{"parameterUnit":"m.s-1","parameterCategory":1,"la1":30.6,"la2":29.2853,"lo1":-89.7004,"lo2":-87.6739,"dy":0.0162,"dx":0.0183,"nx":112,"ny":82,"refTime":"2023-05-30T06:00:00:Z","depth":0,"parameterNumber":3,"parameterNumberName":"V-component_of_WINDS"},"data":[0.0,0.0,0.0,0.0,0.0,0.0,0.0,0.0,0.0,0.0,0.0,0.0,0.0,0.0,0.0,0.0,0.0,0.0,0.0,0.0,0.0,0.0,0.0,0.0,0.0,0.0,0.0,0.0,0.0,0.0,0.0,0.0,0.0,0.0,0.0,0.0,0.0,0.0,0.0,0.0,0.0,0.0,0.0,0.0,0.0,0.0,0.0,0.0,0.0,0.0,0.0,0.0,0.0,0.0,0.0,0.0,0.0,0.0,0.0,0.0,0.0,0.0,0.0,0.0,0.0,0.0,0.0,0.0,0.0,0.0,0.0,0.0,0.0,0.0,0.0,0.0,0.0,0.0,0.0,0.0,0.0,0.0,0.0,0.0,0.0,0.0,0.0,0.0,0.0,0.0,0.0,-2.9349,-2.983,-3.0219,-3.0333,-3.0433,-3.0521,-3.06,0.0,0.0,0.0,0.0,0.0,0.0,0.0,0.0,0.0,0.0,0.0,0.0,0.0,0.0,0.0,0.0,0.0,0.0,0.0,0.0,0.0,0.0,0.0,0.0,0.0,0.0,0.0,0.0,0.0,0.0,0.0,0.0,0.0,0.0,0.0,0.0,0.0,0.0,0.0,0.0,0.0,0.0,0.0,0.0,0.0,0.0,0.0,0.0,0.0,0.0,0.0,0.0,0.0,0.0,0.0,0.0,0.0,0.0,0.0,0.0,0.0,0.0,0.0,0.0,0.0,0.0,0.0,0.0,0.0,0.0,0.0,0.0,0.0,0.0,0.0,0.0,0.0,0.0,0.0,0.0,0.0,0.0,0.0,0.0,0.0,0.0,0.0,0.0,0.0,0.0,0.0,0.0,0.0,0.0,0.0,0.0,0.0,0.0,0.0,0.0,0.0,0.0,0.0,0.0,-2.9584,-3.081,-3.0892,-3.1265,-3.2273,-3.1714,-3.1618,-3.235,0.0,0.0,0.0,0.0,0.0,0.0,0.0,0.0,0.0,0.0,0.0,0.0,0.0,0.0,0.0,0.0,0.0,0.0,0.0,0.0,0.0,0.0,0.0,0.0,0.0,0.0,0.0,0.0,0.0,0.0,0.0,0.0,0.0,0.0,0.0,0.0,0.0,0.0,0.0,0.0,0.0,0.0,0.0,0.0,0.0,0.0,0.0,0.0,0.0,0.0,0.0,0.0,0.0,0.0,0.0,0.0,0.0,0.0,0.0,0.0,0.0,0.0,0.0,0.0,0.0,0.0,0.0,0.0,0.0,0.0,0.0,0.0,0.0,0.0,0.0,0.0,0.0,0.0,0.0,0.0,0.0,0.0,0.0,0.0,0.0,0.0,0.0,0.0,0.0,0.0,0.0,0.0,0.0,0.0,0.0,0.0,0.0,0.0,0.0,0.0,0.0,0.0,0.0,-3.0768,-3.1184,-3.2067,-3.2046,-3.2187,-3.2742,-3.2472,-3.2401,-3.2737,-3.2095,0.0,0.0,0.0,0.0,0.0,0.0,0.0,0.0,0.0,0.0,0.0,0.0,0.0,0.0,0.0,0.0,0.0,0.0,0.0,0.0,0.0,0.0,0.0,0.0,0.0,0.0,0.0,0.0,0.0,0.0,0.0,0.0,0.0,0.0,0.0,0.0,0.0,0.0,0.0,0.0,0.0,0.0,0.0,0.0,0.0,0.0,0.0,0.0,0.0,0.0,0.0,0.0,0.0,0.0,0.0,0.0,0.0,0.0,0.0,0.0,0.0,0.0,0.0,0.0,0.0,0.0,0.0,0.0,0.0,0.0,0.0,0.0,0.0,0.0,0.0,0.0,0.0,0.0,0.0,0.0,0.0,0.0,0.0,0.0,0.0,0.0,0.0,0.0,0.0,0.0,0.0,0.0,0.0,0.0,0.0,0.0,0.0,0.0,0.0,0.0,0.0,0.0,-3.2405,-3.2599,-3.3119,-3.3116,-3.3149,-3.3355,-3.3267,-3.3215,-3.3314,-3.3207,0.0,0.0,0.0,0.0,0.0,0.0,0.0,0.0,0.0,0.0,0.0,0.0,0.0,0.0,0.0,0.0,0.0,0.0,0.0,0.0,0.0,0.0,0.0,0.0,0.0,0.0,0.0,0.0,0.0,0.0,0.0,0.0,0.0,0.0,0.0,0.0,0.0,0.0,0.0,0.0,0.0,0.0,0.0,0.0,0.0,0.0,0.0,0.0,0.0,0.0,0.0,0.0,0.0,0.0,0.0,0.0,0.0,0.0,0.0,0.0,0.0,0.0,0.0,0.0,0.0,0.0,0.0,0.0,0.0,0.0,0.0,0.0,0.0,0.0,0.0,0.0,0.0,0.0,0.0,0.0,0.0,0.0,0.0,0.0,0.0,0.0,0.0,0.0,0.0,0.0,0.0,0.0,0.0,0.0,0.0,0.0,0.0,0.0,0.0,0.0,0.0,0.0,-3.2559,-3.3019,-3.392,-3.3895,-3.4194,-3.5051,-3.4434,-3.4323,-3.5082,-3.4355,0.0,0.0,0.0,0.0,0.0,0.0,0.0,0.0,0.0,0.0,0.0,0.0,0.0,0.0,0.0,0.0,0.0,0.0,0.0,0.0,0.0,0.0,0.0,0.0,0.0,0.0,0.0,0.0,0.0,0.0,0.0,0.0,0.0,0.0,0.0,0.0,0.0,0.0,0.0,0.0,0.0,0.0,0.0,0.0,0.0,0.0,0.0,0.0,0.0,0.0,0.0,0.0,0.0,0.0,0.0,0.0,0.0,0.0,0.0,0.0,0.0,0.0,0.0,0.0,0.0,0.0,0.0,0.0,0.0,0.0,0.0,0.0,0.0,0.0,0.0,0.0,0.0,0.0,0.0,0.0,0.0,0.0,0.0,0.0,0.0,0.0,0.0,0.0,0.0,0.0,0.0,0.0,0.0,0.0,0.0,0.0,0.0,0.0,0.0,0.0,0.0,0.0,-3.412,-3.445,0.0,-3.4904,-3.4975,-3.5326,-3.5133,-3.5081,-3.5293,0.0,0.0,0.0,0.0,0.0,0.0,0.0,0.0,0.0,0.0,0.0,0.0,0.0,0.0,0.0,0.0,0.0,0.0,0.0,0.0,0.0,0.0,0.0,0.0,0.0,0.0,0.0,0.0,0.0,0.0,0.0,0.0,0.0,0.0,0.0,0.0,0.0,0.0,0.0,0.0,0.0,0.0,0.0,0.0,0.0,0.0,0.0,0.0,0.0,0.0,0.0,0.0,0.0,0.0,0.0,0.0,0.0,0.0,0.0,0.0,0.0,0.0,0.0,0.0,0.0,0.0,0.0,0.0,0.0,0.0,0.0,0.0,0.0,0.0,0.0,0.0,0.0,0.0,0.0,0.0,0.0,0.0,0.0,0.0,0.0,0.0,0.0,0.0,0.0,0.0,0.0,0.0,0.0,0.0,0.0,0.0,0.0,0.0,0.0,0.0,0.0,0.0,-3.4813,-3.5141,-3.5354,0.0,-3.546,-3.5427,-3.5427,-3.5482,-3.5455,-3.5339,0.0,0.0,0.0,0.0,0.0,0.0,0.0,0.0,0.0,0.0,0.0,0.0,0.0,0.0,0.0,0.0,0.0,0.0,0.0,0.0,0.0,0.0,0.0,0.0,0.0,0.0,0.0,0.0,0.0,0.0,0.0,0.0,0.0,0.0,0.0,0.0,0.0,0.0,0.0,0.0,0.0,0.0,0.0,0.0,0.0,0.0,0.0,0.0,0.0,0.0,0.0,0.0,0.0,0.0,0.0,0.0,0.0,0.0,0.0,0.0,0.0,0.0,0.0,0.0,0.0,0.0,0.0,0.0,0.0,0.0,0.0,0.0,0.0,0.0,0.0,0.0,0.0,0.0,0.0,0.0,0.0,0.0,0.0,0.0,0.0,0.0,0.0,0.0,0.0,0.0,0.0,0.0,0.0,0.0,0.0,0.0,0.0,0.0,0.0,0.0,0.0,0.0,-3.4888,-3.5254,-3.5507,-3.5507,-3.5507,-3.5507,-3.5493,-3.5493,-3.546,0.0,0.0,0.0,0.0,0.0,0.0,0.0,0.0,0.0,0.0,0.0,0.0,0.0,0.0,0.0,0.0,0.0,0.0,0.0,0.0,0.0,0.0,0.0,0.0,0.0,0.0,0.0,0.0,0.0,0.0,0.0,0.0,0.0,0.0,0.0,0.0,0.0,0.0,0.0,0.0,0.0,0.0,0.0,0.0,0.0,0.0,0.0,0.0,0.0,0.0,0.0,0.0,0.0,0.0,0.0,0.0,0.0,0.0,0.0,0.0,0.0,0.0,0.0,0.0,0.0,0.0,0.0,0.0,0.0,0.0,0.0,0.0,0.0,0.0,0.0,0.0,0.0,0.0,0.0,0.0,0.0,0.0,0.0,0.0,0.0,0.0,0.0,0.0,0.0,0.0,0.0,0.0,0.0,0.0,0.0,0.0,0.0,0.0,0.0,0.0,0.0,0.0,0.0,-3.4906,-3.5296,-3.5554,-3.5509,-3.5509,-3.5495,-3.5507,-3.5493,-3.546,-3.5412,0.0,0.0,0.0,0.0,0.0,0.0,0.0,0.0,0.0,0.0,0.0,0.0,0.0,0.0,0.0,0.0,0.0,0.0,0.0,0.0,0.0,0.0,0.0,0.0,0.0,0.0,0.0,0.0,0.0,0.0,0.0,0.0,0.0,0.0,0.0,0.0,0.0,0.0,0.0,0.0,0.0,0.0,0.0,0.0,0.0,0.0,0.0,0.0,0.0,0.0,0.0,0.0,0.0,0.0,0.0,0.0,0.0,0.0,0.0,0.0,0.0,0.0,0.0,0.0,0.0,0.0,0.0,0.0,0.0,0.0,0.0,0.0,0.0,0.0,0.0,0.0,0.0,0.0,0.0,0.0,0.0,0.0,0.0,0.0,0.0,0.0,0.0,0.0,0.0,0.0,0.0,0.0,0.0,0.0,0.0,0.0,0.0,0.0,0.0,0.0,0.0,0.0,-3.498,-3.5326,-3.5528,-3.5496,-3.5489,-3.5495,-3.5515,-3.5501,-3.5482,-3.5482,0.0,0.0,0.0,0.0,0.0,0.0,0.0,0.0,0.0,0.0,0.0,0.0,0.0,0.0,0.0,0.0,0.0,0.0,0.0,0.0,0.0,0.0,0.0,0.0,0.0,0.0,0.0,0.0,0.0,0.0,0.0,0.0,0.0,0.0,0.0,0.0,0.0,0.0,0.0,0.0,0.0,0.0,0.0,0.0,0.0,0.0,0.0,0.0,0.0,0.0,0.0,0.0,0.0,0.0,0.0,0.0,0.0,0.0,0.0,0.0,0.0,0.0,0.0,0.0,0.0,0.0,0.0,0.0,0.0,0.0,0.0,0.0,0.0,0.0,0.0,0.0,0.0,0.0,0.0,0.0,0.0,0.0,0.0,0.0,0.0,0.0,0.0,0.0,0.0,0.0,0.0,0.0,0.0,0.0,0.0,0.0,0.0,0.0,0.0,0.0,0.0,0.0,-3.5102,-3.5355,-3.5528,-3.5515,-3.5495,-3.5515,-3.5515,-3.5515,-3.5547,-3.5591,0.0,0.0,0.0,0.0,0.0,0.0,0.0,0.0,0.0,0.0,0.0,0.0,0.0,0.0,0.0,0.0,0.0,0.0,0.0,0.0,0.0,0.0,0.0,0.0,0.0,0.0,0.0,0.0,0.0,0.0,0.0,0.0,0.0,0.0,0.0,0.0,0.0,0.0,0.0,0.0,0.0,0.0,0.0,0.0,0.0,0.0,0.0,0.0,0.0,0.0,0.0,0.0,0.0,0.0,0.0,0.0,0.0,0.0,0.0,0.0,-2.9841,0.0,0.0,0.0,0.0,0.0,0.0,0.0,0.0,0.0,0.0,0.0,0.0,0.0,0.0,0.0,0.0,0.0,0.0,0.0,0.0,0.0,0.0,0.0,0.0,0.0,0.0,0.0,0.0,0.0,0.0,0.0,0.0,0.0,0.0,0.0,0.0,0.0,0.0,0.0,0.0,0.0,-3.5239,-3.5496,-3.5631,-3.5589,-3.5577,-3.5584,-3.5591,-3.5591,-3.5572,-3.5591,0.0,0.0,0.0,0.0,0.0,0.0,0.0,0.0,0.0,0.0,0.0,0.0,0.0,0.0,0.0,0.0,0.0,0.0,0.0,0.0,0.0,0.0,0.0,0.0,0.0,0.0,0.0,0.0,0.0,0.0,0.0,0.0,0.0,0.0,0.0,0.0,0.0,0.0,0.0,0.0,0.0,0.0,0.0,0.0,0.0,0.0,0.0,0.0,0.0,0.0,0.0,0.0,0.0,0.0,0.0,0.0,0.0,0.0,0.0,0.0,0.0,-3.0128,0.0,0.0,0.0,0.0,0.0,0.0,0.0,0.0,0.0,0.0,0.0,0.0,0.0,0.0,0.0,0.0,0.0,0.0,0.0,0.0,0.0,0.0,0.0,0.0,0.0,0.0,0.0,0.0,0.0,0.0,0.0,0.0,0.0,0.0,0.0,0.0,0.0,0.0,0.0,0.0,-3.5311,-3.5534,-3.5643,-3.5601,-3.5589,-3.5596,-3.5596,-3.5596,-3.5608,-3.5639,-3.5628,0.0,0.0,0.0,0.0,0.0,0.0,0.0,0.0,0.0,0.0,0.0,0.0,0.0,0.0,0.0,0.0,0.0,0.0,0.0,0.0,0.0,0.0,0.0,0.0,0.0,0.0,0.0,0.0,0.0,0.0,0.0,0.0,0.0,0.0,0.0,0.0,0.0,0.0,0.0,0.0,0.0,0.0,0.0,0.0,0.0,0.0,0.0,0.0,0.0,0.0,0.0,0.0,0.0,0.0,-3.0221,-3.0253,-3.0292,-3.0292,-3.0221,-3.0221,-3.0185,-3.0117,0.0,0.0,0.0,0.0,0.0,0.0,0.0,0.0,0.0,0.0,0.0,0.0,0.0,0.0,0.0,0.0,0.0,0.0,0.0,0.0,0.0,0.0,0.0,0.0,0.0,-3.4602,-3.4602,0.0,0.0,0.0,0.0,0.0,0.0,0.0,0.0,0.0,0.0,0.0,0.0,-3.5418,-3.5546,-3.5612,-3.5612,-3.5628,-3.5628,-3.5631,-3.5612,-3.5643,-3.5704,-3.5643,-3.5546,0.0,0.0,0.0,0.0,0.0,0.0,0.0,0.0,0.0,0.0,0.0,0.0,0.0,0.0,0.0,0.0,0.0,0.0,0.0,0.0,0.0,0.0,0.0,0.0,0.0,0.0,0.0,0.0,0.0,0.0,0.0,0.0,-2.6739,-2.6734,0.0,0.0,0.0,0.0,0.0,0.0,0.0,0.0,0.0,0.0,0.0,0.0,0.0,0.0,-3.0322,-3.0414,-3.0462,-3.0462,-3.0392,-3.037,-3.037,-3.0381,-3.0381,-3.037,-3.037,0.0,-3.019,-3.0098,0.0,0.0,0.0,0.0,0.0,0.0,0.0,0.0,0.0,0.0,0.0,0.0,0.0,0.0,0.0,0.0,0.0,0.0,0.0,0.0,0.0,0.0,-3.4602,-3.4602,-3.4602,-3.4602,0.0,-3.4708,-3.483,-3.4851,0.0,0.0,0.0,0.0,0.0,0.0,0.0,0.0,-3.562,-3.5673,-3.5684,-3.5684,-3.5693,-3.5693,-3.5684,-3.5684,-3.5684,-3.5704,-3.5684,-3.5643,-3.5558,-3.5464,0.0,0.0,0.0,0.0,0.0,0.0,0.0,0.0,0.0,0.0,0.0,0.0,0.0,0.0,0.0,0.0,0.0,0.0,0.0,0.0,0.0,0.0,0.0,0.0,0.0,0.0,0.0,0.0,0.0,-2.6423,-2.6959,-2.6959,-2.7737,-2.8278,0.0,0.0,0.0,0.0,0.0,0.0,0.0,0.0,0.0,-3.0639,-3.06,-3.0567,-3.062,-3.0576,-3.0537,-3.0501,-3.0482,-3.0433,-3.0402,-3.0472,-3.0472,-3.0402,-3.0472,-3.0441,-3.0297,-3.0188,-3.0118,-3.0098,0.0,0.0,0.0,0.0,0.0,-3.2977,-3.3015,0.0,0.0,0.0,0.0,0.0,0.0,0.0,0.0,0.0,0.0,0.0,0.0,0.0,0.0,-3.4602,-3.4602,-3.4602,-3.4602,-3.4727,-3.481,0.0,-3.498,-3.5013,-3.4926,0.0,0.0,0.0,0.0,0.0,-3.5665,-3.5695,-3.5704,-3.5704,-3.5704,-3.5643,-3.5534,-3.5521,-3.5528,-3.5489,-3.5411,-3.5378,-3.5443,-3.5288,-3.5178,0.0,0.0,0.0,0.0,0.0,0.0,0.0,0.0,0.0,0.0,0.0,0.0,0.0,0.0,0.0,0.0,0.0,0.0,0.0,0.0,0.0,0.0,0.0,0.0,0.0,0.0,0.0,0.0,-2.6726,-2.7361,-2.7578,-2.8376,-2.8925,0.0,0.0,0.0,0.0,0.0,0.0,-3.0645,-3.0645,-3.0667,-3.0724,-3.0691,-3.0778,-3.1062,-3.1014,-3.1059,-3.1235,-3.123,-3.1176,-3.1149,-3.1252,-3.1234,-3.1149,-3.1243,-3.1234,-3.112,-3.0737,-3.0574,-3.0624,-3.1314,-3.1711,-3.1925,-3.2483,-3.3204,-3.3904,-3.3942,-3.4282,-3.4771,-3.4869,0.0,-3.4367,-3.4363,0.0,0.0,0.0,0.0,-3.4316,-3.4363,0.0,-3.4602,-3.4602,-3.4602,-3.4602,-3.4602,-3.4666,-3.479,0.0,-3.5066,-3.5114,-3.5032,0.0,0.0,0.0,0.0,-3.5405,-3.5635,-3.5695,-3.5704,-3.5704,-3.5695,-3.5631,-3.547,-3.5451,-3.5424,-3.5326,-3.5228,-3.5228,-3.5326,-3.5228,-3.5162,-3.5133,0.0,0.0,0.0,0.0,0.0,0.0,0.0,0.0,0.0,0.0,0.0,0.0,0.0,0.0,0.0,0.0,0.0,0.0,0.0,0.0,0.0,0.0,0.0,0.0,0.0,0.0,0.0,0.0,0.0,-2.9174,-3.0048,0.0,0.0,0.0,0.0,-3.0723,-3.0777,-3.0796,-3.0796,-3.0796,-3.0796,-3.0799,-3.0796,-3.1187,-3.2029,-3.203,-3.2432,-3.3251,-3.3198,-3.3168,-3.3148,-3.3172,-3.3149,-3.3149,-3.3149,-3.3149,-3.3064,-3.2048,-3.1603,-3.1602,-3.2344,-3.3062,-3.3675,-3.3718,-3.4274,-3.5035,-3.5083,-3.5138,-3.5157,-3.5193,-3.4908,-3.4569,-3.4498,-3.4269,0.0,0.0,-3.4293,-3.434,-3.4539,-3.4583,-3.4602,-3.4602,-3.4602,-3.4602,-3.4602,-3.4602,-3.4711,0.0,-3.5232,-3.5326,-3.5366,0.0,-3.513,-3.5281,-3.5181,-3.5228,-3.556,-3.5651,-3.5704,-3.5704,-3.5687,-3.5676,-3.5604,-3.5577,-3.5534,-3.5405,-3.5391,-3.5391,-3.5391,-3.5391,-3.534,-3.5209,-3.5209,0.0,0.0,0.0,0.0,0.0,0.0,0.0,0.0,0.0,0.0,0.0,0.0,0.0,0.0,0.0,0.0,0.0,0.0,0.0,0.0,0.0,0.0,0.0,0.0,0.0,0.0,0.0,0.0,-2.9355,-3.0213,0.0,0.0,-3.0859,-3.085,-3.086,-3.086,-3.1094,-3.1602,-3.1641,-3.1895,-3.2461,-3.248,-3.2617,-3.2929,-3.2943,-3.309,-3.3395,-3.3379,-3.3331,-3.3291,-3.3297,-3.3296,-3.3293,-3.3293,-3.325,-3.3179,-3.3364,-3.307,-3.2567,-3.3313,-3.3753,-3.399,-3.4461,-3.4826,-3.5092,-3.5019,-3.5019,-3.5019,-3.5019,-3.4889,-3.471,-3.4708,-3.4539,-3.4386,-3.4473,-3.4495,-3.4517,-3.4583,-3.4602,-3.4602,-3.4602,-3.4602,-3.4602,-3.4602,-3.4602,-3.4689,-3.4944,-3.5051,-3.51,-3.513,-3.5243,-3.5273,-3.5232,-3.5277,-3.535,-3.5515,-3.5528,-3.5534,-3.5631,-3.5558,-3.5489,-3.5405,-3.5369,-3.53,-3.5207,-3.5138,-3.5122,-3.5207,-3.5254,-3.5254,-3.5209,-3.533,-3.53,0.0,0.0,0.0,0.0,0.0,0.0,0.0,0.0,0.0,0.0,0.0,0.0,0.0,0.0,0.0,0.0,0.0,0.0,0.0,0.0,0.0,0.0,0.0,0.0,0.0,0.0,-2.9508,-2.9775,-3.035,-3.0735,-3.0755,-3.079,-3.0937,-3.125,-3.1268,-3.1638,-3.2456,-3.2531,-3.2799,-3.3378,-3.3398,-3.3534,-3.3846,-3.3846,-3.3997,-3.428,-3.4254,-3.4213,-3.4185,-3.4173,-3.4165,-3.4148,-3.4148,-3.4085,-3.4051,-3.4614,-3.4455,-3.3882,-3.4359,-3.4506,-3.4531,-3.4969,-3.5145,-3.5108,-3.5037,-3.5001,-3.5001,-3.5001,-3.4964,-3.4888,-3.4849,-3.4749,-3.4666,-3.4623,-3.4602,-3.4602,-3.4602,-3.4602,-3.4602,-3.4602,-3.4602,-3.4602,-3.4602,-3.4645,-3.4708,-3.4831,-3.4926,-3.4999,-3.5086,-3.5181,-3.5262,-3.5232,-3.5277,-3.5355,-3.543,-3.5411,-3.5432,-3.5514,-3.5464,-3.5391,-3.5302,-3.5266,-3.5226,-3.5145,-3.5037,-3.5037,-3.5127,-3.5176,-3.5209,-3.5209,-3.533,-3.533,-3.5209,0.0,0.0,0.0,0.0,0.0,0.0,0.0,0.0,0.0,0.0,0.0,0.0,0.0,0.0,0.0,0.0,0.0,0.0,0.0,0.0,0.0,0.0,0.0,-2.9273,-2.9379,-2.9732,-3.0503,-3.061,-3.0645,-3.0724,-3.0675,-3.1034,-3.1976,-3.2037,-3.2426,-3.3298,-3.3418,-3.3453,-3.3476,-3.3476,-3.3886,-3.4725,-3.4744,-3.5154,-3.5991,-3.5935,-3.5895,-3.5908,-3.5898,-3.5857,-3.5799,-3.5799,-3.5791,-3.5791,-3.5737,-3.5615,-3.5483,-3.5435,-3.5398,-3.5383,-3.5258,-3.5209,-3.5209,-3.5209,-3.5209,-3.5209,-3.5209,-3.5143,-3.5075,-3.4945,-3.4869,-3.4768,-3.4645,-3.4583,-3.4602,-3.4602,-3.4583,-3.4602,-3.4602,-3.4583,-3.4623,-3.4623,-3.4708,-3.4809,-3.4809,-3.4869,-3.4982,-3.5235,-3.5136,-3.5069,-3.5266,-3.5239,0.0,-3.53,-3.5336,-3.5391,-3.5391,-3.5438,-3.5443,-3.5296,-3.5364,-3.5335,-3.5209,-3.5209,-3.5209,-3.5209,-3.5209,-3.5209,-3.5209,-3.5209,-3.5209,-3.5209,0.0,0.0,0.0,0.0,0.0,0.0,0.0,0.0,0.0,0.0,0.0,0.0,0.0,0.0,0.0,0.0,0.0,0.0,0.0,0.0,0.0,0.0,-2.906,-2.9147,-2.9806,-3.0355,-3.0565,-3.0597,-3.0857,-3.1518,-3.1601,-3.1975,-3.2889,-3.2947,-3.3334,-3.4277,-3.4336,-3.4624,-3.5271,-3.5288,-3.5408,-3.5642,-3.5642,-3.5759,-3.5991,-3.5988,-3.5951,-3.5908,-3.5903,-3.5866,-3.5799,-3.5799,-3.5765,-3.5737,-3.5718,-3.5601,-3.5435,-3.5412,-3.5335,-3.5258,-3.5226,-3.5209,-3.5209,-3.5209,-3.5209,-3.5209,-3.5209,-3.5143,-3.5092,-3.5057,-3.4927,-3.4809,-3.4811,-3.471,-3.4623,-3.4727,-3.4666,-3.4602,-3.4602,-3.4666,-3.4747,-3.4747,-3.481,-3.487,-3.487,-3.4889,-3.4964,-3.5126,-3.5141,-3.5174,-3.5207,-3.5207,0.0,-3.5242,-3.5239,-3.53,-3.5393,-3.5315,-3.532,-3.5364,-3.5304,-3.5242,0.0,-3.5209,-3.5209,-3.5209,-3.5209,-3.5209,-3.5209,-3.5209,-3.5209,0.0,0.0,0.0,0.0,0.0,0.0,0.0,0.0,0.0,0.0,0.0,0.0,0.0,0.0,0.0,0.0,0.0,0.0,0.0,0.0,0.0,0.0,-2.9421,-2.9455,-2.9519,-3.0141,-3.0685,-3.094,-3.1061,-3.141,-3.2248,-3.2405,-3.2822,-3.371,-3.3801,-3.4208,-3.5115,-3.5183,-3.5448,-3.5986,-3.6005,-3.6001,-3.5991,-3.5991,-3.5991,-3.5991,-3.5991,-3.5958,-3.5904,-3.5894,-3.5879,0.0,-3.5807,-3.5773,-3.5737,-3.5698,-3.5623,0.0,0.0,0.0,0.0,0.0,-3.5209,-3.5209,-3.5209,-3.5209,-3.5209,-3.5209,-3.5176,-3.5145,-3.511,-3.502,-3.4927,-3.4908,-3.4831,-3.473,-3.4788,-3.4747,-3.4687,-3.4687,-3.4747,-3.4809,-3.483,-3.4927,-3.4964,-3.4964,0.0,0.0,-3.5126,-3.5143,-3.516,-3.5193,-3.5209,-3.5209,-3.5209,-3.5209,-3.5242,-3.5304,-3.5258,-3.5242,-3.5304,-3.5242,0.0,0.0,0.0,-3.5209,-3.5209,-3.5226,0.0,0.0,0.0,-3.5209,0.0,0.0,0.0,0.0,-3.511,-3.5073,0.0,0.0,0.0,0.0,0.0,0.0,0.0,0.0,0.0,0.0,0.0,0.0,0.0,0.0,0.0,0.0,-3.0,-3.0132,-3.0213,-3.0501,-3.0893,-3.1437,-3.1758,-3.2229,-3.2967,-3.3164,-3.3615,-3.4476,-3.4604,-3.4986,-3.5768,0.0,0.0,0.0,0.0,-3.5992,-3.5996,-3.5996,-3.5994,-3.5991,-3.5991,-3.5965,-3.5908,-3.5904,-3.5897,-3.5898,-3.5842,-3.5818,-3.5791,-3.5747,-3.5718,-3.5667,-3.5476,-3.532,-3.5209,-3.5209,-3.5209,0.0,0.0,0.0,0.0,-3.5209,-3.5209,-3.5193,-3.5127,-3.511,-3.5075,-3.4964,-3.4927,-3.4889,-3.4849,-3.4829,-3.4809,-3.4809,-3.4829,-3.4849,-3.4908,-3.502,-3.511,-3.511,-3.516,-3.5209,-3.5209,-3.5143,-3.5127,-3.5193,-3.5209,-3.5209,-3.5209,-3.5209,-3.5209,-3.5209,0.0,0.0,-3.5209,-3.5209,-3.5207,-3.5207,-3.5207,-3.5207,-3.5207,-3.5277,-3.5277,-3.5207,-3.5209,-3.5209,-3.5209,-3.5209,-3.5209,-3.5209,-3.5145,-3.5126,0.0,0.0,0.0,0.0,0.0,0.0,0.0,0.0,0.0,0.0,0.0,0.0,0.0,0.0,0.0,-2.9869,-3.0,-3.0312,-3.0902,-3.1193,-3.1373,-3.1487,-3.2186,-3.3029,-3.3872,-3.4063,-3.4506,-3.5379,-3.5466,-3.5568,-3.5788,-3.5855,0.0,-3.5923,-3.5971,-3.5996,-3.5993,-3.5993,-3.6007,-3.5991,0.0,0.0,-3.5908,-3.5903,-3.5894,-3.5898,-3.5891,-3.585,-3.5791,-3.5782,-3.5747,-3.5667,-3.5476,-3.532,-3.5209,-3.5209,-3.5209,-3.5209,-3.5209,-3.5209,-3.5209,-3.5209,-3.5209,-3.5209,-3.5193,-3.5126,0.0,-3.5124,-3.5037,-3.4927,-3.502,-3.4964,-3.4889,-3.4889,-3.4964,-3.5039,-3.5057,-3.5126,-3.5176,-3.5176,-3.5193,-3.5209,-3.5209,-3.5193,-3.5193,-3.5209,-3.5209,-3.5209,-3.5209,-3.5209,-3.5209,-3.5209,-3.5261,-3.5277,-3.5277,-3.5289,-3.5285,-3.5285,-3.5285,-3.5285,-3.5285,-3.53,-3.53,-3.5285,-3.5273,-3.5277,-3.5277,-3.5226,-3.5209,-3.5209,-3.5193,-3.5193,0.0,0.0,0.0,0.0,0.0,0.0,0.0,0.0,0.0,0.0,0.0,-2.8988,0.0,0.0,-2.9769,-2.9872,-3.0314,-3.0785,-3.1137,-3.1996,-3.2591,-3.2591,-3.3101,-3.3766,-3.4553,-3.4835,-3.5125,-3.5566,-3.6035,-3.6329,-3.639,-3.6844,-3.7124,-3.7156,-3.722,-3.726,-3.7245,-3.7245,-3.7279,-3.7301,-3.6852,-3.6632,-3.6586,-3.6107,-3.5895,-3.5908,-3.5891,-3.5885,-3.585,-3.5807,-3.5756,-3.5697,-3.5589,-3.5449,-3.5289,-3.5226,-3.5209,-3.5209,-3.5273,-3.5258,-3.5209,-3.5273,-3.5258,-3.5209,-3.5209,-3.5176,-3.5143,-3.5193,-3.5124,-3.5054,-3.5092,-3.5057,-3.5001,-3.5001,-3.5057,-3.511,-3.5126,-3.5176,-3.5209,-3.5209,-3.5209,-3.5209,-3.5209,-3.5209,-3.5209,-3.5209,-3.5209,-3.5209,-3.5209,-3.5226,-3.5261,-3.5261,-3.5273,-3.5304,-3.5304,-3.53,-3.5315,-3.5315,-3.533,-3.533,-3.5315,-3.533,-3.533,-3.5315,-3.5304,-3.5304,-3.5304,-3.5277,-3.5261,-3.5261,-3.5209,-3.5209,0.0,0.0,0.0,0.0,0.0,0.0,0.0,0.0,-2.9166,-2.9166,-2.9209,-2.9293,-2.9455,-2.9513,-2.9645,-2.996,-3.0599,-3.1183,-3.1559,-3.2769,-3.3715,-3.3922,-3.4094,-3.4439,-3.5028,-3.5494,-3.5746,-3.5746,-3.6624,-3.7177,-3.7239,-3.7909,-3.8327,-3.8371,-3.8454,-3.8492,-3.8496,-3.8496,-3.8534,-3.8578,-3.7875,-3.7443,-3.7262,-3.6524,-3.6068,-3.5903,-3.5899,-3.5891,-3.5898,-3.5842,-3.5801,-3.5747,-3.5718,-3.5612,-3.543,-3.5285,-3.5242,-3.5258,-3.5335,-3.5289,-3.5226,-3.532,-3.5289,-3.5209,-3.5209,-3.5209,-3.5209,-3.5209,-3.5209,-3.5193,-3.5145,-3.5127,-3.5127,-3.5127,-3.5127,-3.5145,-3.5193,-3.5209,-3.5209,-3.5209,-3.5209,-3.5209,-3.5209,-3.5226,-3.5226,-3.5226,-3.5226,-3.5226,-3.5226,-3.5258,-3.5293,-3.5293,-3.532,-3.5315,-3.533,-3.533,-3.533,-3.533,-3.5398,-3.5398,-3.533,-3.5379,-3.5379,-3.533,-3.533,-3.5315,-3.5315,-3.5304,-3.5293,-3.5293,-3.5242,-3.5209,-2.7365,-2.7648,-2.801,-2.8129,-2.8404,-2.8637,0.0,0.0,-2.8687,-2.8687,-2.8863,-2.9048,-2.9052,-2.9209,-2.9576,-3.0302,-3.0506,-3.115,-3.2837,-3.3233,-3.3691,-3.4661,-3.4902,-3.5007,-3.5086,-3.6032,-3.6652,-3.6652,-3.7532,-3.8063,-3.8063,-3.822,-3.8294,-3.8302,-3.8436,-3.8507,-3.8505,-3.8505,-3.8506,-3.8513,-3.8416,-3.7981,-3.7301,-3.7181,-3.6684,-3.5903,-3.5899,-3.5891,-3.5898,-3.5898,-3.5872,-3.5877,-3.5757,-3.5689,-3.565,-3.5457,-3.5383,-3.535,-3.5258,-3.5209,-3.5209,-3.5226,-3.5209,-3.5209,-3.5209,-3.5209,-3.5209,-3.5209,-3.5209,-3.5209,-3.5193,-3.5193,-3.5193,-3.5193,-3.5193,-3.5193,-3.5209,-3.5209,-3.5209,-3.5209,-3.5209,-3.5226,-3.5277,-3.5277,-3.5277,-3.5277,-3.5277,-3.5293,-3.5285,-3.53,-3.53,-3.53,-3.535,-3.5412,-3.546,-3.5493,-3.5493,-3.5493,-3.5474,-3.5493,-3.5493,-3.5474,-3.5493,-3.5493,-3.5412,-3.5398,-3.5398,-3.5315,-3.53,-3.53,-3.5273,-3.5261,-2.7299,-2.7707,-2.8065,0.0,-2.8492,-2.8587,-2.8587,-2.8587,-2.8587,-2.8587,-2.8687,-2.8815,-2.898,-2.9421,-2.9917,0.0,-3.1296,-3.224,-3.317,-3.3738,-3.4273,-3.4832,-3.5401,-3.5742,-3.5742,-3.6663,-3.7277,-3.7277,-3.8248,-3.8859,-3.8897,-3.948,-3.9838,-3.9863,-3.9954,-4.0003,-4.002,-4.0001,-4.002,-4.0019,-3.9492,-3.908,-3.8723,-3.7736,-3.6811,-3.5962,-3.5923,-3.5904,-3.5894,-3.5898,-3.5892,-3.5885,-3.5842,-3.5823,-3.5772,-3.5489,-3.5412,-3.5412,-3.5369,-3.536,-3.5335,-3.5457,-3.5402,-3.5335,-3.5369,-3.5281,-3.5226,-3.5296,-3.527,-3.5209,-3.5261,-3.5226,-3.5209,-3.5209,-3.5209,-3.5209,-3.5261,-3.5261,-3.5277,-3.5254,-3.5254,-3.527,-3.5304,-3.5304,-3.5304,-3.5354,-3.532,-3.5304,-3.53,-3.533,-3.5364,-3.5412,-3.5446,-3.546,-3.5493,-3.5493,-3.5493,-3.5493,-3.5493,-3.5493,-3.5493,-3.5493,-3.5493,-3.5493,-3.546,-3.546,-3.546,-3.5379,-3.5364,-3.5364,-3.532,-3.5289,-2.7066,-2.753,-2.7897,-2.8138,-2.8414,-2.8587,-2.8492,-2.8518,-2.8587,-2.8587,-2.8587,-2.8662,-2.8839,-2.9527,-3.0161,-3.0567,-3.1789,-3.2884,-3.3366,-3.4057,-3.4583,-3.4791,-3.5816,-3.6519,-3.6519,-3.7395,-3.7965,-3.7965,-3.8955,-3.961,-3.9695,-4.0413,-4.0869,-4.0971,-4.1038,-4.1078,-4.1096,-4.11,-4.1097,-4.1082,-4.0465,-4.0039,-3.9744,-3.8053,-3.697,-3.6342,-3.6059,-3.5912,-3.5903,-3.5908,-3.5903,-3.5899,-3.5911,-3.5897,-3.5858,-3.5566,-3.5457,-3.5451,-3.55,-3.547,-3.5416,-3.5604,-3.557,-3.5457,-3.5507,-3.5432,-3.5336,-3.5405,-3.5369,-3.5285,-3.5289,-3.5258,-3.5223,-3.5223,-3.5223,-3.5242,-3.5293,-3.5308,-3.5289,-3.53,-3.5315,-3.5315,-3.5315,-3.533,-3.5364,-3.5412,-3.5398,-3.5364,-3.5364,-3.5398,-3.5446,-3.5493,-3.5493,-3.5493,-3.5493,-3.5493,-3.5493,-3.5493,-3.5493,-3.5493,-3.5493,-3.5493,-3.5493,-3.5493,-3.5493,-3.5493,-3.5493,-3.546,-3.5427,-3.5427,-3.5364,-3.5335,-2.6537,-2.7004,-2.7396,-2.7258,-2.7915,-2.8518,-2.8201,-2.837,-2.8587,-2.8587,-2.8587,-2.8612,-2.8612,-2.9264,-3.0069,-3.0849,-3.1682,-3.2592,-3.3633,-3.403,-3.4316,-3.4561,-3.6245,-3.7353,0.0,-3.8271,-3.8861,-3.8861,-3.9733,-4.0329,-4.0472,-4.0563,-4.0699,-4.0907,-4.0971,-4.1038,-4.1091,-4.1091,-4.1095,-4.1094,-4.1078,-4.0611,-3.9744,-3.8053,-3.7282,-3.7204,-3.6362,-3.5962,-3.5908,-3.5903,-3.5903,-3.5903,-3.5899,-3.5904,-3.5875,-3.5668,-3.5581,-3.5581,-3.5592,-3.5516,-3.5418,-3.5554,-3.5607,-3.5577,-3.5607,-3.56,-3.5572,-3.5512,-3.5495,-3.5457,-3.5326,-3.53,-3.53,-3.53,-3.53,-3.53,-3.53,-3.53,-3.53,-3.5315,-3.5315,-3.5315,-3.5398,-3.5398,-3.5412,-3.5493,-3.5493,-3.5493,-3.5493,-3.5493,-3.5493,-3.5493,-3.5493,-3.5493,-3.5493,-3.5493,-3.5493,-3.5493,-3.5493,-3.5493,-3.5493,-3.5493,-3.5493,-3.5493,-3.5493,-3.5493,-3.5493,-3.5493,-3.5493,-3.5493,-3.5427,-3.5398,-2.6674,-2.6906,-2.7051,-2.7348,-2.7631,-2.7833,-2.7747,-2.7869,-2.8055,-2.8228,-2.852,-2.8849,-2.9295,-2.9881,-3.0589,-3.1627,-3.2017,-3.2565,-3.367,-3.4023,-3.4293,-3.4561,-3.6264,0.0,0.0,0.0,0.0,-3.9559,-3.9929,-4.0248,-4.0427,-4.0549,-4.0699,-4.0888,-4.0971,-4.1003,-4.103,-4.1078,-4.1097,-4.1095,-4.1104,-4.064,-3.9764,-3.8659,-3.7848,-3.7243,-3.6384,-3.5988,-3.5965,-3.5912,-3.5935,-3.5962,-3.5923,-3.5927,-3.5958,-3.5846,-3.5794,-3.5779,-3.564,-3.557,-3.5568,-3.5741,-3.5776,-3.5752,-3.5791,-3.5669,-3.5568,-3.5678,-3.56,-3.5495,-3.5451,-3.5425,-3.5405,-3.5311,-3.5315,-3.5315,-3.5364,-3.5364,-3.5379,-3.5412,-3.5427,-3.5446,-3.546,-3.546,-3.546,-3.5493,-3.5493,-3.5493,-3.5493,-3.5493,-3.5493,-3.5493,-3.5493,-3.5493,-3.5493,-3.5493,-3.5493,-3.5493,-3.5493,-3.5493,-3.5493,-3.5493,-3.5493,-3.5493,-3.5493,-3.5493,-3.5493,-3.5493,-3.5493,-3.5493,-3.5493,-3.5446,-2.6607,-2.6741,-2.6841,-2.7083,-2.733,-2.7465,-2.7361,-2.7517,-2.7695,-2.7926,-2.8141,-2.8463,-2.8943,-2.9576,-3.029,-3.1024,-3.1761,-3.2446,-3.315,-3.371,-3.4124,-3.4293,-3.6073,0.0,0.0,0.0,0.0,-3.9889,-3.9977,-4.012,-4.0281,-4.0412,-4.059,-4.0787,-4.0897,-4.098,-4.0996,-4.1071,-4.111,-4.1091,-4.1108,-4.0818,-4.0234,-3.9112,-3.8297,-3.7692,-3.6501,-3.5991,-3.5991,-3.5942,-3.5962,-3.5991,-3.5942,-3.5965,-3.5988,-3.5929,-3.5908,-3.5878,-3.5757,-3.5696,-3.5704,-3.5858,-3.5864,-3.5846,-3.5894,-3.5801,-3.5696,-3.5745,-3.5659,-3.5557,-3.5507,-3.5489,-3.547,-3.5393,-3.5364,-3.5379,-3.5427,-3.5446,-3.546,-3.5501,-3.5501,-3.5515,-3.5528,-3.5547,-3.5547,-3.5547,-3.5547,-3.5534,-3.5507,-3.5493,-3.5507,-3.5501,-3.5488,-3.5507,-3.5501,-3.5507,-3.5493,-3.5493,-3.5493,-3.5493,-3.5493,-3.5493,-3.5493,-3.5493,-3.5493,-3.5493,-3.5493,-3.5493,-3.5493,-3.5493,-3.5493,-3.5493,-2.626,-2.6521,-2.6725,-2.6537,-2.6971,-2.7361,-2.7117,-2.7255,-2.7482,-2.7624,-2.7522,-2.7478,-2.7724,0.0,-2.9212,-2.9333,-3.0926,-3.2144,-3.218,-3.3104,-3.3807,0.0,0.0,0.0,0.0,0.0,0.0,-3.9832,0.0,-3.988,-3.9967,-4.0135,-4.0323,-4.0532,-4.0779,-4.0926,-4.0988,-4.1052,-4.111,-4.1091,-4.1108,-4.1087,-4.0972,-3.9349,-3.8573,-3.8436,-3.6735,-3.5991,-3.5991,-3.5991,-3.5991,-3.5991,-3.5991,-3.5991,-3.5988,-3.5929,-3.5889,-3.5894,-3.5889,-3.5852,-3.582,-3.5875,-3.5908,-3.5908,-3.5908,-3.5958,-3.5958,-3.5774,-3.5702,-3.5678,-3.5528,-3.552,-3.5488,-3.5507,-3.5507,-3.5507,-3.5507,-3.5507,-3.552,-3.5502,-3.5515,-3.5528,-3.5591,-3.5591,-3.5591,-3.5591,-3.5591,-3.5566,-3.552,-3.5507,-3.5501,-3.5502,-3.5515,-3.5501,-3.5502,-3.5495,-3.5507,-3.5507,-3.5507,-3.5507,-3.5507,-3.5507,-3.5493,-3.5493,-3.5493,-3.5493,-3.5493,-3.5493,-3.5493,-3.5493,-3.5493,-3.5493,-2.626,-2.6312,-2.6364,-2.6347,-2.6487,-2.6607,-2.6521,-2.6624,-2.6825,-2.7066,-2.735,-2.7709,-2.8324,0.0,0.0,-3.0053,-3.0836,0.0,-3.2107,-3.3104,0.0,-3.3807,0.0,-3.6814,-3.6967,-3.7995,0.0,0.0,-3.9001,-3.8781,-3.827,-3.8967,-3.948,-3.9634,-4.0401,-4.0859,-4.0926,-4.1038,-4.111,-4.1091,-4.1108,-4.0755,-4.0091,-3.9076,-3.8258,-3.7575,-3.6462,-3.5991,-3.5991,-3.5991,-3.5991,-3.5991,-3.5991,-3.5991,-3.5988,-3.5929,-3.5934,-3.5974,-3.5924,-3.5883,-3.5889,-3.5955,-3.5965,-3.5965,-3.5965,-3.5951,-3.5934,-3.5923,-3.5858,-3.5749,-3.566,-3.562,-3.5554,-3.5515,-3.5489,-3.5522,-3.5566,-3.5566,-3.5566,-3.556,-3.556,-3.5591,-3.5591,-3.5591,-3.5591,-3.5591,-3.5591,-3.5591,-3.5566,-3.5566,-3.5579,-3.556,-3.5579,-3.5579,-3.556,-3.5534,-3.5522,-3.5566,-3.5534,-3.5501,-3.5489,-3.5501,-3.5493,-3.5493,-3.5493,-3.5493,-3.5493,-3.5493,-3.5493,-3.5493,-3.5493,-3.5493,-2.6258,-2.6222,-2.6203,-2.6258,-2.6277,-2.6295,-2.6295,-2.6347,-2.6486,-2.6691,-2.6874,-2.7142,-2.762,-2.7944,0.0,0.0,0.0,0.0,-3.1546,-3.2483,-3.3232,0.0,-3.4972,0.0,-3.6807,-3.7689,-3.8211,0.0,-3.813,-3.7943,-3.7528,-3.8477,-3.9057,-3.9204,-4.0179,-4.0787,-4.0935,-4.1023,-4.1071,-4.1091,-4.1108,-4.0638,-3.9777,-3.8978,-3.8121,-3.7243,0.0,-3.5991,-3.5991,-3.5991,-3.5991,-3.5991,-3.5991,-3.5991,-3.601,-3.5951,-3.5978,-3.5991,-3.597,-3.5942,-3.5947,-3.5988,-3.5991,-3.5991,-3.5991,-3.5978,-3.5947,-3.5949,-3.5908,-3.5807,-3.5697,-3.5629,-3.5581,-3.554,-3.5528,-3.556,-3.5591,-3.5591,-3.5604,-3.5596,-3.5628,-3.5639,-3.5639,-3.5639,-3.5639,-3.5639,-3.5639,-3.5639,-3.5639,-3.5616,-3.5604,-3.5596,-3.5604,-3.5604,-3.5596,-3.5572,-3.556,-3.5591,-3.5554,-3.5541,-3.5502,-3.5509,-3.5501,-3.5507,-3.5493,-3.5493,-3.5493,-3.5493,-3.5493,-3.5493,-3.5493,-3.5493,-2.622,-2.622,-2.622,-2.622,-2.6258,-2.6295,-2.6295,-2.6295,-2.6312,-2.645,0.0,-2.6239,-2.645,-2.6956,-2.7348,-2.7465,0.0,-2.9998,-3.0731,-3.1618,-3.2451,-3.3158,-3.4254,-3.5404,-3.6582,-3.7542,-3.7886,-3.7427,-3.7296,-3.7182,-3.7068,-3.8023,-3.8742,-3.9106,-4.0092,-4.0734,-4.098,-4.0988,-4.103,-4.1085,-4.0971,-4.0462,-3.9602,-3.8783,-3.7946,-3.7087,0.0,0.0,-3.5991,-3.5991,-3.5991,-3.5991,-3.5991,-3.5991,-3.5991,-3.5991,-3.5991,-3.5994,-3.5994,-3.5996,-3.5996,-3.5994,-3.5994,-3.5996,-3.5996,-3.5996,-3.5996,-3.5938,-3.5918,-3.5853,-3.5679,-3.562,-3.5611,-3.5604,-3.5604,-3.5604,-3.5604,-3.5616,-3.5616,-3.5601,-3.5673,-3.5704,-3.5704,-3.5704,-3.5704,-3.5704,-3.5704,-3.5704,-3.5704,-3.5639,-3.5596,-3.5612,-3.5608,-3.5596,-3.5612,-3.5596,-3.5604,-3.5604,-3.5604,-3.5572,-3.5528,-3.5515,-3.5522,-3.5488,-3.5507,-3.5507,-3.5493,-3.5493,-3.5493,-3.5493,-3.5493,-3.5493,-2.622,-2.622,-2.622,-2.622,-2.6203,-2.6203,-2.6203,-2.6203,0.0,0.0,-2.6203,-2.6239,-2.6312,-2.6657,-2.7051,-2.7452,0.0,0.0,0.0,0.0,-3.2252,0.0,0.0,0.0,0.0,0.0,0.0,0.0,0.0,0.0,-3.5363,-3.6291,-3.7589,-3.921,-4.0236,-4.0787,-4.0839,-4.0935,-4.1015,-4.1003,-4.0336,-3.9563,-3.8703,-3.7885,-3.7048,-3.6228,0.0,0.0,-3.5991,-3.5991,-3.5991,-3.5991,-3.5991,-3.5991,-3.5991,-3.5991,-3.5991,-3.5994,-3.6005,-3.6009,-3.6007,-3.5996,-3.6001,-3.6009,-3.6009,-3.6009,-3.6009,-3.5989,-3.593,-3.5884,-3.5783,-3.5724,-3.5662,-3.5601,-3.5601,-3.562,-3.5662,-3.5673,-3.5673,-3.5673,-3.5684,-3.5704,-3.5704,-3.5704,-3.5704,-3.5704,-3.5704,-3.5704,-3.5704,-3.5693,-3.5673,-3.5673,-3.5673,-3.5673,-3.5673,-3.5631,-3.5631,-3.5673,-3.5628,-3.5584,-3.5589,-3.5584,-3.5547,-3.5502,-3.5502,-3.5495,-3.5493,-3.5493,-3.5493,-3.5493,-3.5493,-3.5417,-2.622,-2.622,-2.622,-2.622,-2.622,-2.622,-2.622,0.0,0.0,0.0,-2.622,-2.6203,-2.6258,-2.6674,0.0,0.0,0.0,0.0,0.0,0.0,0.0,0.0,0.0,0.0,0.0,0.0,0.0,0.0,0.0,0.0,-3.4965,-3.6323,-3.7753,-3.9165,-4.025,-4.0792,-4.0807,-4.0907,-4.0943,-4.0943,-4.0173,-3.9325,-3.8422,-3.7652,-3.6813,-3.5991,-3.5991,0.0,-3.5991,-3.5991,-3.5991,-3.5991,-3.5991,-3.5991,-3.5994,-3.6001,-3.5999,-3.5994,-3.6001,-3.6007,-3.6009,-3.5996,-3.5996,-3.6005,-3.5994,-3.5995,-3.5995,-3.5995,-3.5942,-3.5885,-3.5816,-3.5749,-3.5684,-3.5673,-3.5643,-3.5654,-3.5684,-3.5704,-3.5704,-3.5704,-3.5704,-3.5704,-3.5704,-3.5704,-3.5704,-3.5704,-3.5704,-3.5704,-3.5704,-3.5704,-3.5704,-3.5704,-3.5704,-3.5704,-3.5704,-3.5673,-3.5673,-3.5704,-3.5662,-3.5639,-3.5601,-3.5608,-3.5584,-3.556,-3.5515,-3.5502,-3.5495,-3.5488,-3.5493,-3.5493,-3.5383,-3.5289,-2.622,-2.622,-2.622,-2.622,-2.622,-2.622,-2.622,-2.622,0.0,-2.622,-2.622,-2.622,-2.622,-2.6725,-2.721,0.0,-2.7858,-2.8542,0.0,0.0,0.0,0.0,0.0,0.0,0.0,0.0,0.0,0.0,0.0,0.0,-3.4984,-3.6721,-3.8095,-3.8802,-4.0072,-4.0764,-4.0804,-4.0849,-4.0791,-4.0607,-3.9862,-3.9039,-3.8112,-3.7361,-3.6657,-3.5991,-3.5991,0.0,0.0,-3.5991,-3.5991,-3.5994,-3.5996,-3.5996,-3.5994,-3.6005,-3.6005,-3.6001,-3.6001,-3.6007,-3.5992,-3.6005,-3.6001,-3.6005,-3.5995,-3.5996,-3.5996,-3.601,-3.5955,-3.5892,-3.5813,-3.5763,-3.5715,-3.5704,-3.5695,-3.5695,-3.5704,-3.5695,-3.5695,-3.5704,-3.5704,-3.5704,-3.5695,-3.5695,-3.5704,-3.5695,-3.5695,-3.5704,-3.5704,-3.5704,-3.5704,-3.5704,-3.5704,-3.5704,-3.5704,-3.5704,-3.5704,-3.5704,-3.5704,-3.5673,-3.5612,-3.5612,-3.562,-3.5604,-3.554,-3.5509,-3.5515,-3.5495,-3.5474,-3.5432,-3.5273,-3.5141,-2.622,-2.622,-2.622,-2.622,-2.622,-2.622,-2.622,0.0,-2.622,-2.622,-2.622,-2.622,-2.622,-2.6504,-2.6873,-2.7241,-2.7624,-2.8025,0.0,0.0,0.0,0.0,0.0,0.0,0.0,0.0,0.0,0.0,0.0,0.0,0.0,-3.6633,-3.771,-3.7901,-3.9619,-4.0621,-4.0803,-4.0804,-4.0449,-3.9723,-3.8961,-3.8156,-3.7288,-3.6484,-3.6069,-3.5991,0.0,0.0,0.0,-3.5991,-3.5991,-3.5994,-3.6005,-3.6003,-3.5994,-3.5994,-3.6007,-3.5996,-3.5996,-3.5996,-3.5996,-3.5996,-3.5996,-3.5996,-3.5996,-3.5996,-3.5993,-3.6002,-3.6001,-3.5957,-3.5832,-3.5795,-3.5785,-3.5715,-3.5706,-3.5697,-3.5695,-3.5706,-3.5697,-3.5695,-3.5704,-3.5695,-3.5697,-3.5706,-3.5695,-3.5697,-3.5706,-3.5704,-3.5704,-3.5704,-3.5704,-3.5704,-3.5704,-3.5704,-3.5704,-3.5704,-3.5704,-3.5704,-3.5704,-3.5704,-3.5684,-3.5684,-3.5673,-3.5601,-3.5601,-3.5565,-3.5515,-3.5502,-3.5422,-3.5226,-3.5209,-3.4982,-2.622,-2.622,-2.622,-2.622,-2.622,-2.622,-2.622,0.0,-2.622,-2.622,-2.622,-2.622,-2.622,-2.6657,-2.7036,-2.7195,-2.7701,-2.8109,-2.83,0.0,0.0,0.0,0.0,0.0,0.0,0.0,0.0,0.0,0.0,0.0,0.0,-3.7239,-3.7986,-3.8553,-3.9947,-4.0713,-4.079,-4.0319,-3.9904,-3.9522,-3.8305,-3.7517,-3.7111,-3.6347,-3.5999,-3.5991,0.0,0.0,0.0,-3.5996,-3.5991,-3.5994,-3.5999,-3.6007,-3.5992,-3.5992,-3.5995,-3.5996,-3.5996,-3.5996,-3.5996,-3.5996,-3.5994,-3.6009,-3.5996,-3.5994,-3.5996,-3.5996,-3.5974,-3.591,-3.5812,-3.5776,-3.5728,-3.5718,-3.5708,-3.5708,-3.5698,-3.5708,-3.5708,-3.5698,-3.5698,-3.5698,-3.5708,-3.5698,-3.5698,-3.5708,-3.5707,-3.5687,-3.5687,-3.5695,-3.5704,-3.5704,-3.5704,-3.5704,-3.5704,-3.5704,-3.5704,-3.5704,-3.5704,-3.5704,-3.5704,-3.5704,-3.5684,-3.5673,-3.5612,-3.5589,-3.556,-3.5402,-3.5281,-3.5174,-3.4964,-3.4751,-2.6364,-2.6274,-2.622,-2.622,-2.622,-2.622,0.0,0.0,-2.622,-2.622,-2.622,-2.622,-2.622,-2.6742,-2.7213,-2.7213,-2.7748,-2.8209,-2.8246,-2.8998,0.0,0.0,0.0,0.0,0.0,0.0,0.0,0.0,0.0,0.0,0.0,-3.8037,-3.8457,-3.9071,-4.0154,-4.063,-4.0423,-3.9851,-3.929,-3.8733,-3.7672,-3.7021,-3.6703,-3.6226,-3.6005,-3.5991,0.0,0.0,0.0,-3.6005,-3.5999,-3.5994,-3.6001,-3.5992,-3.5996,-3.5996,-3.5996,-3.5996,-3.5996,-3.5996,-3.5996,-3.5995,-3.6007,-3.5999,-3.5996,-3.5995,-3.5993,-3.5992,-3.5924,-3.5866,-3.5821,-3.5766,-3.5718,-3.5708,-3.5708,-3.5718,-3.5708,-3.5708,-3.5718,-3.5708,-3.5708,-3.5708,-3.5737,-3.5708,-3.5708,-3.5737,-3.5718,-3.5698,-3.5698,-3.5697,-3.5695,-3.5695,-3.5695,-3.5704,-3.5704,-3.5704,-3.5704,-3.5704,-3.5704,-3.5704,-3.5704,-3.5704,-3.5704,-3.5704,-3.5589,-3.554,-3.5554,-3.5281,-3.5102,-3.5018,-3.4732,-3.4561,-2.6691,-2.6452,-2.622,-2.622,-2.622,-2.622,0.0,0.0,-2.622,-2.622,-2.622,-2.622,-2.622,-2.6742,-2.7213,-2.7213,-2.7748,-2.8182,-2.8182,0.0,0.0,0.0,0.0,0.0,0.0,0.0,0.0,0.0,0.0,0.0,0.0,-3.8935,-3.909,-3.909,-4.0008,-4.0183,-3.9526,-3.9507,-3.8624,-3.6922,-3.7046,-3.6658,-3.5816,-3.5948,-3.5993,0.0,0.0,0.0,0.0,-3.5994,-3.5992,-3.5996,-3.5995,-3.5996,-3.5996,-3.5996,-3.5996,-3.5996,-3.5996,-3.5996,-3.5996,-3.6001,-3.5994,-3.6003,-3.6007,-3.5994,-3.5995,-3.5923,-3.5859,-3.5791,-3.5803,-3.5803,-3.5775,-3.5708,-3.5747,-3.5775,-3.5708,-3.5747,-3.5775,-3.5708,-3.5708,-3.5718,-3.5794,-3.5747,-3.5718,-3.5794,-3.5737,-3.5708,-3.5708,-3.5708,-3.5707,-3.5707,-3.5706,-3.5704,-3.5704,-3.5704,-3.5704,-3.5704,-3.5704,-3.5704,-3.5704,-3.5704,-3.5704,-3.5704,-3.5509,-3.5397,-3.5412,-3.5119,-3.487,-3.4612,-3.4586,-3.4473,-2.6691,-2.6624,-2.6486,-2.6239,-2.622,-2.622,-2.622,-2.622,-2.622,-2.622,-2.622,-2.6274,-2.6521,-2.6891,-2.7276,-2.7504,-2.7893,-2.8182,0.0,0.0,0.0,0.0,0.0,0.0,0.0,0.0,0.0,0.0,0.0,0.0,0.0,0.0,-3.9934,-3.9934,-3.9851,-3.9721,-3.9507,-3.8315,-3.7444,-3.6884,-3.6439,-3.6066,-3.5797,-3.5948,0.0,0.0,0.0,0.0,0.0,-3.6007,-3.6009,-3.5994,-3.5996,-3.5996,-3.5996,-3.5996,-3.5996,-3.5996,-3.5996,-3.5994,-3.6003,-3.5996,-3.6007,-3.5996,-3.5994,-3.5995,-3.5994,-3.5923,-3.5846,-3.5791,-3.581,-3.5801,-3.5782,-3.5773,-3.5782,-3.5782,-3.5773,-3.5747,-3.5728,-3.5698,-3.5637,-3.5574,-3.5585,-3.5648,-3.5698,-3.5728,-3.5757,-3.5737,-3.5639,-3.5679,-3.5658,-3.5514,-3.5626,-3.5707,-3.5715,-3.5704,-3.5704,-3.5704,-3.5704,-3.5704,-3.5704,-3.5565,-3.5477,-3.5477,-3.5302,-3.5197,-3.5187,-3.4926,-3.4632,-3.4321,-3.434,-3.4269,-2.7036,-2.6971,-2.6825,-2.6623,-2.6589,0.0,0.0,-2.6503,-2.6503,-2.6239,-2.6399,-2.6589,-2.6691,-2.7085,-2.7461,-2.7672,-2.7979,0.0,0.0,0.0,0.0,0.0,0.0,0.0,0.0,0.0,0.0,0.0,0.0,0.0,0.0,0.0,-3.9361,-3.9361,-3.945,-3.9166,-3.8528,-3.7444,-3.6748,-3.6439,-3.6013,-3.5794,-3.5797,-3.5948,0.0,0.0,0.0,0.0,0.0,-3.5992,-3.5993,-3.5996,-3.5996,-3.5996,-3.5996,-3.5996,-3.5996,-3.5996,-3.5996,-3.5992,-3.5991,-3.5991,-3.5974,-3.5951,-3.5957,-3.5957,-3.5942,-3.5909,-3.584,-3.5799,-3.5799,-3.5799,-3.5799,-3.5799,-3.5799,-3.5799,-3.5799,-3.5737,-3.5707,-3.5707,-3.5585,-3.5495,-3.5495,-3.5562,-3.5626,-3.5626,-3.5648,-3.5658,-3.5566,-3.5596,-3.5574,-3.5451,-3.5538,-3.5585,-3.5589,-3.5589,-3.5546,-3.5483,-3.5464,-3.5464,-3.5464,-3.5364,-3.5288,-3.5288,-3.5098,-3.5015,-3.5018,-3.4733,-3.4458,-3.4245,-3.4221,-3.4197,0.0,-2.7491,-2.7244,-2.7213,-2.7213,-2.7117,-2.6791,-2.6956,0.0,-2.6364,-2.6742,-2.7085,-2.6791,-2.7258,-2.7701,-2.773,-2.7996,0.0,0.0,0.0,0.0,0.0,0.0,0.0,0.0,0.0,0.0,0.0,0.0,0.0,0.0,0.0,-3.7789,-3.7712,-3.8755,-3.8528,-3.6922,-3.6845,-3.6439,-3.5704,-3.5762,-3.5794,-3.5805,-3.5948,0.0,0.0,0.0,0.0,0.0,-3.5996,-3.5996,-3.5996,-3.5996,-3.5996,-3.5996,-3.5995,-3.5994,-3.5995,-3.5996,-3.5992,-3.5996,-3.5999,-3.5957,-3.589,-3.5887,-3.5887,-3.588,-3.5899,-3.5852,-3.5799,-3.5799,-3.5799,-3.5799,-3.5799,-3.5799,-3.5799,-3.5799,-3.5737,-3.5707,-3.5678,-3.5574,-3.5483,-3.5483,-3.5483,-3.5483,-3.5483,-3.5495,-3.5495,-3.5483,-3.5509,-3.5483,-3.547,-3.5438,-3.5391,-3.5378,-3.5399,-3.5306,-3.513,-3.5114,-3.5114,-3.5114,-3.5098,-3.5081,-3.5081,-3.4944,-3.4889,-3.487,-3.4564,-3.4381,-3.4293,-3.4221,-3.4197,-2.795,0.0,-2.7522,-2.7276,-2.7213,-2.7181,0.0,-2.6956,-2.6758,-2.6607,-2.6708,-2.6858,-2.7053,-2.7413,-2.7789,0.0,0.0,0.0,0.0,0.0,0.0,0.0,0.0,0.0,0.0,0.0,0.0,0.0,0.0,0.0,0.0,0.0,-3.7533,-3.6969,-3.7327,-3.7309,-3.6903,-3.6284,-3.5897,-3.5704,-3.5762,-3.5833,-3.5873,-3.5952,0.0,0.0,0.0,0.0,-3.5996,-3.5996,-3.5996,-3.5996,-3.5996,-3.5996,-3.5995,-3.5996,-3.5965,-3.5935,-3.5976,-3.5974,-3.5917,-3.5912,-3.5916,-3.5899,-3.5833,-3.5813,-3.5826,-3.5811,-3.5815,-3.5799,-3.5799,-3.5799,-3.5799,-3.5799,-3.5799,-3.5799,-3.5799,-3.5737,-3.5667,-3.5562,-3.5483,-3.5388,-3.53,-3.536,-3.5435,-3.5435,-3.5464,-3.5489,-3.5416,-3.5483,-3.5451,-3.5285,-3.5378,-3.5391,-3.5193,-3.5266,-3.5292,-3.5266,-3.5165,-3.5114,-3.5114,-3.4997,-3.4963,-3.4963,-3.4752,-3.4647,-3.4586,-3.4454,-3.4381,-3.4293,-3.4221,-3.4197,-2.8053,-2.8053,-2.7893,-2.7719,-2.7659,-2.76,-2.7276,-2.7181,-2.7068,-2.6758,-2.6939,-2.7195,0.0,0.0,0.0,0.0,0.0,0.0,0.0,0.0,0.0,0.0,0.0,0.0,0.0,0.0,0.0,0.0,0.0,0.0,0.0,0.0,-3.6492,-3.6157,-3.6277,-3.6342,-3.6342,-3.5916,-3.5704,-3.5704,-3.5766,-3.5843,-3.5899,-3.5965,0.0,0.0,0.0,0.0,-3.5996,-3.5996,-3.5996,-3.5996,-3.5996,-3.5996,-3.5994,-3.5993,-3.5966,-3.5902,-3.5976,-3.5973,-3.595,-3.591,-3.5903,-3.5899,-3.5866,-3.5852,-3.5842,-3.5799,-3.5799,-3.5799,-3.5842,-3.5815,-3.5799,-3.5842,-3.5815,-3.5799,-3.5799,-3.5699,-3.5593,-3.5507,-3.5402,-3.5289,-3.5209,-3.5258,-3.5304,-3.5304,-3.5345,-3.534,-3.532,-3.5345,-3.5326,-3.5207,-3.5296,-3.5296,-3.516,-3.5193,-3.5157,-3.5089,-3.5,-3.4944,-3.487,-3.4812,-3.4771,-3.4771,-3.4647,-3.4583,-3.4539,-3.445,-3.4363,-3.434,-3.4245,-3.4197,-2.8126,-2.8182,-2.8182,-2.8182,-2.8182,-2.8053,-2.7491,-2.7522,-2.7535,-2.6971,-2.7289,-2.7701,0.0,-2.795,0.0,0.0,0.0,0.0,0.0,0.0,0.0,0.0,0.0,0.0,0.0,0.0,0.0,0.0,0.0,0.0,0.0,0.0,0.0,-3.5528,-3.5651,-3.5704,-3.5704,-3.5704,-3.5704,-3.5704,-3.5767,-3.584,-3.5891,-3.5974,0.0,0.0,0.0,0.0,-3.5996,-3.5996,-3.5996,-3.5996,-3.5992,-3.5987,-3.5982,-3.6008,-3.595,-3.5891,-3.5955,-3.5976,-3.5986,-3.5927,-3.5899,-3.5908,-3.589,-3.5908,-3.5885,-3.5823,-3.5815,-3.5834,-3.5864,-3.585,-3.5834,-3.5891,-3.5857,-3.5826,-3.5826,-3.5679,-3.5519,-3.5507,-3.5355,-3.5226,-3.5209,-3.5209,-3.5209,-3.5209,-3.5209,-3.5209,-3.5209,-3.5209,-3.5209,-3.5209,-3.5209,-3.5209,-3.5209,-3.5162,-3.5039,-3.4829,-3.4809,-3.4747,-3.4623,-3.4602,-3.4602,-3.4602,-3.4602,-3.4602,-3.4602,-3.4473,-3.4386,-3.4404,-3.4269,-3.4197,-2.8154,-2.8182,-2.8182,-2.8182,-2.8182,-2.8182,-2.8071,-2.7864,-2.7672,-2.7565,-2.7642,-2.7701,-2.7701,-2.795,-2.8182,0.0,0.0,0.0,0.0,0.0,0.0,0.0,0.0,0.0,0.0,0.0,0.0,0.0,0.0,0.0,0.0,0.0,0.0,-3.5662,-3.5704,-3.5704,-3.5704,-3.5704,-3.5704,-3.5704,-3.5767,-3.5849,-3.589,-3.5976,-3.5996,0.0,0.0,-3.5996,-3.5996,-3.5996,-3.5996,-3.5995,-3.5995,-3.596,-3.5926,-3.5987,-3.5918,-3.5827,-3.588,-3.5923,-3.5909,-3.5899,-3.5897,-3.5892,-3.5898,-3.5911,-3.5903,-3.5897,-3.5872,-3.5864,-3.5834,-3.585,-3.5891,-3.5898,-3.5898,-3.5872,-3.5872,-3.5765,-3.5646,-3.5519,-3.543,-3.5335,-3.5226,-3.5209,-3.5209,-3.5209,-3.5209,-3.5209,-3.5209,-3.5209,-3.5209,-3.5209,-3.5209,-3.5209,-3.5209,-3.5193,-3.5089,-3.4908,-3.483,-3.4747,-3.4623,-3.4602,-3.4602,-3.4602,-3.4602,-3.4602,-3.4602,-3.4473,-3.4386,-3.4404,-3.4269,-3.4197,-2.8154,-2.8182,-2.8182,-2.8182,-2.8182,-2.8099,-2.7748,-2.7552,-2.743,-2.743,-2.743,-2.7552,0.0,0.0,0.0,0.0,0.0,0.0,0.0,0.0,0.0,0.0,0.0,0.0,0.0,0.0,0.0,0.0,0.0,0.0,0.0,0.0,0.0,0.0,-3.5704,-3.5704,-3.5704,-3.5704,-3.5723,-3.5742,-3.5785,-3.585,-3.5957,-3.5996,-3.5996,-3.5996,0.0,-3.5996,-3.5996,-3.5996,-3.5996,-3.5996,-3.5994,-3.5974,-3.596,-3.5952,-3.5925,-3.5895,-3.5852,-3.5872,-3.5908,-3.5891,-3.5892,-3.5911,-3.5903,-3.5899,-3.589,-3.589,-3.5903,-3.5885,-3.5859,-3.5885,-3.5905,-3.5905,-3.5911,-3.5879,-3.5803,-3.5718,-3.5615,-3.5483,-3.536,-3.5273,-3.5209,-3.5209,-3.5209,-3.5209,-3.5209,-3.5209,-3.5209,-3.5209,-3.5209,-3.5209,-3.5209,-3.5209,-3.5209,-3.5209,-3.5107,-3.4908,-3.4769,-3.4666,-3.4583,-3.4602,-3.4602,-3.4602,-3.4602,-3.4602,-3.4602,-3.4473,-3.4386,-3.4404,-3.4269,-3.4197,-2.8154,-2.8182,-2.8182,-2.8182,-2.8182,-2.8025,-2.7461,-2.7307,-2.7307,-2.7307,-2.7307,0.0,0.0,0.0,0.0,0.0,0.0,0.0,0.0,0.0,0.0,0.0,0.0,0.0,0.0,0.0,0.0,0.0,0.0,0.0,0.0,0.0,0.0,0.0,-3.5673,-3.5704,-3.5704,-3.5704,-3.5723,-3.5781,-3.5785,-3.5833,-3.5953,-3.5976,-3.5996,-3.5996,-3.5996,-3.5996,-3.5996,-3.5996,-3.5996,-3.5996,-3.5996,-3.6001,-3.599,-3.5929,-3.5923,-3.5955,-3.5852,-3.5845,-3.5885,-3.5885,-3.5905,-3.5905,-3.5895,-3.5912,-3.5916,-3.5916,-3.5904,-3.5911,-3.5903,-3.5897,-3.5891,-3.5894,-3.5899,-3.5864,-3.5764,-3.567,-3.5574,-3.5443,-3.53,-3.5209,-3.5209,-3.5209,-3.5209,-3.5209,-3.5209,-3.5209,-3.5209,-3.5209,-3.5209,-3.5209,-3.5209,-3.5209,-3.5209,-3.5176,-3.5072,-3.4927,-3.471,-3.4602,-3.4602,-3.4602,-3.4602,-3.4602,-3.4602,-3.4602,-3.4602,-3.4473,-3.4427,-3.4404,-3.4269,-3.4221,-2.82,-2.8182,-2.8182,-2.8182,-2.8182,-2.8126,-2.776,-2.7654,-2.7654,-2.7654,-2.7654,0.0,0.0,0.0,0.0,0.0,0.0,0.0,0.0,0.0,0.0,0.0,0.0,0.0,0.0,0.0,0.0,0.0,0.0,0.0,0.0,0.0,0.0,0.0,0.0,-3.5704,-3.5704,-3.5704,-3.5704,-3.5704,-3.5704,-3.573,-3.5827,-3.5872,-3.5937,-3.5996,-3.5996,-3.5996,-3.5996,-3.5996,-3.5996,-3.5996,-3.5996,-3.5996,-3.5992,-3.5929,-3.5894,-3.5914,-3.5889,-3.5866,-3.5815,-3.5872,-3.5905,-3.5894,-3.5899,-3.5939,-3.5991,-3.5991,-3.5958,-3.5899,-3.5894,-3.5904,-3.5903,-3.5903,-3.5903,-3.5899,-3.5889,-3.5752,-3.5585,-3.5495,-3.534,-3.5209,-3.5209,-3.5209,-3.5209,-3.5209,-3.5209,-3.5209,-3.5209,-3.5209,-3.5209,-3.5209,-3.5209,-3.5209,-3.5209,-3.5037,-3.4927,-3.4908,-3.471,-3.4602,-3.4602,-3.4602,-3.4602,-3.4602,-3.4602,-3.4602,-3.4602,-3.4517,-3.4473,-3.4404,-3.4316,-3.4269,-2.8182,-2.8182,-2.8182,-2.8182,-2.8182,-2.8126,-2.7789,-2.7701,-2.7701,-2.7701,-2.7701,0.0,0.0,0.0,0.0,0.0,0.0,0.0,0.0,0.0,0.0,0.0,0.0,0.0,0.0,0.0,0.0,0.0,0.0,0.0,0.0,0.0,0.0,0.0,0.0,-3.5433,-3.4891,-3.5433,-3.5704,-3.5704,-3.5708,-3.5747,-3.5793,-3.5876,-3.5918,-3.5937,-3.5976,-3.5996,-3.5996,-3.5996,-3.5996,-3.5996,-3.5991,-3.5993,-3.5997,-3.5919,-3.5891,-3.5898,-3.5845,-3.5845,-3.5864,-3.5879,-3.5894,-3.5919,-3.5958,-3.5988,-3.5991,-3.5991,-3.5988,-3.5958,-3.5899,-3.5899,-3.5904,-3.5904,-3.5895,-3.5899,-3.5844,-3.571,-3.557,-3.5456,-3.5307,-3.5209,-3.5209,-3.5209,-3.5209,-3.5209,-3.5209,-3.5209,-3.5209,-3.5209,-3.5209,-3.5209,-3.5209,-3.5209,-3.5209,-3.5091,-3.5001,-3.4908,-3.471,-3.4602,-3.4602,-3.4602,-3.4602,-3.4602,-3.4602,-3.4602,-3.4602,-3.4539,-3.4473,-3.4386,-3.4316,-3.4269,-2.8182,-2.8182,-2.8182,-2.8182,-2.8182,-2.8154,-2.7922,-2.7789,-2.7701,-2.7701,-2.7789,-2.7922,-2.8154,0.0,0.0,0.0,0.0,0.0,0.0,0.0,0.0,0.0,0.0,0.0,0.0,0.0,0.0,0.0,0.0,0.0,0.0,0.0,0.0,0.0,0.0,0.0,-3.4002,-3.4582,-3.5027,-3.5278,-3.5278,-3.5452,-3.5773,-3.5839,-3.5884,-3.5898,-3.5976,-3.5996,-3.5996,-3.5996,-3.5996,-3.5993,-3.5999,-3.5996,-3.5987,-3.5914,-3.5903,-3.5884,-3.5826,-3.5834,-3.5872,-3.5897,-3.5899,-3.5903,-3.5985,-3.5991,-3.5991,-3.5991,-3.5991,-3.5985,-3.5914,-3.5904,-3.5904,-3.5934,-3.5919,-3.588,-3.5836,-3.5706,-3.5582,-3.5481,-3.5321,-3.5209,-3.5209,-3.5209,-3.5209,-3.5209,-3.5209,-3.5209,-3.5209,-3.5209,-3.5209,-3.5209,-3.5209,-3.5209,-3.5209,-3.5145,-3.5038,-3.4908,-3.4751,-3.4645,-3.4602,-3.4602,-3.4602,-3.4602,-3.4602,-3.4561,-3.4517,-3.4517,-3.445,-3.4293,-3.4316,-3.4269,-2.8182,-2.8182,-2.8182,-2.8182,-2.8182,-2.8182,-2.8182,-2.795,-2.7683,-2.7683,-2.7968,-2.8182,-2.8182,0.0,0.0,0.0,0.0,0.0,0.0,0.0,0.0,0.0,0.0,0.0,0.0,0.0,0.0,0.0,0.0,0.0,0.0,0.0,0.0,0.0,0.0,0.0,-3.3082,-3.3102,-3.3538,-3.4389,-3.4389,-3.4853,-3.5704,-3.5762,-3.5833,-3.5898,-3.5976,-3.5996,-3.5996,-3.5996,-3.5992,-3.5991,-3.5991,-3.5994,-3.5982,-3.5916,-3.5895,-3.5885,-3.5818,-3.5799,-3.5807,-3.5891,-3.5908,-3.5919,-3.5981,-3.5991,-3.5991,-3.5991,-3.5991,-3.5988,-3.5912,-3.5908,-3.5912,-3.5988,-3.5939,-3.5908,-3.5908,-3.5735,-3.5592,-3.5599,-3.5378,-3.5209,-3.5209,-3.5209,-3.5209,-3.5209,-3.5209,-3.5209,-3.5209,-3.5209,-3.5209,-3.5209,-3.5209,-3.5209,-3.5209,-3.5145,-3.5038,-3.4908,-3.483,-3.4747,-3.4602,-3.4602,-3.4602,-3.4602,-3.4602,-3.4495,-3.4293,-3.4495,-3.4409,-3.4099,-3.4293,-3.4316,-2.8182,-2.8182,-2.8182,-2.8182,0.0,-2.8182,-2.8182,-2.8126,-2.8053,-2.8053,-2.8126,-2.8182,-2.8182,0.0,0.0,0.0,0.0,0.0,0.0,0.0,0.0,0.0,0.0,0.0,0.0,0.0,0.0,0.0,0.0,0.0,0.0,0.0,0.0,0.0,0.0,0.0,-3.2193,-3.2792,-3.3218,-3.3499,-3.3499,-3.4253,-3.5704,-3.5762,-3.581,-3.5838,-3.5953,-3.5996,-3.5996,-3.601,-3.5999,-3.5991,-3.5991,-3.6007,-3.5996,-3.5921,-3.5908,-3.5889,-3.583,-3.5834,-3.5872,-3.5897,-3.5904,-3.5903,-3.5985,-3.5991,-3.5991,-3.5991,-3.5991,-3.5991,-3.5988,-3.5935,-3.5908,-3.5916,-3.5912,-3.5912,-3.5962,-3.5768,-3.5602,-3.5611,-3.5386,-3.5209,-3.5209,-3.5209,-3.5209,-3.5209,-3.5209,-3.5209,-3.5209,-3.5209,-3.5209,-3.5209,-3.5209,-3.5141,-3.5001,-3.4964,-3.4889,-3.4689,-3.4666,-3.4645,-3.4602,-3.4602,-3.4602,-3.4602,-3.4473,-3.4363,-3.4293,-3.4221,-3.4049,-3.3815,-3.4074,-3.3979,-2.8182,-2.8182,0.0,-2.8182,-2.8182,-2.8182,-2.8182,0.0,0.0,0.0,-2.8182,-2.8182,0.0,0.0,0.0,0.0,0.0,0.0,0.0,0.0,0.0,0.0,0.0,0.0,0.0,0.0,0.0,0.0,0.0,0.0,0.0,0.0,0.0,0.0,0.0,0.0,-3.1333,-3.1835,-3.228,-3.258,-3.258,-3.3325,-3.4679,-3.4765,-3.4999,-3.5349,-3.5794,-3.5995,-3.5992,-3.5999,-3.5991,-3.5991,-3.5991,-3.6005,-3.5996,-3.5925,-3.59,-3.589,-3.5818,-3.5834,-3.5864,-3.5897,-3.5899,-3.5919,-3.5985,-3.5991,-3.5991,-3.5991,-3.5991,-3.5991,-3.5991,-3.5942,-3.5908,-3.5935,-3.5912,-3.5912,-3.5942,-3.5768,-3.5602,-3.5601,-3.5386,-3.5209,-3.5209,-3.5209,-3.5209,-3.5209,-3.5209,-3.5209,-3.5209,-3.5209,-3.5209,-3.5209,-3.5209,-3.5124,-3.4927,-3.4908,-3.4772,-3.4495,-3.4561,-3.4561,-3.4495,-3.4561,-3.4561,-3.4495,-3.4363,-3.4221,-3.4074,-3.4023,-3.3842,-3.3541,-3.3815,-3.3716,-2.8182,-2.8182,-2.8182,-2.8209,-2.8209,0.0,-2.8182,-2.8209,-2.8209,-2.8182,0.0,0.0,0.0,0.0,0.0,0.0,0.0,0.0,0.0,0.0,0.0,0.0,0.0,0.0,0.0,0.0,0.0,0.0,0.0,0.0,0.0,0.0,0.0,0.0,0.0,0.0,-3.0598,-3.0598,-3.0965,0.0,-3.17,-3.2106,-3.287,-3.3177,-3.3729,-3.454,-3.5384,-3.5759,-3.5779,-3.5854,-3.5874,-3.5896,-3.5971,-3.5991,-3.5999,-3.5912,-3.5893,-3.5884,-3.5813,-3.5799,-3.5815,-3.5891,-3.5889,-3.5904,-3.5981,-3.5991,-3.5991,-3.5991,-3.5991,-3.5991,-3.5991,-3.5942,-3.5916,-3.5988,-3.5939,-3.5908,-3.5903,-3.5735,-3.5592,-3.5599,-3.5378,-3.5209,-3.5209,-3.5209,-3.5209,-3.5209,-3.5209,-3.5209,-3.5209,-3.5209,-3.5209,-3.5209,-3.5209,-3.5107,-3.4889,-3.487,-3.4693,-3.4293,-3.445,-3.4473,-3.4293,-3.4473,-3.4495,-3.4293,-3.4269,-3.4074,-3.3698,-3.3868,-3.3716,-3.3262,-3.3541,-3.3512,-2.8182,-2.8182,0.0,-2.8291,-2.8273,-2.8246,-2.8209,-2.8237,-2.8246,-2.8209,0.0,0.0,0.0,0.0,0.0,0.0,0.0,0.0,0.0,0.0,0.0,0.0,0.0,0.0,0.0,0.0,0.0,0.0,0.0,0.0,0.0,0.0,0.0,0.0,0.0,-3.0559,-3.0598,-3.0598,-3.0694,0.0,-3.0868,-3.0965,-3.1197,-3.2638,-3.3439,-3.3668,-3.3867,-3.3962,-3.4003,-3.4703,-3.4976,-3.5057,-3.574,-3.5991,-3.5999,-3.5912,-3.5893,-3.5884,-3.5813,-3.5842,-3.5878,-3.5897,-3.5904,-3.5903,-3.5988,-3.5991,-3.5991,-3.5991,-3.5991,-3.5991,-3.5991,-3.5991,-3.5965,-3.5935,-3.5912,-3.5903,-3.5904,-3.5733,-3.5592,-3.5599,-3.5378,-3.5209,-3.5209,-3.5209,-3.5209,-3.5209,-3.5209,-3.5209,-3.5209,-3.5209,-3.5209,-3.5209,-3.5209,-3.5035,-3.4614,-3.4591,-3.4398,-3.4023,-3.4023,-3.4124,-3.4293,-3.434,-3.434,-3.4293,-3.3998,-3.3807,-3.3698,-3.3577,-3.3327,-3.2993,-3.328,-3.3081,-2.8237,-2.8264,0.0,-2.8264,0.0,-2.83,-2.8264,-2.837,-2.8482,0.0,0.0,0.0,0.0,0.0,0.0,0.0,0.0,0.0,0.0,0.0,0.0,0.0,0.0,0.0,0.0,0.0,0.0,0.0,0.0,0.0,0.0,0.0,0.0,0.0,-3.054,-3.0559,-3.0598,-3.0598,-3.0598,-3.0598,-3.0598,-3.0617,-3.0694,-3.205,-3.2708,-3.2809,-3.3219,-3.341,-3.3439,-3.3886,-3.4081,-3.412,-3.4588,-3.5018,-3.5374,-3.5331,-3.5577,-3.5899,-3.5858,-3.5872,-3.5911,-3.5903,-3.5909,-3.5912,-3.5988,-3.5991,-3.5991,-3.5991,-3.5991,-3.5991,-3.5991,-3.5988,-3.5935,-3.5914,-3.5927,-3.5931,-3.5919,-3.5745,-3.5592,-3.5599,-3.5378,-3.5209,-3.5209,-3.5209,-3.5209,-3.5209,-3.5209,-3.5209,-3.5209,-3.5209,-3.5209,-3.5209,-3.5107,-3.4908,-3.4529,-3.4398,-3.4184,-3.378,-3.386,-3.3921,-3.3998,-3.4023,-3.4049,-3.4148,-3.386,-3.3643,-3.3549,-3.3452,-3.3244,-3.2916,-3.3037,-3.2866,-2.8362,-2.844,-2.8569,-2.8318,-2.8353,0.0,-2.837,-2.859,-2.8795,0.0,0.0,0.0,0.0,0.0,0.0,0.0,0.0,0.0,0.0,0.0,0.0,0.0,0.0,0.0,0.0,0.0,0.0,0.0,0.0,0.0,0.0,0.0,-3.0305,-3.0402,-3.0519,-3.0588,-3.0598,-3.0598,-3.0598,-3.0598,-3.0598,-3.0636,-3.0704,-3.1442,-3.1815,-3.1921,-3.2658,-3.2971,-3.299,-3.3127,-3.3183,-3.3183,-3.3339,-3.3846,-3.4474,-3.4471,-3.4902,-3.5463,-3.5455,-3.5451,-3.5495,-3.5646,-3.57,-3.574,-3.5926,-3.5991,-3.5991,-3.5988,-3.5991,-3.5991,-3.5991,-3.5942,-3.5899,-3.5894,-3.5942,-3.5958,-3.5908,-3.5745,-3.5631,-3.5588,-3.5383,-3.5209,-3.5209,-3.5209,-3.5209,-3.5209,-3.5209,-3.5209,-3.5209,-3.5209,-3.5209,-3.5209,-3.5019,-3.4793,-3.4529,-3.4321,-3.4023,-3.3633,-3.3753,-3.3788,-3.3698,-3.3671,-3.3753,-3.3947,-3.3753,-3.3577,-3.3393,-3.3393,-3.3244,-3.2916,-3.2916,-3.274,-2.8721,0.0,-2.8989,0.0,-2.8725,-2.8993,0.0,0.0,0.0,0.0,0.0,0.0,0.0,0.0,0.0,0.0,0.0,0.0,0.0,0.0,0.0,0.0,0.0,0.0,0.0,0.0,0.0,0.0,0.0,0.0,0.0,-3.0133,-3.0247,-3.0471,-3.0491,-3.053,-3.0598,-3.0598,-3.0598,-3.0598,-3.0598,-3.0598,-3.0626,-3.0792,-3.0933,-3.1073,-3.1181,-3.1231,-3.1289,-3.1992,-3.2265,-3.2343,-3.3105,-3.3476,-3.3576,-3.3573,-3.3633,-3.373,-3.3679,-3.3692,-3.3863,-3.4605,-3.4866,-3.4992,-3.5701,-3.5942,-3.5991,-3.5935,-3.5962,-3.5991,-3.5991,-3.5942,-3.5899,-3.5894,-3.5914,-3.5895,-3.5838,-3.5795,-3.5724,-3.5554,-3.534,-3.5209,-3.5209,-3.5209,-3.5209,-3.5209,-3.5209,-3.5209,-3.5209,-3.5209,-3.5209,-3.5209,-3.5019,-3.4793,-3.4529,-3.4321,-3.4023,-3.3633,-3.3633,-3.3661,-3.3698,-3.352,-3.352,-3.3726,-3.3549,-3.3422,-3.3393,-3.3393,-3.3244,-3.2916,-3.2916,-3.274,-2.8937,-2.8975,-2.9144,0.0,-2.9012,-2.9166,-2.8997,0.0,0.0,0.0,0.0,0.0,0.0,0.0,0.0,0.0,0.0,0.0,0.0,0.0,0.0,0.0,0.0,0.0,0.0,0.0,0.0,0.0,0.0,0.0,-3.0182,-3.0247,-3.0336,-3.0491,-3.053,-3.0569,-3.0598,-3.0598,-3.0598,-3.0598,-3.0598,-3.0598,-3.0598,-3.0673,-3.0759,-3.0855,-3.0877,-3.088,-3.088,-3.1231,-3.1368,-3.1407,-3.1797,-3.2246,-3.2678,-3.2668,-3.2983,-3.3396,-3.3369,-3.3385,-3.3467,-3.3851,-3.3968,-3.4039,-3.4384,-3.4524,-3.4546,-3.4502,-3.4524,-3.4546,-3.4546,-3.4518,-3.4499,-3.4457,-3.4438,-3.4408,-3.4307,-3.5027,-3.5611,-3.5378,-3.527,-3.5209,-3.5209,-3.5209,-3.5209,-3.5209,-3.5209,-3.5209,-3.5209,-3.5209,-3.5209,-3.5209,-3.4889,-3.4632,-3.4508,-3.4184,-3.3868,-3.3633,-3.3605,-3.3577,-3.352,-3.3452,-3.3452,-3.352,-3.3452,-3.3393,-3.3393,-3.3393,-3.3274,-3.2993,-3.293,-3.2755,0.0,0.0,-2.9314,-2.9191,-2.9254,-2.9334,0.0,0.0,0.0,0.0,0.0,0.0,0.0,0.0,0.0,0.0,0.0,0.0,0.0,0.0,0.0,0.0,0.0,0.0,0.0,0.0,0.0,0.0,0.0,0.0,-3.0202,-3.0311,-3.0406,-3.0491,-3.0559,-3.0598,-3.0598,-3.0598,-3.0598,-3.0598,-3.0598,-3.0598,-3.0588,-3.0653,-3.0734,-3.0789,-3.0863,-3.088,-3.0821,-3.0801,-3.0801,-3.0801,-3.0801,-3.1192,-3.1777,-3.1777,-3.219,-3.2743,-3.2734,-3.2734,-3.2773,-3.301,-3.3063,-3.3109,-3.3334,-3.3392,-3.3392,-3.3392,-3.3392,-3.3392,-3.3395,-3.3383,-3.3364,-3.3303,-3.3298,-3.327,-3.3147,-3.4236,-3.5164,-3.4955,-3.5073,-3.5209,-3.5209,-3.5209,-3.5209,-3.5209,-3.5209,-3.5209,-3.5209,-3.5209,-3.5209,-3.5209,-3.4793,-3.4508,-3.4508,-3.4062,-3.3753,-3.3605,-3.3605,-3.3549,-3.3411,-3.3393,-3.3393,-3.3393,-3.3393,-3.3393,-3.3393,-3.3393,-3.3274,-3.3055,-3.2948,-3.277,0.0,-2.9377,0.0,-2.9375,-2.9532,0.0,0.0,0.0,0.0,0.0,0.0,0.0,0.0,0.0,0.0,0.0,0.0,0.0,0.0,0.0,0.0,0.0,0.0,0.0,0.0,0.0,0.0,0.0,0.0,0.0,-3.0182,-3.0279,-3.0364,-3.0491,-3.0559,-3.0598,-3.0598,-3.0598,-3.0598,-3.0598,-3.0598,-3.0559,-3.0501,-3.0637,-3.071,-3.0704,-3.0837,-3.0899,-3.0899,-3.0841,-3.0801,-3.0801,-3.0801,-3.0841,-3.0877,-3.0875,-3.0905,-3.0941,-3.0936,-3.0938,-3.1077,-3.1894,-3.2166,-3.232,-3.3152,-3.3392,-3.3395,-3.3392,-3.3392,-3.3399,-3.3392,-3.3353,-3.3303,-3.3298,-3.3295,-3.3278,-3.32,-3.3708,-3.4159,-3.4164,-3.4715,-3.5209,-3.5209,-3.5209,-3.5209,-3.5209,-3.5209,-3.5209,-3.5209,-3.5209,-3.5209,-3.5209,-3.4793,-3.4508,-3.4508,-3.4062,-3.3753,-3.3605,-3.3605,-3.3549,-3.3411,-3.3393,-3.3393,-3.3393,-3.3393,-3.3393,-3.3393,-3.3393,-3.3244,-3.2916,-3.2916,-3.2722,0.0,0.0,0.0,-2.9698,-2.9735,-2.9789,0.0,0.0,0.0,0.0,0.0,0.0,0.0,0.0,0.0,0.0,0.0,0.0,0.0,0.0,0.0,0.0,0.0,0.0,0.0,0.0,0.0,0.0,0.0,0.0,-3.0328,-3.0386,-3.0471,-3.0559,-3.0588,-3.0598,-3.0598,-3.0598,-3.0598,-3.0598,-3.0598,-3.0588,-3.0569,-3.0665,-3.0704,-3.0716,-3.0837,-3.088,-3.0841,-3.0801,-3.0801,-3.0801,-3.0801,-3.0799,-3.0796,-3.0794,-3.0804,-3.079,-3.0794,-3.0796,-3.0855,-3.1168,-3.1269,-3.1325,-3.1645,-3.1728,-3.1734,-3.1734,-3.1734,-3.1737,-3.1724,-3.1703,-3.167,-3.1637,-3.1591,-3.1538,-3.1429,-3.2896,-3.4192,-3.4055,-3.4668,-3.5209,-3.5209,-3.5209,-3.5209,-3.5209,-3.5209,-3.5209,-3.5209,-3.5209,-3.5209,-3.5209,-3.4793,-3.4508,-3.4508,-3.4037,-3.3698,-3.3605,-3.3549,-3.3491,-3.3393,-3.3393,-3.3393,-3.3393,-3.3393,-3.3393,-3.3393,-3.3256,-3.3165,-3.3024,-3.2802,-3.2639,-3.1071,0.0,0.0,0.0,0.0,-2.9825,0.0,0.0,0.0,0.0,0.0,0.0,0.0,0.0,0.0,0.0,0.0,0.0,0.0,0.0,0.0,0.0,0.0,0.0,0.0,0.0,0.0,0.0,0.0,0.0,-3.0292,-3.0383,-3.0469,-3.054,-3.0588,-3.0598,-3.0598,-3.0598,-3.0598,-3.0598,-3.0598,-3.0588,-3.0579,-3.0665,-3.0697,-3.0671,-3.0817,-3.0841,-3.0801,-3.0801,-3.0801,-3.0801,-3.0799,-3.0796,-3.0791,-3.0804,-3.0794,-3.0802,-3.0801,-3.0801,-3.0804,-3.0806,-3.0798,-3.08,-3.0793,-3.0794,-3.0806,-3.0806,-3.0806,-3.081,-3.0798,-3.0802,-3.0789,-3.073,-3.0661,-3.0585,-3.0433,-3.2196,-3.3737,-3.3593,-3.4445,-3.5209,-3.5209,-3.5209,-3.5209,-3.5209,-3.5141,-3.5089,-3.5089,-3.5018,-3.4963,-3.4963,-3.4632,-3.4375,-3.4371,-3.3954,-3.3671,-3.3577,-3.352,-3.3481,-3.3393,-3.3393,-3.3393,-3.3393,-3.3393,-3.3393,-3.3393,-3.3196,-3.3086,-3.3024,-3.2737,-3.2573,0.0,0.0,0.0,0.0,0.0,0.0,0.0,0.0,0.0,0.0,0.0,0.0,0.0,0.0,0.0,0.0,0.0,0.0,0.0,0.0,0.0,0.0,0.0,0.0,0.0,0.0,0.0,0.0,0.0,-3.0109,-3.0109,-3.024,-3.0323,-3.0398,-3.054,-3.0598,-3.0598,-3.0598,-3.0598,-3.0598,-3.0598,-3.055,-3.049,-3.0637,-3.0665,-3.06,-3.0732,-3.0799,-3.0799,-3.0801,-3.0801,-3.0799,-3.0794,-3.0794,-3.0791,-3.079,-3.0802,-3.0798,-3.0808,-3.0804,-3.0808,-3.0804,-3.0806,-3.0799,-3.0796,-3.0804,-3.0799,-3.0799,-3.0799,-3.0808,-3.079,-3.0798,-3.0784,-3.073,-3.069,-3.0642,-3.0443,-3.1672,-3.2766,-3.2722,-3.4063,-3.5209,-3.5209,-3.5209,-3.5209,-3.5193,-3.5037,-3.4908,-3.4889,-3.4653,-3.4508,-3.4508,-3.4321,-3.4173,-3.4099,-3.3842,-3.3643,-3.3509,-3.3509,-3.3481,-3.3393,-3.3393,-3.3393,-3.3393,-3.3393,-3.3393,-3.3364,-3.3196,-3.3024,-3.2884,-3.2705,-3.2523,-3.1803,0.0,0.0,0.0,0.0,0.0,0.0,0.0,0.0,0.0,0.0,0.0,0.0,0.0,0.0,0.0,0.0,0.0,0.0,0.0,0.0,0.0,0.0,0.0,0.0,0.0,0.0,0.0,-3.0079,-3.0138,-3.024,-3.0323,-3.0394,-3.0398,-3.054,-3.0598,-3.0598,-3.0598,-3.0598,-3.0598,-3.0598,-3.0559,-3.0491,-3.0602,-3.0637,-3.0672,-3.0701,-3.0728,-3.0728,-3.0774,-3.0799,-3.0796,-3.0796,-3.0794,-3.0804,-3.0804,-3.0801,-3.0794,-3.079,-3.0802,-3.0798,-3.0806,-3.0799,-3.0799,-3.074,-3.0752,-3.0799,-3.0739,-3.0769,-3.0804,-3.0789,-3.0759,-3.0717,-3.0697,-3.069,-3.0642,-3.0443,-3.1738,-3.2897,-3.2737,-3.4063,-3.5209,-3.5209,-3.5209,-3.5141,-3.5,-3.4945,-3.4831,-3.4632,-3.4551,-3.4508,-3.4508,-3.4279,-3.4124,-3.4099,-3.378,-3.3549,-3.3491,-3.3452,-3.3422,-3.3393,-3.3393,-3.3393,-3.3393,-3.3393,-3.3256,-3.2957,-3.2961,-3.2948,-3.2884,-3.2608,-3.2457,-3.2096,-3.1185,0.0,0.0,0.0,0.0,0.0,-2.9891,0.0,0.0,0.0,0.0,0.0,0.0,0.0,0.0,0.0,0.0,0.0,0.0,0.0,0.0,0.0,0.0,0.0,0.0,0.0,0.0,-3.0034,-3.0064,-3.0123,-3.0286,-3.0359,-3.0359,-3.0519,-3.0598,-3.0598,-3.0598,-3.0598,-3.0598,-3.0598,-3.0559,-3.051,-3.0591,-3.063,-3.0622,-3.0675,-3.0677,-3.0661,-3.0728,-3.0762,-3.0758,-3.0794,-3.0794,-3.0804,-3.0807,-3.0804,-3.0798,-3.0798,-3.079,-3.0802,-3.0806,-3.0801,-3.0781,-3.0758,-3.0746,-3.0759,-3.071,-3.0722,-3.0769,-3.0799,-3.0748,-3.0691,-3.0697,-3.069,-3.0642,-3.0443,-3.1472,-3.2512,-3.266,-3.4063,-3.5209,-3.5209,-3.5209,-3.5124,-3.4945,-3.4793,-3.4632,-3.4416,-3.426,-3.4213,-3.4213,-3.4055,-3.3921,-3.3895,-3.3643,-3.3481,-3.3452,-3.3268,-3.3147,-3.3147,-3.3147,-3.3147,-3.3147,-3.3316,-3.3147,-3.2634,-3.2816,-3.282,-3.2674,-3.2371,-3.2267,-3.2079,-3.1405,-3.064,0.0,0.0,0.0,-2.9823,-2.9857,0.0,0.0,0.0,0.0,0.0,0.0,0.0,0.0,0.0,0.0,0.0,0.0,0.0,0.0,0.0,0.0,0.0,0.0,-2.9888,-2.9888,-2.9888,-2.9905,-2.9921,-3.0152,-3.0292,-3.0305,-3.0499,-3.0598,-3.0598,-3.0598,-3.0598,-3.0598,-3.0598,-3.055,-3.049,-3.0622,-3.061,-3.051,-3.0626,-3.0639,-3.0586,-3.0656,-3.0682,-3.0711,-3.0765,-3.0794,-3.0791,-3.0804,-3.0801,-3.0801,-3.0801,-3.0794,-3.0806,-3.0794,-3.0808,-3.08,-3.0795,-3.0755,-3.0697,-3.0704,-3.0698,-3.0703,-3.0769,-3.0739,-3.071,-3.0697,-3.069,-3.0642,-3.0443,-3.1067,-3.1896,-3.2565,-3.3987,-3.5095,-3.519,-3.5174,-3.5089,-3.4889,-3.4632,-3.4375,-3.4179,-3.3947,-3.3807,-3.3807,-3.3726,-3.3671,-3.3605,-3.352,-3.3452,-3.3393,-3.3019,-3.2795,-3.2795,-3.2795,-3.2795,-3.2795,-3.3099,-3.2943,-3.2351,-3.2654,-3.2623,-3.2284,-3.202,-3.202,0.0,0.0,0.0,0.0,0.0,0.0,-2.9872,-2.9888,0.0,0.0,0.0,0.0,0.0,0.0,0.0,0.0,0.0,0.0,0.0,0.0,0.0,0.0,0.0,0.0,0.0,0.0,-2.9888,-2.9888,-2.9888,-2.9937,-3.0064,-3.0207,-3.033,-3.0383,-3.053,-3.0598,-3.0598,-3.0598,-3.0598,-3.0598,-3.0598,-3.055,-3.0509,-3.053,-3.0511,-3.0501,-3.0518,-3.0527,-3.0518,-3.0586,-3.0639,-3.0716,-3.0765,-3.0796,-3.0794,-3.0796,-3.0796,-3.0796,-3.0796,-3.0794,-3.0807,-3.0801,-3.0792,-3.08,-3.0739,-3.0703,-3.0703,-3.0697,-3.0698,-3.0691,-3.0722,-3.071,-3.0704,-3.0697,-3.069,-3.0642,-3.0443,-3.1067,-3.1896,-3.2565,-3.3528,-3.4445,-3.5095,-3.5072,-3.487,-3.4632,-3.4394,-3.4154,-3.3921,-3.3815,-3.3807,-3.3807,-3.3698,-3.3587,-3.3605,-3.3509,-3.3393,-3.3393,-3.3019,-3.2795,-3.2795,-3.2795,-3.2795,-3.2795,-3.2517,-3.2231,-3.2002,-3.2214,-3.2109,-3.1671,-3.1839,-3.1839,0.0,0.0,0.0,-3.0376,0.0,0.0,0.0,-2.9888,-2.9888,0.0,0.0,0.0,0.0,0.0,0.0,0.0,0.0,0.0,0.0,0.0,0.0,0.0,0.0,0.0,0.0,0.0,-2.9984,-2.9984,-2.9984,-3.0064,-3.018,-3.0286,-3.0371,-3.0398,-3.054,-3.0598,-3.0598,-3.0598,-3.0598,-3.0598,-3.0559,-3.052,-3.05,-3.053,-3.0511,-3.0442,-3.0482,-3.0492,-3.046,-3.0509,-3.0568,-3.0613,-3.0711,-3.0768,-3.0796,-3.0799,-3.0801,-3.0801,-3.0801,-3.0796,-3.0794,-3.0791,-3.0792,-3.0781,-3.0756,-3.0728,-3.0704,-3.0697,-3.0698,-3.0704,-3.0697,-3.0698,-3.069,-3.069,-3.069,-3.0642,-3.0443,-3.0749,-3.1376,-3.2488,-3.3051,-3.3757,-3.4999,-3.5037,-3.4812,-3.4551,-3.4325,-3.4099,-3.3815,-3.3807,-3.3807,-3.3807,-3.3671,-3.3605,-3.3605,-3.3481,-3.3316,-3.3099,-3.2749,-3.2468,-3.2265,-3.2265,-3.2368,-3.2535,-3.2039,-3.1733,-3.164,-3.1637,-3.1562,-3.1504,-3.1466,-3.1466,0.0,0.0,0.0,0.0,0.0,-3.0028,0.0,0.0,0.0,-2.9888,0.0,0.0,0.0,0.0,0.0,0.0,0.0,0.0,0.0,0.0,0.0,0.0,0.0,0.0,0.0,0.0,-3.0138,-3.0138,-3.0138,-3.0194,-3.0318,-3.0371,-3.0409,-3.0439,-3.055,-3.0598,-3.0598,-3.0598,-3.0598,-3.0598,-3.053,-3.0491,-3.0501,-3.053,-3.0511,-3.0428,-3.0462,-3.046,-3.0402,-3.0451,-3.0482,-3.0519,-3.0645,-3.0732,-3.0774,-3.0799,-3.0801,-3.0801,-3.0801,-3.0799,-3.0794,-3.0799,-3.0793,-3.0801,-3.0784,-3.074,-3.0697,-3.0704,-3.0691,-3.0697,-3.0704,-3.0691,-3.069,-3.069,-3.069,-3.0642,-3.0443,-3.0402,-3.081,-3.2201,-3.2577,-3.3226,-3.4923,-3.5037,-3.4812,-3.4551,-3.4325,-3.4099,-3.3815,-3.3807,-3.3807,-3.378,-3.3671,-3.3605,-3.3577,-3.3481,-3.3256,-3.2957,-3.2553,-3.2127,-3.1823,-3.175,-3.186,-3.2179,-3.1696,-3.1397,-3.13,-3.1078,-3.1055,-3.1312,-3.1095,-3.1134,0.0,0.0,0.0,0.0,-3.0613,0.0,0.0,0.0,-2.9888,-2.9888,0.0,-2.9888,-2.9888,0.0,0.0,0.0,0.0,0.0,0.0,0.0,0.0,0.0,0.0,0.0,0.0,0.0,0.0,-3.0266,-3.0266,-3.0318,-3.0375,-3.0406,-3.0449,-3.0559,-3.0598,-3.0598,-3.0598,-3.0598,-3.0598,-3.0598,-3.053,-3.0491,-3.0491,-3.0449,-3.0449,-3.0499,-3.0425,-3.0414,-3.0406,-3.0414,-3.0449,-3.0519,-3.0645,-3.0691,-3.072,-3.0771,-3.0801,-3.0801,-3.0801,-3.0799,-3.0799,-3.0794,-3.0798,-3.0788,-3.0728,-3.0709,-3.0697,-3.0697,-3.0697,-3.0697,-3.0697,-3.0697,-3.069,-3.069,-3.069,-3.0642,-3.0443,-3.0402,-3.0656,-3.1489,-3.221,-3.3226,-3.4923,-3.5037,-3.4812,-3.4551,-3.4325,-3.4099,-3.3815,-3.3807,-3.378,-3.3726,-3.3643,-3.3577,-3.3538,-3.3452,-3.3364,-3.3316,-3.2702,-3.2283,-3.2231,-3.1896,-3.1714,-3.175,-3.164,-3.1355,-3.0935,-3.0814,-3.0692,-3.0634,-3.0895,-3.0855,0.0,0.0,0.0,0.0,0.0,0.0,0.0,0.0,-2.9888,0.0,0.0,0.0,0.0,0.0,0.0,0.0,0.0,0.0,0.0,0.0,0.0,0.0,0.0,0.0,0.0,0.0,0.0,0.0,0.0,-3.0394,-3.05,-3.053,-3.054,-3.0598,-3.0598,-3.0598,-3.0598,-3.0598,-3.0598,-3.0598,-3.053,-3.0491,-3.0491,-3.0479,-3.0439,-3.0439,-3.0406,-3.0394,-3.0402,-3.041,-3.0439,-3.051,-3.06,-3.0661,-3.0715,-3.0771,-3.0801,-3.0801,-3.0801,-3.0801,-3.0801,-3.0799,-3.0797,-3.0798,-3.0771,-3.0768,-3.075,-3.072,-3.0709,-3.0703,-3.0704,-3.069,-3.069,-3.069,-3.069,-3.0642,-3.0443,-3.0402,-3.0598,-3.1317,-3.2134,-3.3089,-3.4292,-3.4585,-3.4632,-3.4529,-3.4208,-3.3921,-3.3753,-3.378,-3.378,-3.3698,-3.3643,-3.3605,-3.3549,-3.3452,-3.3286,-3.3068,-3.2368,-3.186,-3.1674,-3.1504,-3.1428,-3.1428,-3.1274,-3.1095,-3.0912,-3.0692,-3.0568,-3.051,-3.0634,-3.0634,-3.3256,0.0,0.0,0.0,0.0,0.0,0.0,0.0,0.0,0.0,0.0,0.0,0.0,0.0,-3.0123,0.0,0.0,0.0,0.0,0.0,0.0,0.0,0.0,0.0,0.0,0.0,0.0,0.0,0.0,0.0,-3.0598,-3.0598,-3.0598,-3.0598,-3.0598,-3.0598,-3.0598,-3.0598,-3.0598,-3.0598,-3.053,-3.0491,-3.0491,-3.049,-3.0469,-3.0428,-3.0417,-3.0406,-3.0402,-3.041,-3.0436,-3.0482,-3.0543,-3.06,-3.065,-3.0735,-3.0771,-3.0768,-3.0758,-3.0762,-3.0771,-3.0799,-3.0795,-3.0801,-3.0801,-3.0796,-3.0796,-3.0732,-3.0715,-3.0697,-3.0691,-3.0697,-3.0676,-3.071,-3.0668,-3.0582,-3.0433,-3.0381,-3.0518,-3.0978,-3.1771,-3.2634,-3.3478,-3.4206,-3.4655,-3.4529,-3.4213,-3.3928,-3.3726,-3.3753,-3.3753,-3.3643,-3.3605,-3.3577,-3.3549,-3.3452,-3.3178,-3.2699,-3.2056,-3.1562,-3.123,-3.119,-3.119,-3.119,-3.1032,-3.0912,-3.0912,-3.0651,-3.0526,-3.0526,-3.0526,-3.0526,0.0,0.0,0.0,-3.2565,0.0,0.0,0.0,0.0,-2.9888,0.0,0.0,0.0,0.0,-3.0094,-3.0161,-3.0352,0.0,0.0,0.0,0.0,0.0,0.0,0.0,0.0,0.0,0.0,0.0,0.0,0.0,0.0,-3.0598,-3.0598,-3.0598,-3.0598,-3.0598,-3.0598,-3.0598,-3.0598,-3.0598,-3.0598,-3.053,-3.0491,-3.0491,-3.049,-3.0499,-3.0479,-3.0428,-3.0398,-3.0386,-3.0402,-3.041,-3.0402,-3.0482,-3.051,-3.0509,-3.065,-3.0691,-3.0687,-3.0626,-3.0645,-3.072,-3.0771,-3.0795,-3.0801,-3.0801,-3.0796,-3.0801,-3.0799,-3.0755,-3.0701,-3.0701,-3.0646,-3.0621,-3.0683,-3.0537,-3.0413,-3.0402,-3.0356,-3.0279,-3.0251,-3.093,-3.1779,-3.2523,-3.4056,-3.5016,-3.4572,-3.4486,-3.4284,-3.3762,-3.3698,-3.3643,-3.352,-3.3491,-3.3481,-3.3393,-3.3393,-3.3086,-3.2351,-3.1932,-3.1562,-3.123,-3.119,-3.119,-3.119,-3.1072,-3.0975,-3.0912,-3.0773,-3.0609,-3.0526,-3.0526,-3.0526,0.0,0.0,-3.2684,-3.2169,0.0,0.0,0.0,0.0,0.0,0.0,0.0,0.0,0.0,0.0,-3.0138,-3.0247,-3.0348,-3.0428,0.0,0.0,0.0,0.0,0.0,0.0,0.0,0.0,0.0,0.0,0.0,0.0,0.0,-3.0598,-3.0598,-3.0598,-3.0598,-3.0598,-3.0598,-3.0598,-3.0598,-3.0598,-3.0588,-3.053,-3.0491,-3.055,-3.053,-3.0428,-3.0458,-3.0447,-3.0402,-3.041,-3.0436,-3.0472,-3.0482,-3.0537,-3.0564,-3.0614,-3.0633,-3.0633,-3.0656,-3.0677,-3.0715,-3.0771,-3.0806,-3.0792,-3.0792,-3.0796,-3.08,-3.08,-3.0788,-3.0758,-3.0711,-3.0646,-3.0604,-3.0629,-3.0501,-3.0392,-3.0344,-3.0285,-3.0228,-3.0199,-3.0829,-3.1622,-3.245,-3.3406,-3.415,-3.4386,-3.416,-3.3876,-3.3671,-3.3615,-3.3605,-3.3491,-3.3298,-3.3238,-3.3452,-3.3422,-3.3086,-3.2351,-3.2179,-3.1841,-3.123,-3.119,-3.119,-3.119,-3.1015,-3.0912,-3.0912,-3.0692,-3.0551,-3.0526,-3.0526,-3.0526,-3.2588,-3.2687,0.0,-3.2469,-3.2409,0.0,-3.157,0.0,0.0,0.0,0.0,0.0,0.0,0.0,-3.0155,-3.0279,-3.0375,-3.0449,0.0,-3.055,0.0,0.0,0.0,0.0,0.0,0.0,0.0,-3.0598,-3.0598,0.0,0.0,0.0,-3.0598,-3.0598,-3.0598,-3.0598,-3.0598,-3.0598,-3.0598,-3.0598,-3.0598,-3.0559,-3.0491,-3.0569,-3.054,-3.0398,-3.0479,-3.0458,-3.0402,-3.0433,-3.0469,-3.0492,-3.0462,-3.0482,-3.0535,-3.056,-3.0552,-3.0543,-3.0633,-3.0661,-3.0672,-3.0768,-3.0801,-3.0801,-3.0801,-3.0801,-3.0923,-3.1543,-3.1283,-3.093,-3.1475,-3.1079,-3.052,-3.053,-3.0422,-3.0321,-3.026,-3.0215,-3.0152,-3.0094,-3.0487,-3.1035,-3.1748,-3.2448,-3.3231,-3.4218,-3.4049,-3.3753,-3.3577,-3.3549,-3.3549,-3.3481,-3.3286,-3.3178,-3.325,-3.3099,-3.2734,-3.2144,-3.2109,-3.1841,-3.123,-3.119,-3.1309,-3.1579,-3.1127,-3.1046,-3.1314,-3.0742,-3.0526,-3.0526,-3.0526,-3.0526]}]]